GFSGBSN_500_rhum_000.txt.gz
RH
9 8 8 6 5 6 7 7 7 9 9 11 20 29 17 22 47 44 42 46 51 53 47 43 49 42 40 35 29 30 31 36 34 32 26 27 33 47 40 52 65 54 44 37 37 34 21
14 10 9 8 7 7 7 7 9 9 10 11 14 36 22 25 51 51 56 61 62 51 40 37 39 41 47 40 36 35 32 31 39 32 34 27 30 46 61 61 66 62 50 41 39 37 28
19 18 12 8 8 8 8 8 9 9 11 11 15 33 31 28 64 59 63 62 56 53 49 52 57 61 56 53 44 41 36 32 32 47 34 36 35 45 68 62 76 65 53 42 42 40 31
19 20 17 13 8 9 8 8 9 10 12 11 15 28 38 27 65 69 68 61 59 66 59 63 73 68 54 64 58 47 40 29 29 49 46 32 38 44 69 67 87 74 57 42 50 42 32
18 19 19 15 12 9 9 9 9 10 12 12 15 26 44 35 41 68 70 67 66 68 69 83 83 71 62 75 75 56 41 39 42 49 37 29 31 46 83 72 84 83 55 45 52 41 35
10 15 18 17 14 12 11 10 8 9 11 13 15 27 46 42 49 56 58 62 74 75 80 93 93 87 75 67 68 69 53 77 77 53 34 27 33 50 82 80 62 74 59 51 49 42 32
43 9 9 13 14 14 12 10 8 8 10 13 15 26 49 40 56 59 73 81 83 74 95 92 92 98 85 76 87 80 73 94 78 66 44 49 51 55 73 67 82 90 74 53 50 43 32
84 46 9 9 12 17 13 11 9 8 9 13 15 24 45 41 73 80 92 89 85 90 92 98 100 100 99 95 99 67 86 78 84 99 88 92 53 61 98 92 97 88 72 54 60 43 30
62 92 25 13 10 17 14 12 10 9 9 13 16 23 39 40 62 93 99 96 96 99 99 97 100 100 100 99 89 74 84 74 87 100 100 99 46 84 88 88 97 92 69 56 68 46 29
61 93 90 10 10 17 15 14 11 10 9 12 16 25 34 31 76 93 96 96 99 100 100 91 100 100 100 100 69 72 96 72 91 100 100 100 91 94 97 89 96 95 71 66 70 50 37
71 70 96 27 12 17 17 14 12 11 10 12 16 27 30 29 80 85 96 98 100 100 97 99 100 100 100 99 73 79 99 73 98 100 100 96 96 98 96 84 98 96 77 78 66 53 40
92 93 98 65 16 18 18 15 13 17 13 12 16 27 22 46 79 80 96 98 100 100 98 100 100 100 98 95 78 97 91 94 100 100 100 100 94 98 89 96 98 94 85 73 62 52 43
67 99 98 83 23 18 17 14 17 30 18 13 17 26 28 38 75 74 99 99 99 99 100 100 100 100 100 81 66 100 97 94 100 99 96 98 98 89 87 98 94 96 87 72 63 54 42
98 100 98 93 36 16 16 14 27 36 23 14 18 27 49 26 65 90 98 99 100 99 100 100 100 100 100 79 95 100 100 100 100 86 100 98 99 91 64 95 80 86 80 68 66 58 44
100 100 100 98 40 25 15 20 36 39 25 14 18 29 48 28 62 99 98 100 98 100 100 98 100 95 96 84 100 99 91 100 77 90 97 99 96 92 72 68 98 86 75 67 70 57 43
96 100 95 96 64 38 30 34 41 41 26 15 19 35 44 35 69 97 99 100 98 99 100 43 53 73 64 79 82 62 74 96 54 94 98 100 100 99 98 94 93 81 80 69 61 57 55
81 100 100 98 86 42 40 39 44 43 24 15 19 31 40 26 64 97 98 99 97 95 55 35 46 56 61 57 52 43 58 64 51 85 98 97 86 73 73 76 84 66 85 77 68 53 46
100 100 100 98 96 48 45 45 47 44 21 15 19 30 42 25 66 97 98 98 98 77 54 28 34 48 52 45 40 37 40 48 56 67 81 99 72 68 53 66 92 97 87 97 70 51 44
100 100 100 98 99 61 48 49 49 43 19 15 20 23 45 33 80 99 98 98 98 84 53 47 38 54 55 37 35 36 46 65 63 79 76 81 84 77 80 81 78 84 76 72 63 51 45
100 100 100 97 88 86 52 51 50 44 18 16 21 25 43 26 92 97 97 98 98 91 52 46 51 74 51 43 39 39 49 73 86 87 95 78 81 78 66 57 63 59 51 67 59 51 52
100 100 100 94 91 85 56 53 51 42 20 17 23 30 48 25 96 99 97 98 98 96 80 54 37 48 65 48 45 43 52 63 81 92 95 90 81 81 73 74 76 76 79 80 65 55 49
100 100 100 94 96 86 65 54 51 43 22 18 25 22 43 23 90 94 97 98 98 98 98 97 63 48 56 56 62 59 60 78 78 67 72 78 79 82 82 69 69 61 67 62 59 57 48
100 100 100 100 98 98 57 53 52 38 22 20 26 22 47 24 67 94 98 98 99 96 97 98 100 60 61 69 84 98 88 97 98 98 85 83 81 85 83 72 65 64 55 57 53 52 60
100 100 100 100 100 100 97 73 45 36 22 21 27 24 43 30 65 98 98 98 97 97 97 98 69 61 72 83 96 94 100 89 91 98 99 97 79 79 78 67 57 54 62 60 61 62 63
100 100 100 100 100 99 100 94 48 33 23 22 28 27 50 29 61 100 91 98 97 98 96 92 70 66 67 83 99 96 97 97 99 96 95 96 90 79 79 99 76 69 69 74 76 86 81
100 100 100 100 100 98 100 69 45 29 23 21 30 31 58 33 72 99 92 97 98 95 96 89 76 78 62 80 90 81 79 80 79 96 95 89 77 93 96 90 83 97 97 88 87 64 45
100 100 100 100 100 100 99 96 49 30 23 24 33 33 65 35 85 100 89 96 98 98 93 90 86 79 75 75 76 76 70 87 83 96 69 83 77 98 95 77 78 96 96 94 87 82 78
100 100 100 100 100 100 98 91 49 27 24 30 37 35 72 36 80 100 93 96 98 97 98 99 91 89 95 96 98 94 81 72 79 94 91 85 73 80 91 94 97 98 91 90 85 83 86
100 100 100 100 100 100 98 85 36 25 29 37 37 38 77 39 78 99 97 95 98 98 98 98 98 98 98 99 98 97 94 96 98 99 100 98 84 96 97 95 100 96 94 98 91 78 75

GFSGBSN_500_rhum_003.txt.gz
RH
16 15 13 11 10 9 9 8 9 8 8 8 9 9 10 9 14 28 20 29 48 53 47 41 39 42 44 38 34 33 31 38 33 29 27 25 24 23 16 21 27 32 32 63 50 34 41
16 17 17 14 11 9 9 9 9 9 9 8 10 10 10 10 14 27 29 29 53 58 61 58 57 50 45 40 47 43 43 42 40 34 32 30 28 31 25 26 30 32 39 61 56 37 38
14 16 18 18 17 13 9 8 8 9 9 7 10 11 10 11 13 22 39 31 60 67 65 56 53 56 48 53 52 56 50 48 44 38 32 34 33 33 31 30 28 44 43 65 57 44 41
44 15 15 17 19 19 16 10 9 9 9 8 9 11 12 13 15 21 40 34 41 64 68 62 56 52 51 63 53 67 67 54 50 43 39 37 36 35 30 37 34 39 47 47 57 47 47
49 45 27 13 17 18 19 16 13 10 11 10 9 9 12 14 14 23 42 39 50 60 54 58 72 66 56 75 71 74 69 64 55 47 42 36 32 30 35 39 47 59 42 38 65 51 51
38 45 50 41 12 15 18 18 15 14 12 10 8 8 12 15 15 22 40 40 44 55 73 84 77 66 62 78 91 88 79 72 63 63 50 39 38 30 32 42 44 51 43 47 64 60 51
9 44 47 53 48 18 11 17 17 15 14 11 8 7 10 14 15 24 36 34 52 78 87 80 69 77 69 77 81 98 85 69 55 45 39 42 41 29 25 35 41 68 66 70 73 70 59
10 6 43 55 60 54 13 9 14 16 15 12 10 8 7 13 14 27 31 28 67 83 80 85 74 78 78 86 88 99 99 90 68 56 56 58 51 42 24 40 62 71 78 84 90 74 57
10 7 5 52 54 74 50 6 8 15 16 13 11 9 7 13 14 27 26 46 86 94 85 70 71 73 92 97 97 98 94 90 67 56 59 79 54 58 53 48 74 69 92 80 90 85 62
7 7 5 16 58 56 85 14 9 14 16 14 12 10 8 13 15 25 30 74 87 98 87 63 79 84 99 100 92 100 100 92 73 75 97 92 100 93 66 45 86 73 72 98 96 87 63
3 5 3 22 60 57 64 70 20 16 16 15 13 12 9 14 15 37 40 86 88 99 92 86 92 98 100 100 100 100 98 76 75 83 88 57 73 90 63 45 62 84 95 87 97 79 65
96 98 19 5 71 64 59 93 15 15 17 16 14 18 14 15 17 44 35 74 91 99 96 98 100 100 100 100 100 99 78 62 88 95 93 77 99 89 49 100 90 94 94 76 96 83 62
86 100 100 92 28 69 52 94 22 16 18 17 16 28 17 16 20 44 40 64 96 100 99 98 100 100 100 100 99 96 74 72 75 95 93 100 91 86 90 97 98 97 84 94 96 82 58
17 71 100 100 43 82 66 96 26 20 19 18 21 34 16 18 21 41 39 82 99 97 100 100 100 100 100 100 96 74 86 89 81 100 100 98 99 95 90 87 96 81 97 87 77 72 59
97 100 100 100 72 92 94 100 29 23 20 19 31 35 16 18 28 39 46 92 99 99 100 100 100 80 100 100 95 70 79 92 98 100 100 90 79 92 97 96 98 99 97 97 86 65 76
100 100 100 100 100 100 94 99 30 26 22 22 37 32 15 18 40 34 45 98 96 100 100 100 53 72 100 98 64 74 71 78 86 100 100 99 75 77 85 97 75 97 97 83 76 68 65
100 100 100 100 100 99 95 96 34 28 24 28 37 29 18 20 44 30 49 98 98 100 93 57 47 56 79 71 73 74 95 90 82 99 100 100 99 95 94 97 85 96 91 94 74 66 78
96 100 100 85 93 100 100 93 39 31 26 32 33 23 17 23 44 33 86 98 96 100 88 36 40 44 67 66 70 94 99 72 80 99 95 99 98 100 58 60 87 98 98 86 75 69 67
62 100 100 73 100 100 100 79 41 31 29 33 31 19 19 24 44 40 96 98 96 100 80 35 29 37 47 56 59 90 54 50 74 97 99 99 99 88 96 80 100 78 95 86 85 67 58
100 84 100 96 100 100 100 75 39 31 30 36 28 16 21 30 41 35 96 98 99 99 81 50 28 31 38 40 36 49 45 42 86 96 100 94 82 99 90 69 61 65 79 81 75 62 56
100 100 100 99 100 100 100 80 39 30 38 34 27 17 24 33 38 36 92 97 99 99 95 46 55 36 32 34 29 29 63 51 49 74 87 73 77 75 68 56 62 67 74 89 71 74 60
100 100 100 100 100 99 100 96 50 38 40 31 23 19 26 36 48 28 91 98 99 99 98 80 45 61 46 35 32 36 50 47 50 57 67 78 77 86 82 92 86 78 81 70 60 56 57
100 100 100 100 100 100 99 100 77 57 41 25 22 20 26 40 45 25 61 98 98 99 98 97 83 61 66 48 47 68 100 100 89 67 76 62 76 83 80 81 78 73 58 53 59 49 58
98 100 98 100 100 98 76 100 76 77 32 27 21 21 26 33 44 26 58 98 98 100 98 98 94 61 86 64 56 52 65 70 86 95 85 97 97 93 77 86 72 52 63 65 62 62 63
100 100 100 100 100 100 97 99 81 69 29 23 22 22 26 26 44 32 80 98 98 100 96 90 98 99 85 90 82 69 60 68 80 90 92 96 97 92 97 90 80 76 74 72 72 76 69
94 100 100 100 100 98 99 100 94 77 26 20 21 23 27 27 43 36 94 98 97 97 97 92 100 87 68 80 93 98 80 66 85 90 94 94 100 93 86 90 83 81 66 63 63 69 70
66 100 100 100 100 100 100 100 86 79 53 20 22 25 29 32 45 46 96 97 98 100 99 98 77 65 75 73 87 98 98 98 80 81 83 80 82 79 79 78 78 93 85 73 68 71 76
90 100 100 100 100 100 100 98 92 100 86 28 30 27 33 35 48 54 88 98 97 100 100 95 78 72 70 69 81 87 88 90 88 92 94 91 97 65 71 93 92 99 95 96 97 83 82
83 100 100 100 100 100 100 99 99 98 64 28 27 33 35 40 56 59 98 98 97 98 100 93 98 94 83 65 66 82 94 90 78 82 80 81 66 79 69 95 100 97 99 97 98 95 94

GFSGBSN_500_rhum_006.txt.gz
RH
50 15 14 16 15 13 11 11 10 9 9 9 9 8 7 7 9 9 10 10 14 22 25 18 29 38 44 34 39 29 27 39 41 38 39 42 36 31 25 22 20 15 13 18 28 38 48
55 50 19 15 17 17 15 12 11 10 10 10 10 9 7 7 10 10 10 12 14 19 32 28 34 42 54 45 57 48 47 47 45 38 38 36 36 33 27 23 23 20 17 17 24 30 34
45 54 50 30 15 17 18 18 14 12 11 10 9 8 7 6 8 10 10 12 14 22 36 34 39 56 51 59 53 54 44 47 43 42 40 36 36 36 33 30 25 22 20 21 18 28 26
25 30 49 50 40 16 17 18 19 19 18 15 11 10 8 8 6 9 12 12 15 23 31 38 30 37 48 63 48 51 38 42 48 47 44 46 46 42 39 35 30 29 39 19 16 23 26
17 25 30 38 49 45 32 14 18 19 20 18 17 13 10 9 7 6 11 12 15 23 28 35 33 36 40 64 57 52 58 58 54 52 54 59 58 52 47 42 40 33 26 22 26 23 29
24 21 18 18 22 35 47 41 16 16 19 19 18 17 14 11 9 6 8 12 17 19 27 30 27 36 41 68 73 66 58 55 55 53 59 73 79 61 47 40 26 28 28 25 21 25 34
32 32 28 22 18 10 29 47 50 34 11 19 19 17 17 14 10 8 6 12 16 19 24 30 29 60 63 76 72 63 53 53 55 51 71 87 86 62 47 39 35 37 35 38 48 31 33
32 34 32 29 22 15 9 36 50 54 33 7 16 17 16 15 12 10 6 13 18 20 25 26 48 72 78 74 65 67 68 66 70 64 88 90 71 66 65 52 41 35 40 36 48 47 48
8 13 23 28 23 14 10 10 58 56 56 12 8 17 16 15 12 10 8 15 25 26 27 26 62 67 76 69 78 88 88 93 82 76 80 97 69 78 61 53 44 34 34 28 39 61 49
2 2 3 9 11 9 8 7 37 59 53 84 10 14 22 15 13 11 11 15 38 37 29 29 51 71 84 80 73 99 88 99 84 62 94 94 83 87 60 37 44 33 22 14 32 77 52
2 2 2 2 3 4 3 6 12 59 51 83 16 16 20 15 14 13 15 19 36 44 36 40 70 87 88 96 98 92 100 100 88 90 100 82 72 57 46 42 39 29 22 15 57 97 72
2 2 2 2 11 27 5 2 17 54 54 71 47 18 18 16 15 18 18 22 39 44 37 64 93 94 91 93 93 100 96 100 95 100 94 69 70 75 63 47 35 30 24 48 96 100 65
3 3 3 3 17 100 100 39 21 65 55 75 81 20 21 16 17 22 19 20 35 35 46 90 98 97 96 92 94 95 99 99 89 85 86 91 76 93 98 100 72 41 26 94 98 96 96
2 3 3 4 64 100 100 84 58 72 60 76 61 22 18 17 22 28 18 19 39 33 57 99 99 97 88 100 91 100 100 87 76 87 82 87 70 76 92 91 70 41 65 98 81 85 82
3 3 3 3 100 100 100 100 58 85 61 85 65 20 18 21 30 27 17 28 36 41 90 99 98 86 53 71 100 100 96 84 80 67 100 100 74 95 96 99 88 97 94 97 97 98 75
4 5 4 26 100 100 100 100 100 100 60 98 62 23 21 27 32 20 16 43 35 57 98 99 87 45 45 75 98 100 77 87 97 99 100 100 100 100 97 98 72 93 100 97 98 93 88
6 4 2 10 99 100 100 100 100 100 69 98 39 24 27 27 26 20 35 39 50 95 98 98 36 46 49 60 76 63 91 98 85 95 100 100 95 94 68 82 99 96 97 92 97 99 83
5 4 18 73 100 100 100 100 98 96 92 99 32 25 29 30 28 22 55 35 86 96 98 90 28 39 46 70 92 94 100 91 69 100 100 95 97 100 68 85 96 100 100 97 100 98 84
4 5 75 100 100 100 100 99 97 85 99 81 31 27 32 31 22 36 50 43 95 97 98 66 25 39 46 54 77 78 76 94 100 100 100 97 100 88 94 98 98 97 97 94 88 93 83
4 77 100 100 100 100 100 100 100 100 98 38 30 31 29 26 22 31 53 42 98 97 98 69 25 36 50 54 90 96 100 99 100 99 100 98 98 97 90 76 70 74 78 88 94 85 77
7 95 100 100 82 96 93 88 100 100 78 37 30 31 28 23 27 36 42 49 98 100 97 77 35 31 40 44 63 54 86 93 96 97 98 98 98 99 91 75 94 96 96 96 93 83 71
6 80 100 100 84 100 99 99 100 100 75 35 28 33 28 28 36 45 46 44 98 100 98 97 59 26 30 33 33 44 65 84 89 100 97 100 97 76 72 79 69 71 83 83 89 93 81
7 53 100 100 95 98 99 100 100 96 46 33 33 31 25 34 39 43 48 34 98 99 97 99 57 43 29 31 29 30 67 68 70 88 79 100 91 70 68 70 78 66 59 54 56 54 75
11 33 100 99 91 96 100 100 100 87 42 34 34 33 23 32 32 49 43 33 96 98 98 98 93 52 53 34 31 42 86 66 52 56 57 66 82 82 77 70 68 79 73 68 69 75 55
51 100 76 93 91 94 100 100 90 82 44 44 56 31 23 31 30 42 41 38 78 97 98 97 98 69 63 46 40 40 100 99 56 53 60 70 70 61 70 73 74 76 75 70 70 73 60
59 100 100 100 84 95 100 96 100 89 57 88 49 26 26 32 28 43 40 100 96 98 98 97 98 83 87 89 56 44 45 63 71 51 57 60 66 76 73 72 83 77 80 65 51 61 58
27 100 100 100 89 97 98 100 97 95 95 90 50 25 27 30 38 48 42 96 98 99 98 98 96 100 94 86 72 64 56 56 63 75 77 82 77 73 83 78 78 92 86 79 70 68 62
20 100 100 100 100 97 100 100 100 94 96 88 37 28 27 33 33 46 46 98 98 97 99 97 96 95 94 80 69 92 91 78 68 69 96 86 88 82 82 71 69 92 98 94 93 92 82
2 63 93 100 94 94 98 100 100 94 98 73 38 29 27 36 38 52 52 79 98 98 97 99 99 98 74 64 68 72 96 100 87 82 75 78 80 89 94 85 91 96 99 95 97 91 96

GFSGBSN_500_rhum_009.txt.gz
RH
28 38 55 55 44 15 18 16 15 13 12 10 9 9 8 8 8 7 6 5 6 7 8 11 13 14 21 21 31 22 33 38 34 28 28 26 26 27 28 30 29 23 18 16 14 14 18
14 21 36 53 55 49 15 18 16 15 14 13 11 9 8 8 8 7 6 6 7 8 9 10 12 17 25 35 35 26 33 45 54 49 43 40 37 36 31 31 32 28 20 14 14 13 12
16 14 19 33 48 54 52 19 17 18 17 15 14 12 10 8 8 8 7 6 7 8 10 10 11 14 33 36 29 36 40 53 56 53 46 40 38 33 29 26 25 23 18 17 12 16 13
28 21 14 15 32 32 45 53 38 15 18 18 18 17 15 11 9 8 9 8 6 7 9 10 11 11 32 31 30 35 40 60 52 49 44 39 40 40 37 34 31 24 20 15 17 19 18
40 39 31 19 14 20 30 33 50 45 22 16 18 19 20 20 17 13 11 10 9 6 5 8 9 10 25 32 28 29 39 52 45 43 40 40 41 41 43 39 38 34 26 22 22 22 22
46 44 38 38 35 20 16 20 29 36 48 42 17 16 19 20 20 17 15 14 11 8 6 5 10 14 20 32 30 36 46 52 47 59 61 58 49 43 43 39 35 42 46 40 27 32 29
6 9 32 37 38 41 38 28 20 18 31 41 48 35 12 19 20 19 17 15 12 10 8 6 6 13 22 31 29 53 63 64 68 64 59 54 42 37 53 67 68 66 55 43 38 34 40
5 5 6 5 6 15 31 39 37 20 18 20 45 51 44 12 16 20 18 15 14 12 9 7 9 16 30 30 40 63 62 60 64 66 68 51 35 67 73 69 66 66 62 46 40 39 44
3 2 2 3 4 4 4 9 20 20 14 13 19 51 55 44 10 14 18 15 15 14 11 9 19 24 34 35 42 80 74 71 65 63 68 52 55 86 77 78 74 69 64 52 41 43 51
2 2 2 2 2 2 2 19 9 9 9 8 10 40 57 40 29 9 16 16 16 14 11 12 18 32 40 50 56 86 76 72 66 71 84 54 85 85 86 70 75 64 71 57 41 43 39
2 2 2 2 2 2 2 83 58 57 14 7 7 22 61 47 77 15 16 17 17 15 16 18 25 30 39 68 72 88 87 83 76 79 88 73 83 100 94 67 97 62 79 67 43 37 50
2 2 2 3 2 2 2 8 100 100 65 8 8 23 57 42 82 23 16 14 24 16 16 22 30 33 51 92 92 92 90 96 95 100 100 93 97 89 72 80 97 81 71 68 39 40 79
4 3 2 2 3 4 4 47 100 98 65 31 40 42 58 49 79 30 16 16 20 18 28 27 33 45 83 96 81 60 70 99 97 100 100 99 98 95 91 87 86 89 81 59 63 50 20
3 3 3 3 3 3 5 7 100 64 100 37 75 71 56 55 80 31 17 24 18 23 37 33 41 79 98 64 35 37 62 99 92 100 100 99 76 92 80 65 66 62 78 45 52 32 34
3 3 7 9 7 18 4 17 100 100 100 86 99 63 51 66 86 25 39 19 24 43 34 39 82 96 54 44 44 60 90 95 98 91 54 67 61 80 74 97 100 55 45 36 51 36 39
3 3 11 32 15 3 36 99 100 100 100 100 99 59 57 100 61 34 25 25 40 40 40 74 97 66 41 52 49 58 64 85 95 78 69 88 97 100 100 95 95 91 31 35 46 28 19
3 4 37 98 63 4 29 100 100 100 100 79 89 61 80 100 39 38 21 42 48 44 51 97 94 41 45 63 57 53 57 74 89 90 97 100 99 100 100 65 77 99 40 28 30 96 95
3 8 26 42 8 6 74 100 100 92 69 87 83 63 78 92 38 26 28 38 53 47 94 98 78 37 40 69 42 52 58 79 100 98 100 100 100 100 100 100 88 100 96 28 77 94 97
3 15 8 5 2 66 98 100 90 98 65 100 100 63 85 74 28 24 41 42 51 60 100 97 74 30 28 20 25 31 42 69 92 100 100 100 100 98 95 98 82 57 64 73 98 97 97
3 5 6 2 89 100 100 84 100 100 90 100 86 96 92 42 27 31 44 44 52 93 100 97 49 31 49 38 52 33 52 87 100 100 100 100 100 100 72 60 69 84 92 97 97 96 95
3 5 7 32 100 100 99 94 100 100 100 100 100 91 90 28 29 42 38 53 47 100 99 94 45 31 46 46 67 70 47 69 95 98 99 98 98 81 73 94 94 99 98 96 97 98 100
4 6 61 92 94 100 92 98 100 77 94 75 75 87 49 35 39 37 33 54 69 100 98 92 64 27 39 42 43 45 67 88 88 97 97 98 99 100 94 100 90 94 98 98 98 98 92
5 38 72 99 98 90 100 100 100 93 99 76 82 69 36 35 51 47 49 69 43 92 95 97 48 40 28 33 31 34 52 67 81 92 98 97 99 99 99 84 93 95 96 72 93 99 92
3 65 88 100 96 97 97 100 100 100 77 92 86 57 71 44 46 54 44 62 35 100 98 97 85 48 34 31 29 29 36 51 62 76 79 92 97 95 98 93 93 88 91 93 88 76 68
3 42 98 95 82 65 83 100 100 100 85 85 71 39 39 41 44 37 44 78 38 94 99 98 95 56 51 39 35 28 30 34 43 56 58 67 72 70 76 80 89 82 77 70 71 64 55
3 30 89 97 93 93 94 98 100 100 95 75 53 36 42 46 43 41 45 66 44 100 96 98 98 95 54 58 47 36 49 54 38 45 48 47 56 61 63 66 70 76 70 70 68 66 67
3 15 81 99 99 100 97 100 100 89 98 93 44 43 52 48 50 47 38 59 79 100 98 98 98 97 74 56 46 49 76 75 70 59 58 58 73 61 57 68 66 80 73 75 74 63 59
2 15 76 100 100 100 99 100 100 97 100 70 49 78 68 36 44 48 64 55 90 97 98 98 99 96 80 58 75 78 61 74 87 82 90 77 73 71 71 78 92 82 85 90 86 79 67
2 9 64 97 97 99 92 99 100 93 99 84 68 85 49 33 48 40 64 60 97 98 99 95 96 99 95 82 71 71 73 76 63 65 68 79 88 89 72 85 86 83 93 95 92 88 87

GFSGBSN_500_rhum_012.txt.gz
RH
45 44 21 14 22 43 57 53 18 21 19 17 14 12 11 10 10 9 10 9 8 8 7 6 6 6 7 12 18 12 25 29 30 31 27 23 20 17 15 14 16 14 16 21 23 18 12
60 61 45 37 14 20 44 56 53 22 20 18 17 15 13 12 12 10 9 9 8 7 6 6 6 7 8 10 11 14 20 38 38 34 36 31 26 19 14 14 13 14 16 21 22 24 18
28 25 52 47 48 16 18 38 48 55 32 18 19 18 16 15 14 13 10 9 8 7 6 6 6 6 10 9 11 13 22 28 29 37 40 48 45 34 26 24 21 18 23 24 25 28 28
16 10 15 33 46 49 26 14 36 41 54 46 16 18 19 18 16 15 13 11 9 8 7 6 5 5 8 8 10 11 17 26 23 23 33 54 56 54 50 43 37 32 28 23 21 22 26
6 6 4 5 9 35 48 39 16 25 36 44 52 28 16 19 19 18 19 20 16 12 9 7 7 6 5 9 11 14 16 25 24 25 24 35 54 55 50 42 37 33 29 25 24 29 30
9 8 8 7 5 4 12 44 43 21 16 36 34 51 42 17 17 19 19 20 20 18 14 10 9 8 8 10 11 15 18 24 25 28 40 38 36 42 34 32 24 29 32 38 37 46 42
4 3 3 4 6 5 4 5 26 45 32 18 21 37 43 49 36 15 17 20 20 19 18 14 11 12 10 9 10 14 18 26 29 30 49 61 43 26 39 56 53 45 39 37 42 43 47
3 2 2 2 2 2 3 3 4 5 28 40 36 19 27 38 49 48 29 13 18 19 19 18 13 12 12 10 12 25 26 25 32 35 40 44 46 55 60 60 52 44 37 33 34 41 42
3 2 2 2 2 2 2 2 2 8 3 6 24 36 21 20 38 51 46 35 14 14 19 18 17 18 17 15 15 25 33 32 40 43 58 62 59 62 62 62 56 47 41 44 43 56 42
2 2 2 2 2 2 2 2 2 32 8 7 5 10 22 16 18 38 54 43 31 14 14 16 17 23 25 23 20 26 30 43 47 65 77 63 58 58 62 58 67 46 64 64 59 59 46
2 1 2 2 3 3 3 2 2 2 25 20 21 6 7 13 14 30 50 49 37 37 15 16 19 29 30 23 23 29 41 65 77 84 83 70 70 79 59 79 97 70 92 82 72 70 74
2 2 4 4 3 2 3 3 3 6 72 96 100 84 7 6 12 30 50 50 46 54 22 19 26 35 31 26 26 33 76 88 78 65 61 76 80 86 92 100 93 97 96 98 87 82 65
3 6 4 3 3 4 3 3 4 32 100 100 100 91 32 12 38 31 47 47 52 66 37 26 34 32 26 30 39 76 79 38 30 31 44 88 85 89 100 100 100 100 100 100 98 84 44
7 5 3 3 7 24 65 30 4 76 100 100 100 99 99 62 61 48 46 42 53 50 20 22 28 23 32 54 85 60 31 34 31 48 96 100 92 94 98 99 100 100 100 100 97 78 73
8 4 3 19 98 86 69 64 5 86 100 99 99 83 100 73 76 59 39 34 60 42 23 25 24 28 54 96 58 32 43 37 52 68 97 89 99 100 95 95 100 93 98 85 100 94 87
7 4 10 57 100 100 72 46 5 62 89 100 75 88 60 70 83 53 42 43 63 27 28 26 30 42 97 69 33 48 43 46 51 63 72 60 45 59 62 59 70 82 86 100 94 82 54
6 4 23 59 100 82 56 98 6 57 100 95 100 93 100 79 80 55 40 79 47 32 28 28 40 85 96 21 17 25 25 33 32 33 38 59 63 75 93 85 96 82 89 84 71 66 64
6 4 8 35 71 28 98 100 5 43 100 100 98 100 100 77 70 51 62 62 30 28 30 36 66 98 38 14 17 23 31 51 51 70 80 100 98 100 100 98 100 100 77 52 55 60 56
6 3 5 12 23 18 97 88 42 67 100 100 95 100 100 83 69 57 87 32 28 38 38 48 93 98 26 14 18 22 35 64 94 97 97 99 100 100 100 100 94 92 58 36 44 49 40
6 3 4 6 8 45 86 96 100 100 100 100 96 100 88 65 99 94 70 30 30 36 50 61 98 80 30 19 25 60 43 79 99 100 99 100 99 100 99 100 94 77 56 28 31 31 97
6 4 4 4 10 43 93 100 100 100 99 99 100 92 78 43 59 87 44 31 38 54 66 93 99 49 36 34 37 41 62 88 99 100 100 100 100 100 92 88 97 100 94 98 62 76 95
5 3 6 7 36 80 100 100 97 99 98 100 100 95 100 69 84 78 30 39 53 67 66 99 99 45 33 37 35 40 51 78 99 98 99 99 99 98 71 85 87 73 77 94 95 97 96
4 5 11 60 66 72 82 86 100 100 100 100 100 100 99 89 99 48 42 42 56 54 92 99 97 63 32 31 37 46 68 75 94 95 97 98 100 99 95 94 98 97 95 97 98 99 97
4 7 14 75 74 69 85 95 100 100 100 100 98 97 100 100 88 52 60 42 86 69 66 99 99 94 36 27 33 34 66 74 64 86 97 100 98 99 98 98 95 97 89 97 97 99 96
4 14 30 74 97 97 96 97 100 100 100 100 99 69 79 100 63 49 47 57 78 55 74 100 99 100 89 36 24 29 27 34 57 71 84 91 91 95 92 89 81 80 81 87 89 94 85
4 9 66 58 76 100 100 83 100 100 100 94 100 100 95 67 47 44 50 58 74 58 63 98 98 98 100 80 38 44 27 34 57 55 53 68 79 78 90 77 80 84 85 84 77 71 64
4 4 44 62 64 81 99 95 100 97 100 100 100 100 79 79 79 47 52 52 70 54 52 98 97 100 100 89 57 48 33 27 38 41 42 44 57 72 77 82 85 85 84 81 85 82 73
2 3 20 41 72 92 91 100 100 100 100 100 97 96 91 56 50 65 46 55 68 61 98 98 97 97 100 98 75 46 42 40 52 48 46 46 57 66 77 90 86 82 84 90 82 74 63
2 3 13 44 92 78 67 97 100 99 100 100 98 100 72 58 78 70 44 82 79 70 98 98 97 98 98 96 65 61 58 59 76 98 85 84 76 73 68 69 77 79 80 86 89 87 83

GFSGBSN_500_rhum_015.txt.gz
RH
48 43 38 35 34 53 46 14 22 44 57 28 21 21 18 15 13 11 11 12 12 11 9 8 9 8 7 7 7 8 14 16 15 16 17 18 26 22 20 20 14 13 13 14 18 23 24
15 15 15 14 16 15 45 44 14 23 48 57 24 21 20 17 14 11 10 11 12 11 10 9 9 8 8 8 7 10 14 15 16 15 16 17 19 21 24 21 19 15 12 12 12 16 19
7 7 8 7 6 4 5 45 48 18 22 47 56 30 20 20 17 14 13 12 12 11 11 9 8 7 7 6 8 10 12 12 13 15 19 18 19 23 30 32 23 19 15 12 12 13 17
8 6 5 5 6 6 5 4 15 48 28 19 44 55 37 19 20 18 17 16 16 14 11 10 9 8 6 6 6 6 7 9 11 13 14 19 17 16 24 48 38 28 22 16 14 17 18
7 6 5 5 4 3 3 4 5 6 49 32 18 40 51 47 17 20 20 19 18 17 15 12 10 10 8 7 6 6 6 6 7 12 14 15 17 19 19 28 49 46 40 39 29 31 29
8 8 7 5 5 4 4 3 2 4 4 50 36 17 38 46 52 21 18 19 19 19 19 19 18 14 11 10 9 8 8 7 7 8 11 16 19 16 18 27 24 55 57 52 46 44 48
8 6 5 4 3 3 2 2 2 2 4 4 46 39 18 37 39 53 36 15 19 20 20 20 19 18 16 14 12 11 10 9 9 9 14 15 15 14 30 43 41 30 44 44 43 38 35
8 5 4 3 2 2 2 2 2 2 2 3 4 45 42 21 33 38 49 46 24 15 18 20 20 20 19 17 14 13 13 12 12 13 18 17 16 24 30 35 42 47 34 30 26 35 36
6 4 3 2 1 1 1 1 1 2 2 2 3 7 36 38 24 25 39 48 49 43 23 14 16 19 19 19 18 18 22 20 17 16 19 21 20 28 26 38 47 52 52 53 48 57 50
6 4 2 1 1 2 2 2 2 2 2 2 3 9 43 19 34 31 22 39 49 51 45 36 17 14 17 18 17 19 27 28 25 23 22 18 19 34 56 53 71 61 70 67 61 59 51
4 3 1 2 4 4 4 3 4 3 2 2 42 49 94 6 20 26 41 30 32 50 43 39 38 31 22 17 20 24 28 30 27 22 22 27 32 54 56 60 75 58 72 69 66 62 49
4 2 3 5 4 3 3 4 3 4 3 16 100 100 100 100 5 14 35 32 31 37 36 38 37 38 37 27 23 25 29 28 22 24 42 56 62 57 58 70 76 76 81 80 86 79 43
2 2 6 4 3 3 23 85 9 5 4 86 100 99 95 100 60 14 22 34 35 26 29 31 37 44 48 36 26 28 28 24 37 68 56 38 30 24 23 30 59 95 100 100 100 100 53
2 4 7 3 5 31 95 100 52 34 4 77 100 100 96 100 73 26 15 35 29 25 27 35 43 52 42 25 27 31 29 67 64 35 32 28 25 28 35 60 100 100 100 100 100 90 81
2 6 6 8 55 98 100 64 94 60 5 37 99 96 100 100 100 91 30 26 27 27 29 39 52 50 25 26 31 55 76 38 22 22 31 36 36 50 74 100 100 99 97 89 100 100 100
3 7 6 35 57 92 94 82 100 38 7 11 82 100 100 100 88 77 27 28 33 35 37 51 55 41 29 33 66 41 13 17 18 18 25 42 43 49 57 76 80 85 98 100 100 96 97
4 7 6 23 42 72 70 97 100 31 50 100 100 100 100 100 100 100 33 44 39 43 56 56 47 32 33 66 58 12 23 18 27 32 34 39 40 60 33 33 45 42 40 71 99 96 66
4 7 5 4 44 34 46 80 68 87 98 100 100 100 100 100 98 65 50 56 49 61 64 62 39 31 46 94 23 15 18 29 35 48 70 74 75 96 96 86 93 98 73 83 99 75 60
4 7 4 4 13 16 50 93 51 48 100 100 100 100 100 100 59 47 68 57 53 74 71 41 31 47 99 68 18 16 18 24 38 72 96 100 89 99 98 100 100 99 100 100 73 96 58
4 6 4 4 6 11 56 98 30 96 100 100 100 99 100 98 74 92 74 60 82 80 36 30 43 76 95 50 20 17 23 46 75 98 98 91 96 100 100 100 100 100 100 70 60 52 37
3 5 4 6 4 40 88 76 30 71 100 99 95 99 98 67 73 100 69 66 99 44 41 53 55 89 97 33 27 21 32 89 97 98 99 98 100 100 100 100 99 98 50 26 26 32 49
3 4 4 7 5 40 100 100 53 100 99 100 100 97 96 100 92 100 99 100 74 47 60 60 72 87 100 36 34 30 55 80 98 100 100 100 99 99 96 97 93 87 52 21 26 38 74
3 4 7 8 23 35 92 59 89 100 95 99 93 93 100 100 84 82 96 100 58 52 75 76 93 100 100 36 38 41 46 88 95 97 100 100 96 100 98 99 96 91 80 75 87 92 96
2 3 14 26 32 69 78 62 79 76 92 94 99 100 99 91 58 80 100 87 51 72 73 81 94 99 100 40 34 38 68 74 67 97 97 98 99 98 99 98 98 99 98 100 100 94 92
2 2 12 26 54 66 82 74 73 72 84 96 100 100 100 100 77 99 97 67 97 96 99 91 92 100 98 72 32 31 46 62 54 88 96 96 85 96 91 92 97 98 97 98 96 98 97
2 2 10 30 55 71 84 78 77 74 82 95 100 98 96 100 98 100 79 67 98 100 100 93 95 100 93 92 66 28 28 27 53 63 83 84 84 78 76 74 65 93 100 100 88 94 100
2 2 8 26 44 57 76 79 98 100 96 98 100 100 97 89 99 98 58 56 70 97 100 96 84 96 97 92 90 54 22 25 49 57 50 55 65 75 68 71 64 55 59 83 88 89 89
2 2 3 22 28 50 66 78 100 88 97 100 100 97 89 99 100 70 60 79 84 100 94 88 94 96 99 92 91 75 25 24 38 52 46 49 60 72 67 68 78 72 63 56 64 59 60
2 2 2 16 30 64 78 82 100 100 100 99 100 100 100 100 100 100 84 89 89 95 77 79 93 97 92 94 96 84 48 37 31 47 51 53 71 76 82 71 69 78 79 78 76 76 75

GFSGBSN_500_rhum_018.txt.gz
RH
10 11 13 12 10 8 8 7 10 15 49 15 34 52 46 20 21 19 17 17 17 16 14 12 11 12 11 10 9 7 8 8 10 12 13 13 13 12 14 14 13 11 19 17 12 13 16
17 16 12 10 8 6 5 5 12 14 9 39 15 34 57 31 22 20 17 15 14 15 15 13 12 12 11 11 7 9 9 8 10 12 13 16 15 12 14 15 16 16 17 20 18 13 14
10 10 8 8 7 7 7 6 4 4 5 12 29 17 36 58 23 22 18 15 12 12 14 13 12 12 12 8 11 10 9 9 9 10 10 12 13 12 14 17 14 16 20 21 22 20 15
15 13 11 9 7 6 5 4 4 4 3 5 24 30 18 40 58 22 21 18 15 12 12 13 12 11 10 9 10 8 8 8 8 9 9 8 8 11 10 14 12 13 14 21 26 21 18
16 14 12 11 10 8 6 5 4 3 3 3 4 30 36 21 43 56 22 21 19 17 14 13 13 12 10 9 8 7 6 6 5 6 6 6 7 8 9 11 14 15 15 17 33 36 24
17 15 12 10 7 5 4 3 2 2 2 3 3 5 48 40 22 44 56 21 20 20 18 17 16 14 12 10 10 9 8 8 8 8 7 6 6 7 8 12 14 15 14 16 17 34 39
17 14 9 6 4 3 3 2 2 2 2 2 2 3 12 53 47 24 44 57 21 19 20 20 19 18 16 14 13 12 11 11 11 10 10 8 8 7 11 15 15 13 12 13 19 26 30
17 11 7 5 4 3 2 1 1 1 1 2 2 2 4 26 53 43 31 45 53 26 17 20 20 20 20 18 18 18 17 16 14 12 12 12 11 12 12 12 13 13 13 14 18 34 38
17 8 7 6 3 2 2 2 3 3 2 1 2 2 4 23 65 51 29 37 46 51 41 18 18 20 20 20 20 20 19 19 18 18 18 18 20 19 18 17 17 18 18 19 22 41 41
12 9 9 5 2 2 4 4 4 4 5 2 2 2 4 99 100 57 45 23 42 46 53 50 28 17 17 17 18 19 19 18 17 18 19 20 22 24 23 21 20 19 23 27 22 28 29
11 10 9 4 2 4 4 3 4 4 4 4 2 3 70 100 98 78 56 36 34 43 44 46 47 38 32 27 22 20 18 16 17 19 21 21 23 26 26 26 25 26 34 42 41 43 44
12 12 7 3 5 4 4 24 100 100 13 5 5 3 4 98 100 100 100 46 40 37 38 42 42 45 44 41 39 37 34 30 25 23 23 26 28 27 26 43 52 59 62 67 73 76 51
14 9 4 4 6 5 22 87 100 98 61 14 7 82 25 52 100 100 99 70 46 38 31 31 30 32 37 38 36 36 41 43 33 29 29 31 33 37 44 46 42 38 36 46 64 64 41
14 7 4 5 7 14 41 100 94 88 100 51 6 41 73 37 100 100 97 71 38 40 38 34 29 26 27 29 35 47 48 28 27 32 33 36 33 30 32 34 37 37 56 96 97 74 57
13 7 4 5 8 33 52 100 87 98 99 29 7 100 100 54 96 100 100 81 25 31 39 34 28 26 26 34 44 44 33 32 37 36 18 12 12 20 27 29 32 32 52 84 100 100 100
14 8 4 5 6 39 38 68 77 84 100 18 48 100 100 100 100 100 89 70 21 22 37 35 28 28 29 40 48 40 36 38 25 14 16 21 24 27 28 19 27 47 61 80 96 100 93
12 6 4 5 6 10 36 37 78 93 100 18 60 100 100 99 100 100 71 61 19 23 34 32 28 29 40 51 44 33 46 30 18 28 31 27 28 63 47 68 67 58 45 48 66 90 94
8 4 3 4 5 5 16 74 73 100 74 33 81 100 100 100 100 98 79 86 62 34 38 40 33 39 52 42 33 45 55 15 20 23 27 31 41 89 94 98 100 100 98 97 86 53 53
8 3 3 4 6 5 14 72 83 100 87 52 100 99 91 100 92 54 73 95 48 52 51 40 40 52 48 38 42 80 31 15 17 33 45 76 83 95 90 99 100 100 100 100 100 100 73
8 4 3 4 12 5 11 58 100 90 60 96 100 100 100 96 83 96 100 82 62 59 50 45 56 56 41 46 93 64 33 20 19 59 100 96 97 100 100 100 100 100 100 100 98 90 66
9 4 3 5 9 7 16 32 88 77 85 100 100 100 81 63 80 100 100 82 64 54 55 66 68 41 47 95 92 45 25 22 52 97 94 97 99 99 96 98 100 100 82 66 28 26 32
6 3 2 7 10 43 29 24 65 93 100 100 100 100 82 99 93 100 85 78 69 87 91 78 46 52 90 100 76 32 27 41 84 98 98 97 99 100 97 99 98 93 39 32 38 38 45
5 2 2 8 16 59 79 78 38 96 100 100 97 100 100 98 100 99 100 86 80 81 76 46 54 80 100 100 60 29 34 58 99 97 98 97 93 85 97 97 99 100 83 63 90 90 79
7 2 2 10 31 48 56 35 66 100 100 98 100 98 98 100 100 90 99 100 100 96 54 64 96 98 100 100 70 37 41 94 90 98 98 100 93 95 97 98 98 96 88 100 98 92 99
6 2 2 15 31 66 46 38 83 86 76 78 100 96 93 100 100 91 97 100 99 61 63 91 98 99 100 100 64 35 69 91 50 89 97 95 91 79 97 98 99 96 100 100 94 86 79
5 2 2 16 28 51 36 63 75 71 71 79 87 96 100 100 81 68 79 93 78 89 98 100 100 98 98 94 96 55 38 80 53 70 91 82 82 74 68 81 94 98 96 100 77 84 98
10 5 2 11 26 34 34 45 44 56 69 95 92 89 85 95 100 77 98 100 85 98 100 100 100 96 100 98 95 97 49 34 54 67 59 61 75 72 67 60 65 79 97 91 85 91 97
13 5 2 2 21 35 40 45 41 67 82 83 92 88 95 100 99 95 100 100 97 94 99 100 99 90 82 84 100 98 71 32 46 60 52 49 59 64 58 57 54 52 63 70 75 74 78
12 6 2 2 11 32 53 62 87 83 86 72 78 93 100 94 90 99 100 98 95 96 100 100 95 95 100 100 100 99 87 46 40 53 55 56 51 65 56 64 53 48 54 62 57 62 69

GFSGBSN_500_rhum_021.txt.gz
RH
14 13 14 14 11 10 9 8 7 6 6 6 25 22 33 17 36 54 23 21 19 18 18 18 16 14 11 11 14 11 12 11 8 8 8 10 12 12 11 12 12 11 12 11 14 17 14
22 19 18 16 15 13 11 9 8 6 7 6 5 15 13 37 22 55 40 22 20 19 19 19 18 18 15 15 12 14 14 12 9 8 8 11 11 11 13 16 13 14 16 16 15 16 17
29 24 21 18 17 15 13 11 9 8 6 6 6 5 5 26 28 38 56 23 22 20 17 18 18 18 19 13 14 14 14 12 9 8 7 9 10 11 15 17 14 13 13 14 18 19 13
29 24 22 20 16 13 9 7 6 5 5 4 5 4 4 4 41 26 47 48 23 20 16 15 15 17 19 18 15 14 14 14 11 9 8 8 8 9 11 11 11 11 12 14 16 18 16
29 26 23 18 15 11 8 8 7 5 3 3 3 3 3 4 28 45 27 55 31 22 18 14 13 15 16 17 16 15 15 14 13 11 9 8 8 8 8 8 9 12 10 11 12 14 13
24 20 16 16 13 11 10 8 5 4 3 2 2 2 3 3 5 50 43 33 56 22 20 16 14 13 14 14 13 11 10 9 9 7 6 6 5 5 5 10 9 9 8 9 11 13 13
23 20 19 16 14 11 6 4 2 2 2 2 2 2 2 3 9 20 49 40 46 45 21 20 18 16 14 13 14 12 11 10 10 9 8 7 7 7 8 8 8 7 8 8 9 12 14
26 25 21 17 12 9 5 2 2 3 4 4 2 2 2 3 4 94 57 45 32 51 34 20 20 19 18 17 15 14 14 14 13 13 12 11 10 12 12 12 12 11 10 11 11 12 12
33 29 23 17 12 8 4 3 4 3 3 4 5 2 2 3 56 94 49 48 44 40 51 26 19 20 20 20 18 18 18 18 18 18 18 19 19 19 19 18 18 19 18 18 18 17 16
34 29 22 15 9 6 3 4 3 5 18 34 4 4 2 3 4 100 81 100 54 36 51 49 26 18 19 20 21 21 20 20 19 19 19 18 18 17 16 17 19 17 19 20 20 19 17
33 29 18 14 9 4 4 6 17 41 77 72 32 8 5 3 8 97 100 97 96 52 41 47 47 32 19 18 19 21 20 19 18 16 16 17 17 18 17 19 20 19 19 21 23 23 21
32 23 17 15 7 3 5 13 48 66 95 100 89 42 6 4 16 96 100 100 94 77 42 39 47 48 45 34 24 21 22 27 32 34 36 35 34 32 30 28 29 31 33 36 39 37 28
30 20 19 15 4 4 6 22 41 56 88 100 79 76 6 4 100 100 100 100 100 70 64 38 37 45 48 47 46 45 44 41 39 37 35 34 35 33 33 34 35 35 39 44 44 43 34
27 21 21 14 4 4 6 46 30 70 78 89 83 94 6 57 97 100 100 100 98 59 60 49 34 36 40 43 44 43 41 36 33 34 40 36 33 28 23 17 14 13 16 19 28 29 35
24 22 22 8 3 4 7 66 32 64 100 100 66 26 6 50 100 100 100 100 100 63 57 54 35 30 31 29 28 29 30 35 38 37 34 34 24 14 15 20 43 47 34 40 26 23 25
23 23 21 5 2 8 5 31 38 86 100 100 29 94 8 31 100 92 100 100 100 82 60 54 43 36 31 29 28 34 35 35 37 35 37 22 13 16 18 27 49 55 53 52 61 54 42
20 20 14 3 3 10 5 21 58 100 96 84 20 100 58 100 100 100 100 98 98 79 50 43 45 39 34 29 32 35 37 38 34 42 27 17 18 23 29 52 88 99 98 97 99 97 96
20 18 6 2 8 7 6 70 93 100 100 99 52 100 75 81 93 100 100 100 100 68 43 35 42 39 33 34 34 40 45 33 36 52 17 21 22 42 73 99 100 99 100 100 100 97 100
19 16 4 2 13 6 6 72 89 77 98 34 98 100 66 98 99 99 100 97 85 63 36 32 38 37 33 37 35 41 37 34 72 33 16 34 60 69 66 90 98 94 100 100 100 100 97
18 16 5 2 22 18 9 68 93 100 82 45 100 100 98 100 98 85 82 88 98 70 48 39 38 37 41 40 46 37 37 78 46 19 32 81 80 75 94 99 98 100 68 100 100 93 96
20 18 5 3 32 23 37 89 48 94 99 97 100 100 100 86 84 99 100 100 100 68 55 57 52 45 41 55 43 39 82 51 25 40 80 76 81 94 98 98 99 99 54 23 24 31 44
20 17 5 2 36 53 66 100 56 93 98 100 100 100 68 100 100 100 100 100 88 70 62 58 53 50 60 42 54 91 42 27 44 69 92 85 95 98 99 97 95 89 75 39 21 26 34
20 16 6 2 28 65 31 81 67 89 89 95 99 84 89 80 99 68 89 84 71 74 82 78 72 67 44 62 91 63 33 39 67 92 93 94 98 96 98 98 99 98 68 72 32 36 32
22 16 8 2 27 37 43 87 100 100 100 99 99 98 96 96 85 100 91 80 82 87 98 76 64 44 58 88 85 45 37 65 89 93 92 94 94 96 96 92 98 100 88 94 98 79 59
24 17 9 2 8 39 27 62 93 100 100 98 99 97 98 100 98 100 91 89 100 100 79 55 52 72 81 85 88 52 36 68 61 90 84 85 89 96 94 98 99 100 100 85 85 84 78
24 18 9 2 2 38 23 52 88 88 78 88 87 100 100 99 99 83 96 100 100 80 83 98 100 97 92 86 90 56 35 79 51 76 84 72 76 83 92 98 98 99 99 84 90 95 98
25 20 9 3 2 30 27 30 59 66 77 89 89 92 100 100 95 85 97 97 97 100 100 100 90 90 98 97 100 88 41 57 52 67 67 57 63 67 73 72 91 99 94 97 96 97 99
25 22 10 4 1 17 30 32 64 62 71 72 88 72 90 93 84 85 82 100 89 96 99 99 100 98 99 96 92 96 41 35 42 55 60 47 53 55 54 73 73 62 72 85 89 87 90
25 22 11 5 1 10 33 25 43 49 52 63 83 77 81 100 88 90 76 97 92 87 87 97 100 100 98 99 97 89 68 32 30 40 57 44 39 41 51 56 74 76 74 60 64 74 81

GFSGBSN_500_rhum_024.txt.gz
RH
40 41 34 28 25 20 19 18 17 15 12 9 7 6 6 6 21 19 40 24 52 29 20 19 18 16 15 13 12 12 9 7 7 8 11 12 8 8 7 8 9 10 12 11 11 14 14
30 38 34 30 26 24 22 20 17 14 10 11 8 8 6 6 5 18 20 35 43 38 23 21 18 16 15 16 13 12 11 10 9 9 10 13 10 7 8 9 10 10 12 12 13 14 12
21 27 32 30 25 21 18 16 15 13 10 9 8 6 6 6 5 5 13 33 27 52 24 23 19 19 19 18 17 22 20 21 15 12 13 12 10 7 11 12 10 11 14 15 17 16 13
18 21 22 24 23 21 18 16 14 11 8 7 6 7 6 4 5 4 4 13 32 52 33 25 21 20 20 19 20 22 27 25 20 16 14 12 11 10 12 12 14 14 15 14 17 14 12
16 15 16 15 13 14 12 10 8 7 5 4 3 3 3 5 4 4 4 5 48 40 53 25 22 19 18 18 20 22 26 27 22 16 13 12 12 12 15 16 16 16 14 14 14 14 11
16 15 16 16 15 13 11 8 5 4 4 4 2 2 2 2 3 3 21 19 45 35 54 27 25 20 16 16 18 25 27 27 23 17 14 13 13 12 15 18 14 11 8 9 9 11 11
18 17 20 21 19 14 11 8 5 3 3 3 3 3 3 2 2 3 92 100 26 41 36 42 26 21 16 15 16 20 25 26 24 20 19 16 11 12 12 9 7 8 7 7 8 10 10
18 20 22 21 16 13 16 11 3 3 4 4 3 3 4 2 2 4 98 89 18 72 47 57 22 24 18 16 15 16 17 16 15 14 10 9 8 10 9 10 9 8 8 8 8 8 8
18 19 22 18 15 18 14 3 3 4 6 17 41 25 5 4 3 63 92 92 95 91 55 61 31 23 23 18 16 15 15 15 14 13 12 12 11 13 12 12 13 14 14 15 15 16 16
17 20 20 16 18 14 3 3 4 6 24 88 90 99 47 6 3 54 100 100 100 100 70 50 51 21 22 21 19 18 17 16 16 16 16 17 18 19 19 19 18 17 17 16 16 16 16
17 20 20 15 13 6 2 3 5 14 86 99 100 83 88 14 4 38 100 100 100 100 92 57 52 35 21 22 20 20 20 19 19 19 20 19 19 19 17 19 18 20 20 23 23 22 19
20 20 18 15 9 3 2 4 6 22 62 90 99 86 97 57 4 54 100 100 100 100 93 67 49 48 28 20 21 21 21 21 21 21 19 17 20 29 35 35 34 31 30 31 31 30 25
20 20 17 14 6 3 7 9 8 33 48 80 82 77 100 44 4 82 100 100 100 99 83 75 46 47 47 29 19 19 19 19 19 19 26 37 38 36 33 29 29 29 30 27 23 21 20
22 20 18 10 5 6 11 7 8 42 59 83 100 85 100 11 51 100 100 100 100 88 94 76 57 39 48 48 41 36 31 30 35 44 42 38 34 30 31 28 27 21 17 28 40 40 38
23 21 18 7 5 14 10 5 30 76 89 100 88 99 52 5 14 99 95 100 100 94 97 77 68 36 40 47 49 48 47 46 45 42 38 28 33 34 30 20 14 17 24 37 53 63 78
22 22 17 7 4 25 12 13 72 90 100 100 82 89 6 11 31 81 90 100 92 99 100 81 83 45 35 39 42 43 41 39 38 32 28 34 36 29 19 20 23 28 46 76 100 93 97
22 22 17 7 3 35 7 34 62 100 100 100 97 26 27 100 100 100 100 100 100 100 100 80 84 66 33 34 33 33 32 31 32 31 38 41 39 16 18 31 44 68 83 98 100 100 100
22 22 17 7 3 44 12 39 87 100 100 82 91 15 48 100 100 100 80 97 100 99 94 72 66 87 39 35 34 35 34 31 35 42 37 45 16 15 29 58 69 70 88 97 100 100 100
22 21 17 6 4 45 30 46 71 87 72 85 100 77 75 100 100 99 100 100 100 96 82 63 57 86 51 43 43 40 32 34 43 34 50 33 16 32 61 62 61 82 100 100 62 47 71
22 21 17 5 6 48 55 68 53 91 77 95 100 97 71 97 96 99 85 100 100 92 67 64 47 54 67 47 42 34 33 43 34 51 38 18 38 62 66 76 90 91 92 89 42 31 67
23 21 18 5 8 52 32 46 42 86 100 100 78 53 66 99 81 76 99 100 99 85 65 50 43 41 45 46 38 31 43 34 58 37 23 61 74 65 87 85 100 95 95 96 34 23 28
23 21 18 5 12 48 49 35 58 79 100 100 60 40 68 77 74 85 100 88 90 84 54 41 47 46 47 41 35 50 38 53 43 29 64 85 87 90 100 94 95 94 84 61 55 27 28
25 22 18 6 17 46 74 78 57 68 89 97 32 34 67 79 99 99 99 94 78 77 52 50 56 53 48 41 45 42 61 42 31 67 88 82 95 95 98 97 98 97 76 87 90 70 44
31 21 20 11 5 62 85 91 63 65 75 76 82 34 88 96 82 67 67 68 81 63 59 59 55 63 57 50 46 52 66 36 76 93 94 96 93 97 97 99 100 100 91 94 94 75 51
36 21 20 16 2 30 54 55 58 85 73 78 75 82 94 87 61 60 75 74 69 76 86 79 72 65 51 48 63 74 41 59 84 97 92 89 90 98 98 98 100 100 81 74 72 97 83
40 22 20 19 5 5 33 50 43 80 89 73 66 77 91 88 86 80 78 82 91 97 70 68 68 61 79 70 75 75 42 61 70 80 74 75 72 91 95 96 91 98 93 77 83 85 95
43 23 21 21 8 2 23 29 53 79 88 85 74 70 71 71 74 76 89 92 98 90 100 100 91 80 86 76 78 72 51 68 70 69 67 60 65 72 79 81 90 92 96 96 96 86 82
47 25 20 21 13 4 6 24 28 49 63 78 88 97 90 84 81 69 85 92 92 100 100 100 89 83 82 84 99 80 63 61 61 57 63 53 54 64 68 74 74 86 84 95 97 97 89
49 29 21 19 18 6 1 24 23 36 49 63 90 88 76 70 74 69 77 92 96 100 100 98 96 88 89 96 98 89 67 45 46 41 59 53 47 48 55 61 68 68 69 70 79 81 92

GFSGBSN_500_rhum_027.txt.gz
RH
8 9 11 13 16 21 24 25 24 23 22 20 18 16 14 10 6 6 6 12 36 70 59 44 24 19 21 19 18 17 15 13 10 8 6 6 7 8 13 12 9 6 10 9 11 12 14
9 9 10 12 14 18 22 24 25 23 20 18 17 16 13 10 10 7 5 5 17 32 36 67 37 20 20 19 18 17 16 14 12 8 7 8 8 9 13 11 8 8 8 9 11 12 11
9 8 7 9 10 12 16 16 16 16 16 16 15 15 13 11 8 8 7 5 5 10 39 37 53 24 21 19 18 18 15 14 13 12 8 10 10 10 12 10 10 8 10 11 11 12 10
10 9 9 10 11 12 11 10 8 6 4 4 5 7 9 9 10 9 7 6 5 4 25 34 47 26 23 20 19 19 16 14 12 13 14 10 12 10 12 10 15 13 11 13 12 13 11
12 11 10 12 13 15 14 12 9 5 3 3 3 3 2 3 6 8 8 6 4 6 7 36 47 29 27 22 22 21 20 17 18 19 21 20 20 16 16 15 16 18 16 15 13 15 11
15 14 13 13 16 17 16 15 11 5 3 2 2 2 2 2 2 3 5 6 19 92 7 36 42 35 28 23 22 21 20 21 22 31 32 30 32 23 20 19 20 21 17 19 18 16 14
17 16 15 15 17 18 19 11 4 3 3 2 3 3 4 4 3 2 3 5 100 66 30 24 43 44 30 25 22 20 20 22 25 30 32 34 29 26 33 21 20 20 21 23 21 18 14
18 19 20 18 18 19 15 5 5 10 4 4 24 30 27 6 4 3 3 12 100 100 77 29 52 67 30 28 23 19 19 22 26 31 28 30 28 42 29 27 24 20 16 14 13 12 10
22 23 23 18 18 18 12 3 19 12 5 58 100 100 100 76 8 4 11 100 100 100 100 58 55 87 30 30 24 19 19 23 31 31 32 31 32 30 22 17 13 12 10 10 10 10 9
25 25 25 18 15 16 6 7 25 10 9 92 83 99 100 100 32 6 84 100 100 100 100 58 53 79 30 28 25 19 16 19 19 21 20 17 18 18 16 14 14 13 14 17 19 19 18
26 28 27 16 15 14 3 20 22 6 13 92 100 100 100 78 75 8 31 100 100 100 100 69 68 66 39 26 24 20 17 17 19 17 16 15 18 17 18 20 19 18 18 17 17 17 15
31 33 22 16 16 9 3 34 10 6 13 85 100 82 93 92 79 5 71 100 100 100 100 93 71 66 53 23 26 25 20 18 18 18 18 18 19 20 20 18 17 20 24 30 28 22 16
38 37 18 16 15 5 14 28 7 8 18 49 73 74 96 100 41 4 78 100 100 100 95 94 74 62 63 24 23 24 23 21 21 20 20 21 20 18 18 32 34 31 27 23 21 20 16
44 34 18 16 13 3 26 11 16 34 66 82 88 100 85 96 66 24 100 100 100 99 96 95 82 66 62 35 22 24 23 23 22 21 21 20 20 25 39 34 30 27 24 25 20 16 13
48 28 19 15 11 7 18 21 73 71 90 100 99 94 100 87 40 96 100 100 100 89 100 100 91 67 66 49 29 21 21 20 20 20 21 25 36 41 38 31 29 25 22 18 17 20 28
54 28 20 15 10 14 16 42 57 86 100 93 70 100 94 72 8 99 100 100 88 100 100 99 97 71 47 49 47 37 31 33 36 39 43 43 42 37 30 32 28 21 17 20 43 47 61
59 30 20 16 9 20 24 75 71 85 82 96 100 88 100 36 7 99 100 100 100 100 100 98 93 88 42 43 49 49 49 48 48 47 45 42 34 31 36 31 18 16 28 56 64 64 78
59 33 22 17 9 24 25 58 66 52 96 91 48 19 14 18 98 100 99 97 100 100 99 82 79 90 43 39 46 47 48 47 46 42 33 30 32 35 39 17 16 31 55 59 64 85 77
60 35 23 18 9 20 16 84 79 55 88 53 64 100 100 97 99 100 100 98 99 100 95 87 77 95 44 46 46 46 42 39 34 31 31 34 36 43 21 20 40 52 75 83 85 82 73
56 38 24 18 10 15 46 54 56 75 92 45 56 100 82 85 94 100 88 96 100 98 88 85 77 99 55 45 45 46 41 35 32 34 37 40 46 23 25 58 56 66 75 98 100 84 90
52 40 25 19 10 14 40 67 92 78 66 25 61 88 92 82 87 80 85 100 100 96 85 78 70 79 87 68 50 47 42 35 34 35 46 48 21 31 71 69 93 90 90 99 100 95 72
49 42 26 21 8 16 39 54 83 93 63 28 60 86 86 97 95 99 97 100 100 86 78 60 66 61 79 69 59 48 35 33 34 52 48 23 46 74 97 100 92 95 86 81 87 87 88
47 44 28 23 7 16 30 35 52 70 49 36 52 98 100 99 96 86 72 76 74 68 56 51 56 54 56 57 50 39 37 37 57 42 35 66 85 93 98 99 93 75 96 78 76 74 66
47 44 33 23 16 6 34 30 34 40 36 32 63 78 77 76 59 59 54 52 56 57 56 45 47 52 48 44 38 36 41 54 46 32 75 90 94 98 99 96 90 90 74 63 69 74 72
51 45 39 25 22 11 10 26 25 29 58 20 41 51 70 60 58 50 42 50 44 52 52 42 43 50 47 46 38 44 46 63 34 85 98 94 93 98 99 96 100 86 71 70 68 82 87
57 45 43 28 23 19 6 21 28 20 33 53 35 28 64 63 52 42 49 56 62 56 53 56 53 58 57 52 50 56 63 49 55 96 96 88 94 99 98 90 87 92 82 77 78 90 97
45 47 44 32 25 21 15 5 33 26 32 32 40 42 57 55 61 77 67 73 78 98 84 73 63 60 63 55 52 72 73 44 61 84 84 76 76 95 74 69 76 86 88 93 96 94 93
45 45 44 39 25 22 19 8 13 35 44 48 52 51 63 64 57 54 68 76 83 95 98 100 100 96 89 66 61 68 69 41 68 76 68 62 63 66 64 69 61 58 60 53 72 86 95
48 44 45 44 26 23 20 11 3 25 44 79 68 57 64 53 62 60 78 92 100 100 100 100 100 96 93 75 63 70 73 45 61 66 62 60 52 64 69 68 68 66 62 64 72 65 72

GFSGBSN_500_rhum_030.txt.gz
RH
10 12 13 14 14 11 13 13 11 11 12 14 16 17 20 18 19 18 14 7 6 13 41 97 42 45 34 25 23 20 20 17 17 14 13 9 9 9 8 8 6 5 6 13 14 9 7
16 14 14 15 16 15 17 15 11 10 13 13 12 11 13 16 18 18 17 13 7 6 17 40 91 42 46 26 23 21 20 19 18 16 14 12 9 9 8 7 6 7 6 12 12 8 9
34 25 17 16 18 21 23 18 12 12 10 10 9 7 6 6 9 17 16 15 11 6 5 10 35 95 52 37 21 24 20 19 18 17 16 13 10 9 8 7 6 6 10 13 10 11 11
43 31 22 19 20 26 26 15 14 14 14 10 5 4 3 3 3 6 15 15 11 8 6 5 7 40 68 51 24 22 21 18 17 16 17 18 11 9 8 7 9 13 12 14 12 12 11
47 29 28 26 27 31 18 15 16 14 5 3 4 7 9 7 4 3 5 14 12 9 7 5 5 18 37 64 36 23 20 19 18 25 18 30 13 10 9 10 11 14 14 15 13 12 12
47 35 38 36 34 24 17 15 14 5 5 12 21 19 12 5 3 3 2 5 9 10 8 15 11 8 32 40 59 28 21 19 20 22 67 49 16 12 10 12 14 23 18 15 14 12 14
50 49 48 40 33 20 15 13 6 11 25 25 13 7 7 10 5 3 2 3 5 10 9 11 11 7 30 40 34 29 23 20 21 20 20 34 19 15 38 25 34 21 19 18 20 17 13
40 57 50 43 25 18 14 9 11 26 30 11 16 94 68 95 82 16 3 3 3 9 10 15 43 14 29 44 35 28 23 21 20 22 22 23 24 42 34 33 37 30 26 27 31 28 17
40 58 46 39 26 17 14 8 17 22 11 7 56 100 89 97 100 64 5 4 5 35 24 83 100 25 39 46 35 31 25 22 23 26 24 30 38 38 36 35 33 34 29 31 24 24 22
42 50 47 34 25 17 10 12 16 9 8 7 94 99 100 91 93 100 12 4 98 100 100 100 89 28 48 49 35 36 24 22 23 28 33 29 31 38 34 35 36 30 24 19 14 12 11
43 42 50 33 24 15 9 13 11 14 10 14 100 100 94 85 83 81 8 64 100 100 100 92 64 79 54 62 48 30 24 20 23 32 36 38 41 40 37 27 19 16 13 14 15 17 16
42 43 49 34 21 12 11 14 26 36 18 37 87 91 96 100 93 65 20 100 100 100 100 95 85 74 57 58 43 30 22 20 24 23 22 24 22 22 21 19 17 18 19 18 17 17 16
35 48 45 34 18 9 12 27 54 76 76 65 73 79 68 72 78 77 66 100 100 98 100 74 64 81 56 66 32 27 22 19 21 22 23 21 23 22 21 21 20 18 18 22 26 20 14
35 48 42 30 15 8 14 38 47 82 82 90 100 82 72 72 98 57 99 100 100 100 100 100 96 66 63 75 34 28 24 21 21 22 22 20 20 21 22 20 18 22 28 35 24 16 14
38 44 41 25 14 8 20 48 51 68 76 89 75 87 100 84 91 77 98 100 100 100 100 96 98 88 72 87 36 24 25 26 23 23 23 24 21 21 20 20 27 32 32 27 23 21 16
44 43 41 23 14 8 32 45 41 71 84 73 92 79 97 91 70 81 99 100 99 100 96 100 95 80 76 76 40 23 24 24 25 26 24 22 20 20 25 38 38 34 30 26 24 19 15
49 44 40 23 13 8 34 51 53 63 55 67 40 74 100 69 45 93 100 100 100 100 100 95 95 92 72 80 46 24 24 24 24 21 20 22 26 35 42 39 32 30 31 28 17 19 36
48 49 39 24 16 9 29 71 72 90 33 99 41 60 63 92 94 96 100 100 100 100 98 97 95 85 72 90 55 45 34 28 28 32 41 46 46 44 35 29 25 31 33 16 24 56 55
45 50 41 26 17 9 33 51 71 89 46 93 89 46 89 98 100 100 100 100 98 98 100 95 99 62 67 71 66 51 49 48 49 50 48 46 39 32 31 29 39 32 19 42 64 66 66
41 47 45 29 18 10 26 42 54 54 63 90 55 56 93 100 100 100 100 100 100 99 97 83 90 81 47 50 58 55 53 51 50 47 38 31 31 33 39 43 26 30 70 68 67 67 75
37 42 48 33 21 14 15 32 54 29 74 78 78 89 82 75 89 98 100 100 100 96 93 80 78 92 54 51 50 52 50 43 35 32 30 30 36 42 47 24 47 60 63 74 86 89 65
33 37 46 40 25 18 9 20 38 29 44 62 62 66 78 72 75 89 99 100 100 93 81 81 75 90 65 52 51 50 44 40 39 35 33 34 55 35 35 74 76 82 74 86 75 72 69
32 36 40 45 29 21 11 15 28 31 40 39 36 59 99 82 71 74 68 57 66 66 63 58 59 68 89 89 73 55 50 49 36 34 40 54 31 64 96 82 74 80 84 79 76 75 77
35 38 40 49 37 24 19 8 18 29 34 61 76 69 75 58 59 56 47 49 51 50 42 38 41 52 62 77 79 68 68 40 33 54 45 38 85 97 92 83 90 85 90 78 74 82 94
38 40 38 44 43 28 22 16 7 20 23 31 56 61 63 65 56 52 46 40 34 28 32 39 38 43 49 52 53 52 39 33 45 49 42 92 99 92 97 99 100 100 100 81 80 86 88
40 40 35 42 45 36 25 21 7 10 21 28 36 38 44 47 40 38 31 28 28 27 31 39 35 39 42 42 39 35 35 45 64 43 79 100 89 95 99 100 100 100 99 96 89 90 82
45 41 34 39 45 40 27 23 20 5 15 24 39 34 30 52 46 35 36 40 43 42 48 41 37 45 42 38 39 37 37 55 62 47 94 93 83 92 97 87 75 86 73 69 77 92 98
52 45 39 42 47 44 30 22 22 14 5 20 24 34 38 37 44 48 53 55 65 61 62 71 56 58 63 54 45 40 40 55 56 51 94 84 71 81 78 65 59 53 56 58 60 64 78
56 57 43 48 47 44 35 22 22 20 5 10 28 28 34 45 50 59 62 60 68 77 98 98 94 98 100 80 59 48 50 54 56 50 83 74 63 73 61 59 54 63 68 62 63 72 78

GFSGBSN_500_rhum_033.txt.gz
RH
33 37 29 39 41 37 44 39 29 20 18 14 12 16 13 14 15 12 19 22 20 16 9 6 10 70 38 35 24 24 27 31 28 22 18 14 12 12 13 14 14 12 11 10 9 7 6
33 34 35 36 39 51 46 34 25 22 17 14 11 9 8 7 13 13 13 18 22 20 16 7 6 44 56 35 28 25 23 23 24 23 24 19 14 11 11 11 11 10 10 9 8 5 4
38 43 37 35 36 42 41 32 28 21 15 10 8 8 8 6 5 13 12 12 18 20 18 12 6 6 73 46 37 28 28 22 21 21 21 21 18 14 11 10 10 10 9 8 7 8 9
47 39 41 32 36 41 41 33 23 13 9 9 15 21 23 22 11 4 4 8 10 19 20 16 9 6 26 81 38 43 28 26 22 22 21 20 19 17 14 11 9 9 8 8 16 11 11
54 34 43 34 32 44 39 27 12 9 8 11 22 29 28 26 26 23 18 5 6 12 19 15 10 9 14 45 76 48 32 25 24 21 21 20 19 17 15 12 10 8 8 9 12 14 13
64 43 47 34 35 44 32 14 9 9 10 11 15 14 11 10 8 6 8 14 4 8 13 61 24 29 10 17 60 65 40 24 24 23 25 36 32 29 17 14 11 12 10 8 9 10 9
71 52 44 33 38 38 19 9 10 18 10 15 8 10 54 60 94 68 25 4 4 5 9 62 24 23 12 13 40 66 58 28 25 30 33 28 36 54 99 33 14 11 9 9 11 13 10
77 61 41 35 38 28 12 9 20 21 15 13 8 64 98 98 98 98 92 6 5 36 100 92 26 14 17 34 38 51 75 38 25 22 23 37 46 68 62 30 17 11 9 14 15 14 9
67 64 37 33 36 20 9 12 30 22 34 9 9 100 98 93 100 100 100 14 5 93 100 56 28 12 26 32 37 43 48 80 32 25 21 20 26 50 33 21 23 21 17 20 16 20 18
72 64 34 34 31 14 8 20 40 40 58 58 25 100 99 100 96 100 98 10 6 100 100 100 44 22 41 16 30 44 38 34 38 38 26 21 28 35 31 34 40 33 28 28 27 27 19
79 55 32 34 26 12 8 30 47 49 61 96 77 91 74 60 96 86 72 5 13 100 100 80 98 46 27 21 30 41 36 29 24 22 22 25 27 32 38 44 35 33 31 32 28 22 18
74 44 32 31 23 11 9 35 57 54 80 85 86 82 70 80 63 79 61 55 35 100 99 100 88 35 40 23 38 43 35 27 24 21 21 28 38 53 45 44 36 32 25 19 15 13 11
68 39 28 29 21 12 12 50 68 80 87 85 83 80 77 59 74 57 85 100 97 99 100 100 41 63 56 32 42 44 34 26 21 19 27 40 49 47 40 32 23 19 19 19 18 17 14
61 41 26 28 21 12 14 57 70 73 48 68 80 75 78 76 74 69 98 100 100 100 100 70 81 79 60 47 54 65 34 27 22 22 27 31 34 28 24 21 20 21 21 20 18 16 15
58 44 25 28 21 11 14 48 57 39 61 29 83 77 98 84 42 92 97 100 100 100 100 78 87 68 44 57 54 67 30 24 21 23 29 25 25 25 24 23 22 24 24 26 28 25 18
58 47 25 27 22 11 12 42 32 73 67 43 67 73 88 33 53 98 100 100 100 100 86 94 71 67 67 49 67 38 28 23 22 26 25 23 24 23 24 24 24 26 30 30 28 21 16
61 42 24 25 24 11 13 34 24 66 48 58 53 58 61 91 100 100 100 100 100 100 100 91 81 66 54 59 75 32 27 27 28 26 22 23 23 26 25 26 31 36 34 26 23 24 19
61 36 26 25 27 12 12 29 20 50 53 15 34 86 100 100 100 100 100 100 100 100 100 93 78 86 78 79 75 30 26 29 28 26 25 24 22 29 33 41 40 36 25 22 27 17 24
59 35 28 25 30 14 10 23 22 69 57 49 80 84 89 98 100 100 100 95 99 99 95 89 79 80 77 93 79 33 25 25 25 24 23 26 36 46 46 40 30 24 28 32 21 40 81
62 46 32 26 30 17 9 17 18 47 68 68 81 53 57 87 87 99 93 97 93 90 89 92 80 82 74 90 66 51 34 30 28 37 41 48 49 44 35 28 26 33 28 31 60 78 57
71 51 36 28 28 24 10 12 15 45 61 48 50 65 52 73 86 98 100 97 94 92 86 89 74 63 64 82 78 56 51 51 52 52 50 45 35 30 29 29 34 26 52 85 80 86 70
85 48 39 31 29 33 13 10 14 27 37 39 49 61 68 63 69 66 57 62 73 68 82 75 82 77 50 55 66 64 57 55 49 42 33 31 35 36 38 39 24 70 89 77 94 95 77
93 51 42 33 32 36 23 9 11 23 25 36 30 34 37 47 58 55 49 51 63 56 56 57 64 80 69 52 52 52 46 42 39 38 36 33 34 52 37 35 82 91 97 98 95 82 64
97 49 41 35 32 38 38 18 9 13 31 32 43 45 30 26 32 49 45 40 38 41 37 35 36 51 68 77 48 49 48 50 53 46 32 40 43 46 77 91 97 98 99 91 92 81 82
93 59 46 40 35 39 48 31 17 10 18 32 48 45 50 61 55 49 41 35 36 30 27 27 26 31 46 61 80 76 62 66 50 32 51 39 61 97 100 98 99 100 97 92 97 90 87
89 74 54 47 38 44 46 46 28 18 10 27 38 46 46 48 40 37 35 30 26 24 22 22 22 25 33 46 59 70 70 56 34 33 49 60 99 100 100 100 99 100 98 98 98 96 81
98 83 59 46 50 45 51 47 43 29 21 9 15 28 32 43 49 38 34 33 25 24 27 28 25 28 31 39 40 43 41 33 30 49 48 84 100 95 98 100 95 94 80 67 69 61 65
97 82 65 44 51 47 50 49 49 42 31 23 12 16 26 32 36 36 51 45 41 40 47 45 37 39 41 37 33 30 28 29 36 65 56 94 97 80 98 98 75 69 59 57 47 51 67
98 93 72 48 49 47 46 45 38 45 37 29 18 9 19 34 37 37 55 59 49 54 65 74 64 55 56 49 42 31 27 30 40 68 57 90 80 74 94 79 74 65 55 48 46 56 65

GFSGBSN_500_rhum_036.txt.gz
RH
57 46 51 37 45 49 37 31 32 32 24 13 10 8 8 9 12 14 21 17 16 18 25 23 16 6 18 93 74 39 24 36 34 24 22 17 15 18 19 18 19 16 14 14 14 13 12
73 60 52 44 54 56 33 26 25 20 9 8 8 11 14 13 14 16 10 25 20 20 26 25 23 12 6 50 79 57 30 28 37 34 26 21 18 15 17 19 18 14 16 14 12 12 11
87 87 57 60 60 53 28 19 19 10 8 12 11 7 11 11 19 24 21 10 28 25 23 28 25 17 7 16 90 64 39 44 37 38 34 27 23 16 14 15 15 15 15 14 13 14 12
83 90 72 67 64 40 24 19 15 9 13 20 10 12 16 20 35 33 27 18 13 27 23 27 25 20 10 7 60 65 52 30 43 32 36 34 28 23 19 14 13 13 13 12 13 14 12
81 73 73 61 52 29 18 19 11 12 25 29 23 10 15 48 64 28 22 16 7 23 24 24 22 22 13 9 29 81 64 32 29 26 44 28 29 27 23 18 14 11 10 11 12 12 11
84 70 72 53 37 20 18 15 11 29 44 46 34 8 10 57 75 80 28 17 8 8 23 21 19 42 30 14 27 99 56 55 31 29 35 58 28 22 22 19 16 15 13 10 10 10 8
87 86 68 42 31 17 19 11 14 51 62 69 48 9 56 100 100 100 85 18 12 5 15 18 18 45 81 26 26 95 62 47 45 44 27 31 65 35 20 23 19 16 13 11 10 9 8
88 85 54 38 24 18 18 9 20 58 91 84 73 29 66 78 94 100 100 76 16 5 6 14 18 32 47 47 69 51 94 47 47 61 47 34 34 49 100 58 30 20 16 14 12 10 8
90 83 47 41 20 18 15 8 33 62 92 100 100 74 74 76 80 97 88 84 10 6 8 11 22 38 68 80 30 29 86 65 38 34 43 41 39 40 59 96 75 66 28 16 13 11 9
91 71 46 40 17 18 13 8 35 51 39 96 100 99 86 91 76 84 73 35 5 13 100 85 100 84 97 57 29 40 74 99 46 30 40 85 45 56 59 50 55 37 26 18 15 13 9
91 67 47 35 16 19 10 8 22 58 66 71 90 87 94 64 62 81 61 6 9 93 100 100 100 99 82 29 36 37 68 80 80 33 26 28 25 26 30 34 27 26 25 27 24 15 10
86 72 51 28 16 19 10 7 14 58 28 64 80 83 67 80 74 76 10 60 98 100 100 91 77 61 30 20 29 41 55 52 67 72 48 38 40 30 26 26 28 32 36 32 25 22 12
90 72 49 23 19 18 9 7 15 24 16 52 81 62 41 67 79 30 11 92 100 98 100 100 61 43 26 27 16 29 46 42 37 32 30 25 28 28 26 27 30 38 40 31 24 19 14
92 77 44 23 22 18 9 8 14 12 23 49 64 37 46 66 98 58 28 82 100 100 100 82 60 49 31 25 21 30 45 38 31 27 32 36 38 39 38 40 40 41 27 19 16 15 15
92 75 41 25 25 18 10 9 10 7 13 27 36 60 96 100 100 100 100 100 100 100 100 81 77 57 48 36 22 40 42 35 28 27 27 36 43 39 37 35 26 24 21 20 19 17 13
94 67 50 30 25 16 10 12 13 14 32 44 44 93 100 100 100 91 93 100 65 79 81 89 56 45 58 26 30 49 46 31 30 26 31 30 32 28 25 25 24 22 22 26 27 23 18
94 82 60 34 26 14 11 15 30 37 55 67 84 83 92 100 100 70 72 80 86 65 50 64 74 51 53 42 44 65 64 33 27 23 27 27 28 26 25 23 23 23 24 27 30 26 21
94 84 70 37 28 18 15 22 27 54 57 34 45 55 90 100 92 90 90 69 77 78 77 72 72 83 72 54 60 71 35 31 27 22 25 27 27 27 24 23 24 32 39 36 26 21 25
95 95 88 42 32 28 10 34 37 38 40 43 45 24 24 37 69 99 100 96 79 82 81 76 74 69 60 66 76 65 29 30 26 24 26 30 26 24 23 28 38 42 33 25 25 26 46
96 95 95 48 36 35 19 11 26 31 32 28 31 30 28 23 27 61 87 93 92 87 77 72 70 63 69 69 84 47 26 26 28 26 26 25 24 29 36 39 37 29 27 29 23 56 67
95 95 97 51 40 39 32 12 14 31 35 34 36 36 39 35 39 41 62 66 62 56 73 69 75 77 77 89 67 35 25 25 25 25 26 30 44 47 46 35 27 31 37 26 76 83 65
87 98 95 65 40 42 40 25 11 17 25 30 38 48 42 43 48 41 47 48 50 55 58 76 66 77 72 96 70 55 48 43 42 45 51 51 47 39 28 28 31 36 32 76 84 69 79
69 100 99 89 47 43 50 37 24 12 18 22 23 33 50 53 49 45 42 45 42 41 38 41 61 74 55 70 94 73 59 55 54 52 47 37 34 33 30 36 32 43 81 89 76 91 81
100 99 100 95 56 47 51 51 36 21 11 15 18 26 25 28 30 34 32 34 32 34 34 33 33 48 75 53 55 69 74 64 53 39 39 36 32 34 44 32 57 85 91 86 90 90 79
100 100 99 99 80 56 52 57 55 37 19 11 22 29 31 26 23 33 37 37 38 38 33 29 27 30 46 75 49 49 48 46 48 53 42 34 50 39 57 84 96 94 100 99 96 88 85
100 99 100 99 97 58 61 60 57 62 38 18 13 21 32 36 38 38 43 39 32 28 23 20 23 24 29 53 69 62 58 57 61 52 32 48 39 73 87 96 99 97 99 99 90 77 68
100 100 99 100 96 68 61 66 55 57 59 45 22 14 28 26 31 34 34 32 30 26 20 19 18 22 26 38 53 65 73 70 60 42 36 47 70 93 98 100 96 95 94 65 61 63 60
99 100 98 99 98 83 57 65 61 60 60 61 54 36 21 14 30 35 36 40 36 33 26 24 23 24 26 30 39 47 53 54 45 39 52 49 86 100 99 100 99 85 76 64 63 51 45
97 100 99 100 98 93 75 67 55 57 65 63 54 46 33 22 12 28 37 36 35 43 36 32 36 33 29 32 35 41 40 41 42 43 58 58 87 95 85 100 94 70 65 63 57 42 45

GFSGBSN_500_rhum_039.txt.gz
RH
58 67 79 88 82 74 45 27 16 15 16 13 9 16 18 26 21 16 14 19 16 29 26 22 25 29 26 10 58 98 56 32 42 33 28 27 23 17 21 22 18 12 11 14 18 18 15
56 76 83 88 85 66 33 21 14 15 13 9 21 22 53 45 17 38 32 14 18 25 29 32 33 32 57 56 30 93 94 44 36 43 32 27 26 21 18 23 20 15 15 16 18 17 16
69 74 82 86 76 43 30 18 13 12 9 18 24 57 77 30 36 84 99 66 22 19 32 34 40 37 28 88 24 72 98 63 33 47 42 33 30 25 18 17 23 18 16 17 16 17 16
65 81 84 82 62 38 26 15 12 10 11 24 30 91 87 13 46 96 100 100 90 28 36 37 41 38 28 88 16 47 99 93 69 50 58 44 32 27 24 16 16 20 20 17 16 18 17
84 79 86 82 54 37 23 12 11 9 17 30 42 96 41 15 87 100 100 76 77 32 22 39 39 37 28 39 14 37 98 98 98 93 72 57 42 30 26 21 16 15 16 16 18 18 17
84 81 85 70 52 31 18 11 10 9 21 56 60 91 23 87 100 100 100 89 38 26 15 39 39 32 29 30 20 41 79 97 100 100 88 79 51 38 28 21 17 15 15 14 14 15 13
80 84 84 67 47 27 16 11 8 10 38 77 81 83 61 74 100 99 100 100 45 20 11 36 36 37 28 80 29 36 68 100 99 74 71 82 76 42 34 31 28 21 16 13 12 12 11
87 88 88 68 37 24 16 11 8 9 26 58 100 95 66 88 100 96 100 100 72 23 11 33 32 28 46 47 100 39 71 97 93 95 57 63 72 61 38 30 28 24 19 16 16 14 11
91 95 92 65 33 23 15 10 7 9 9 24 100 100 98 91 89 80 78 82 49 14 12 30 29 41 41 46 64 35 66 91 94 99 69 47 63 94 81 50 29 20 18 20 17 15 12
92 97 92 58 33 26 14 10 7 9 8 47 82 98 100 84 88 72 74 73 16 9 18 26 31 51 96 100 87 56 92 94 96 98 96 61 34 50 84 100 86 65 39 27 23 21 17
90 100 87 55 34 26 14 8 7 14 35 33 69 58 74 82 78 72 63 20 9 12 18 22 55 94 100 47 88 46 83 99 76 94 90 53 50 48 36 93 96 63 71 71 50 32 22
83 100 85 64 42 24 14 8 7 52 62 52 30 65 49 48 62 41 11 10 13 32 57 31 39 66 48 57 52 40 74 98 71 50 87 97 84 54 52 52 51 64 59 37 24 18 15
86 99 94 74 38 28 13 8 10 43 71 82 70 47 30 19 12 6 14 80 100 99 33 33 56 58 96 58 36 41 46 72 87 43 39 74 72 34 29 25 23 26 26 21 20 18 17
96 100 91 81 35 32 14 13 25 34 60 88 76 93 96 16 6 48 99 100 100 72 100 100 100 100 79 38 32 38 56 63 81 83 54 41 47 46 44 46 31 25 24 24 23 23 21
57 99 96 88 36 30 15 17 29 30 46 77 74 57 78 42 83 99 98 100 100 94 99 90 88 79 49 19 23 42 50 52 53 48 78 75 67 49 31 32 33 33 31 39 26 18 16
50 92 100 97 38 27 15 15 24 27 26 32 80 74 48 84 83 76 100 81 88 62 81 59 50 50 23 32 33 34 44 74 41 40 35 34 35 45 48 48 47 39 34 24 19 16 17
94 100 100 98 49 29 16 16 29 26 24 19 28 65 38 56 57 44 56 71 95 79 75 59 44 34 54 40 32 43 46 58 46 40 27 28 40 49 44 36 29 24 24 22 24 22 19
16 43 100 95 63 33 21 14 26 31 21 21 21 17 42 33 28 33 27 38 62 61 62 59 57 77 61 48 54 50 52 39 33 28 33 38 37 35 28 26 26 25 24 25 28 30 25
11 35 100 97 80 43 26 14 18 31 27 25 23 23 20 66 64 47 53 41 49 28 72 75 65 65 66 50 52 65 86 46 29 27 30 32 30 30 26 26 24 25 33 40 35 26 26
13 13 97 100 89 62 34 21 13 24 33 27 22 22 23 20 28 54 60 48 46 53 54 52 60 65 54 52 62 71 42 31 30 28 29 27 27 27 26 26 31 41 40 34 26 28 26
16 10 98 100 95 69 38 33 16 16 27 30 29 27 24 25 43 40 45 38 45 56 65 64 67 54 53 59 74 72 34 28 30 29 28 28 26 25 28 37 44 42 32 26 29 27 89
8 6 94 100 98 91 50 40 32 18 13 23 32 40 27 27 25 37 48 41 46 49 50 62 74 75 74 78 92 48 30 26 28 29 28 25 26 38 45 47 37 28 27 31 34 86 82
5 12 95 100 100 95 73 45 43 33 19 13 24 30 39 46 43 39 36 32 30 27 32 33 48 70 74 93 88 55 36 30 27 29 29 42 47 48 44 35 29 32 33 44 93 86 76
4 37 94 100 100 98 90 55 49 45 35 22 14 16 27 27 34 37 36 30 27 28 29 30 29 41 58 67 94 66 57 52 52 52 52 51 47 37 32 31 35 34 57 92 93 86 78
5 60 88 100 100 100 97 90 63 53 46 40 28 18 16 25 28 23 22 27 28 25 26 27 28 29 45 65 58 66 86 75 67 62 47 40 38 35 37 41 52 77 94 97 100 94 90
7 65 92 100 100 100 99 97 74 65 61 54 47 31 20 21 34 39 37 38 40 38 37 31 27 25 26 50 66 52 50 54 49 44 50 50 36 43 41 67 97 98 98 100 95 88 65
15 26 78 100 100 100 100 97 84 73 66 65 61 56 44 30 19 32 40 36 40 33 26 24 20 19 22 27 51 64 51 53 53 59 59 46 39 44 74 95 94 100 99 99 90 64 52
47 50 31 62 96 100 100 99 95 80 73 74 77 75 67 58 37 24 29 37 34 32 27 21 20 17 16 20 29 53 70 70 67 65 58 41 46 65 89 97 96 100 98 89 65 54 60
68 64 81 48 86 99 100 100 99 99 88 83 77 69 63 62 62 44 33 26 43 45 40 28 22 20 21 17 23 32 50 65 70 63 50 53 53 72 95 97 96 100 84 68 61 56 54

GFSGBSN_500_rhum_042.txt.gz
RH
52 61 66 81 81 90 81 49 33 24 16 11 9 12 26 42 53 97 90 78 51 26 32 24 42 30 25 32 26 38 99 98 85 46 41 34 30 24 25 22 19 16 15 15 17 16 16
62 62 70 74 77 85 67 37 27 17 12 8 10 22 64 67 71 84 68 79 100 99 29 28 41 39 32 45 98 37 85 99 94 44 47 35 33 30 25 23 25 19 16 18 18 16 14
68 65 60 72 83 86 61 34 22 13 8 7 13 61 100 64 53 54 78 94 100 100 67 26 40 46 32 22 81 100 42 96 97 42 47 45 35 33 33 27 20 21 19 18 17 16 14
72 53 52 79 84 84 50 30 17 9 6 6 16 85 89 40 54 94 90 100 99 100 99 30 42 48 29 32 78 87 43 94 100 60 43 51 40 33 31 29 20 18 20 18 18 16 15
75 52 58 80 80 70 42 24 11 6 8 25 20 82 88 58 96 96 100 100 86 98 100 66 43 47 35 33 66 100 50 90 100 98 66 54 48 36 30 28 24 18 15 16 21 20 18
85 52 73 75 83 62 36 15 8 7 28 28 25 96 87 76 89 100 100 100 100 100 100 45 47 45 32 34 100 100 41 97 98 99 98 77 54 44 32 26 23 20 16 16 21 22 18
87 76 86 74 78 62 32 11 7 14 31 37 50 82 93 64 95 96 100 100 98 81 93 34 48 40 37 34 82 66 72 95 98 100 92 95 75 43 37 29 27 25 22 16 15 17 17
86 63 87 75 68 54 20 9 9 29 45 52 56 73 100 100 68 89 88 96 96 85 41 31 49 53 34 36 99 54 53 90 99 99 94 98 81 80 49 39 30 24 22 20 17 15 14
71 40 67 82 68 54 15 8 9 50 51 70 33 52 79 99 79 80 74 82 75 37 25 42 56 47 31 40 93 38 49 73 91 99 99 99 100 95 78 51 40 30 24 24 23 20 15
74 58 66 87 74 48 14 9 14 44 62 64 79 56 48 90 84 68 75 67 36 19 33 46 85 44 35 86 68 40 50 79 89 95 97 87 88 97 85 82 52 34 32 31 27 21 16
39 82 55 96 80 44 15 10 18 36 44 67 49 6 17 33 46 54 40 20 15 29 40 42 36 40 100 81 100 93 53 96 98 97 95 66 66 90 97 89 66 42 35 30 22 18 15
49 36 50 58 83 41 16 10 19 28 36 38 11 13 20 24 8 11 13 17 29 35 51 63 52 42 32 41 65 46 70 98 94 100 99 80 60 49 90 97 100 100 95 69 47 36 20
30 59 21 44 87 46 16 14 19 25 32 22 38 60 88 100 96 17 26 35 38 78 85 96 94 69 96 87 64 55 77 92 93 91 99 88 70 52 44 48 82 100 96 68 49 40 27
42 50 18 21 98 49 18 14 17 28 44 29 39 61 81 100 100 31 27 57 41 35 61 98 88 98 87 68 85 50 88 99 89 85 92 93 100 78 57 54 57 53 47 41 31 25 24
95 33 24 12 93 61 22 14 17 19 30 30 31 43 57 65 80 52 26 21 22 24 29 50 38 39 40 45 41 39 55 91 99 63 59 95 97 90 46 31 29 30 24 27 24 24 26
28 38 25 14 57 80 26 15 19 19 25 35 21 28 31 37 49 67 61 84 94 81 85 55 48 52 54 47 43 40 58 80 98 95 76 59 60 60 49 49 49 47 47 38 29 28 25
30 63 20 15 31 93 32 18 17 22 23 31 32 31 43 31 33 35 46 58 70 98 99 94 89 61 54 35 42 47 52 74 73 63 64 75 64 59 51 41 39 38 46 41 34 24 20
17 48 26 13 25 99 58 22 17 19 24 21 38 42 48 46 38 24 21 43 40 69 74 48 45 42 52 50 38 44 51 70 64 48 43 37 38 44 44 45 46 44 35 28 26 26 25
14 18 18 12 18 100 88 29 19 19 23 20 20 39 33 38 41 44 57 24 38 41 41 37 46 48 42 33 40 47 49 71 85 38 37 35 35 38 39 33 30 28 27 26 27 33 36
10 11 11 11 9 98 97 43 20 16 20 24 22 32 43 41 39 45 40 34 46 48 48 36 33 47 49 46 49 51 67 59 37 33 30 36 36 34 29 28 28 27 27 34 37 38 30
6 7 7 6 14 93 100 71 34 17 15 19 20 26 31 44 49 38 35 36 37 53 55 47 55 51 48 51 55 66 86 60 35 30 32 30 30 29 27 27 28 32 39 41 36 28 30
3 4 5 7 37 80 100 92 51 29 20 14 19 30 32 38 31 48 40 37 35 38 50 64 61 55 54 54 66 74 51 31 32 30 32 30 29 27 25 29 42 47 44 33 28 31 58
2 3 4 4 70 81 100 100 88 45 30 20 14 18 27 41 42 40 36 29 24 30 30 33 54 74 71 68 76 82 44 27 26 27 25 26 25 25 29 44 48 40 31 30 33 35 88
2 2 3 4 62 91 96 100 95 66 46 32 25 16 14 22 28 36 39 34 30 27 25 28 30 52 62 70 89 72 45 33 27 26 26 26 31 42 47 45 38 35 35 35 39 88 90
12 4 3 6 26 93 97 100 100 92 65 51 38 31 23 16 17 21 26 29 25 31 26 22 21 23 36 61 78 85 60 52 45 46 48 50 52 49 44 36 36 35 38 54 86 97 82
10 17 3 5 23 65 95 99 100 99 85 66 52 44 38 30 21 19 21 28 35 35 30 28 21 21 24 29 60 62 82 79 62 58 60 60 52 44 40 39 40 49 83 98 98 96 87
20 24 12 5 29 47 76 99 99 100 96 86 70 61 55 47 38 27 24 26 32 36 39 37 35 32 27 26 28 58 59 58 77 78 63 55 49 50 44 40 49 88 100 99 95 92 69
18 37 46 35 52 70 61 72 98 100 100 97 86 73 72 75 65 50 36 23 24 34 34 36 27 23 20 20 22 28 55 58 50 51 50 57 59 52 39 48 93 99 100 100 100 74 58
13 25 44 69 68 74 85 56 96 100 94 100 98 96 82 81 95 77 59 53 29 27 36 30 31 26 21 17 17 20 26 54 64 59 54 61 60 50 50 77 99 99 100 99 96 68 62

GFSGBSN_500_rhum_045.txt.gz
RH
64 42 74 71 63 77 80 77 58 38 14 7 12 18 32 28 59 97 98 97 96 95 92 70 55 36 52 44 24 20 30 91 97 94 49 70 52 80 93 52 45 52 42 40 47 39 33
57 30 74 69 61 74 79 67 48 15 7 15 41 47 40 71 87 60 61 79 78 80 83 86 72 54 32 52 42 35 36 25 94 100 63 52 62 54 82 91 50 31 35 39 42 39 32
72 40 53 39 74 78 83 53 19 8 12 33 54 68 68 85 53 80 75 91 89 96 100 99 100 47 34 50 52 86 100 58 92 100 91 50 51 43 53 86 79 50 28 24 24 23 21
88 44 37 26 61 78 90 28 10 10 28 35 79 75 88 74 60 99 100 94 83 95 97 100 100 58 30 50 39 43 49 30 73 100 97 84 56 54 43 72 60 38 33 26 21 18 15
72 56 37 38 55 89 72 17 9 18 29 30 61 99 100 92 75 78 100 100 98 98 100 100 100 46 36 49 36 47 100 56 50 98 98 95 81 68 44 53 57 43 23 24 22 22 18
66 44 25 31 31 66 42 13 13 27 18 14 13 86 100 100 92 61 86 93 88 93 91 100 96 37 38 46 58 100 100 91 46 99 98 100 99 65 47 46 45 48 44 31 22 24 22
33 37 24 19 30 67 29 12 19 25 25 41 77 44 85 100 99 62 92 100 88 100 85 97 60 46 53 46 52 95 98 90 96 100 96 94 80 62 43 38 52 38 39 53 21 18 19
29 38 32 16 16 78 23 13 21 24 41 49 61 46 52 95 99 74 70 83 87 96 80 82 53 60 54 41 68 94 91 99 99 99 99 98 76 65 48 38 34 33 28 29 26 19 16
43 40 39 19 14 92 31 14 28 25 44 67 60 73 13 54 76 53 67 70 72 57 80 48 63 56 44 47 73 69 96 96 99 95 100 95 83 69 49 42 38 30 26 25 25 23 18
36 32 38 22 17 81 39 13 23 27 43 48 86 72 13 19 30 42 43 35 33 52 60 62 63 50 37 91 100 83 100 97 99 100 100 100 99 99 90 62 46 38 31 28 26 22 20
23 22 20 24 18 61 53 14 18 26 39 49 67 58 11 47 38 17 19 27 44 65 100 76 68 45 45 76 85 46 65 99 100 99 100 100 100 100 98 100 69 48 40 35 28 23 20
24 21 21 35 19 64 62 15 16 27 37 45 43 50 13 47 24 19 24 50 94 100 100 72 44 70 47 68 80 45 31 91 100 98 100 98 99 96 97 98 90 79 53 39 33 30 25
26 21 21 48 19 40 71 15 15 26 24 30 36 45 17 23 29 30 35 39 61 56 69 45 52 37 85 95 58 27 44 97 98 99 99 99 93 94 100 100 100 98 73 50 38 28 25
26 20 18 24 26 16 79 26 15 23 26 32 32 36 44 25 35 45 42 49 35 40 42 60 97 84 97 56 91 65 94 100 100 100 100 100 88 59 65 96 97 99 100 92 66 61 62
27 19 15 15 22 12 88 47 14 18 25 22 34 32 34 36 27 34 34 44 44 66 76 34 38 43 39 43 36 59 92 99 98 100 98 97 84 57 45 46 57 77 96 92 82 64 42
28 14 12 12 15 24 67 64 16 16 24 24 26 36 33 28 31 49 53 34 36 56 47 75 92 87 71 73 46 37 98 100 100 99 99 99 90 94 77 64 62 63 70 51 38 32 28
28 11 8 6 9 20 31 88 21 15 21 25 30 35 30 24 30 45 36 45 52 41 49 50 64 66 52 64 47 46 74 95 100 91 73 84 94 96 94 51 45 44 42 40 42 35 38
16 5 4 4 6 9 24 91 32 17 17 23 27 33 43 27 32 32 34 31 37 55 56 47 48 50 40 34 38 44 54 86 94 93 87 81 85 91 78 70 62 52 47 46 51 45 30
4 2 2 2 3 6 17 89 58 20 15 21 23 32 42 39 42 43 30 28 38 48 45 24 26 23 22 30 29 37 51 58 88 86 57 56 60 50 50 49 51 49 49 42 39 29 28
2 2 1 1 2 4 11 84 78 30 18 15 23 26 38 43 61 59 51 44 50 44 30 27 32 38 37 33 33 36 48 58 86 70 69 52 39 39 46 44 38 34 30 27 27 34 34
2 2 2 1 1 3 8 70 94 58 28 16 17 25 28 37 49 54 59 62 55 50 50 50 46 38 42 38 38 48 49 71 54 42 36 33 40 38 40 34 30 28 27 29 38 38 34
2 2 2 2 2 2 7 30 90 94 36 24 15 20 24 30 40 43 41 45 50 55 60 68 67 59 61 51 47 56 68 90 52 34 32 31 34 32 31 30 28 28 32 41 41 36 28
3 7 5 4 2 2 3 19 80 92 86 32 23 15 18 25 38 36 36 30 34 38 37 48 72 72 64 58 61 69 72 61 34 30 27 28 29 29 28 27 31 39 42 43 34 28 29
4 7 17 4 7 4 3 16 62 86 96 64 36 25 15 18 24 32 38 36 32 31 36 35 40 63 74 76 79 81 83 44 29 30 30 29 28 27 27 31 38 41 37 34 31 30 31
6 12 6 4 6 12 4 13 51 91 89 98 74 40 31 19 15 18 25 30 32 30 30 30 29 31 52 64 89 97 72 46 33 28 27 27 27 35 34 45 40 39 36 34 32 32 62
20 18 7 3 3 8 23 20 32 76 96 89 96 59 45 39 28 20 18 19 22 23 22 22 23 29 35 41 63 93 84 62 51 43 40 40 43 45 47 45 41 39 36 35 34 59 92
10 9 5 3 3 4 38 69 31 45 96 92 96 88 65 52 47 42 34 27 22 23 23 23 29 25 32 33 33 55 71 84 78 65 60 57 59 56 54 48 44 40 38 47 67 85 98
12 6 5 5 6 6 21 57 57 61 70 99 89 96 92 82 69 58 55 53 38 27 23 30 25 31 30 27 27 25 39 65 63 73 82 76 67 60 55 53 47 42 56 88 95 98 99
13 10 10 8 7 16 53 57 78 66 63 87 88 98 94 97 96 89 81 76 63 55 46 25 26 30 29 25 23 21 21 29 58 62 58 62 59 57 62 58 45 51 94 100 98 100 94

GFSGBSN_500_rhum_048.txt.gz
RH
18 19 28 34 37 24 41 62 63 29 10 18 22 36 32 33 90 73 55 75 69 82 97 100 100 81 42 38 72 56 35 23 76 90 88 56 56 84 76 98 82 73 51 47 43 43 36
18 22 35 28 27 23 58 68 51 12 15 24 36 41 36 98 86 66 74 79 86 76 88 100 99 100 83 37 47 68 67 26 46 98 93 81 52 74 71 91 98 72 59 72 60 47 38
21 23 29 23 19 19 77 52 48 13 22 30 57 63 75 100 97 72 87 86 78 92 85 87 100 100 88 56 32 68 50 46 38 95 100 99 54 54 75 94 97 94 70 79 71 58 42
17 23 24 22 28 21 83 49 16 19 26 32 33 65 91 100 100 80 64 86 88 85 92 100 96 90 89 60 34 61 49 53 42 68 100 98 83 54 78 89 98 96 56 43 51 60 45
18 24 23 19 19 24 74 40 14 21 33 41 19 11 47 98 100 87 57 85 82 70 100 98 100 96 82 59 35 82 99 62 41 36 93 99 92 61 87 78 95 94 68 46 33 33 39
19 25 25 20 18 27 70 23 19 26 31 28 14 12 19 88 100 100 72 67 82 82 81 100 99 98 78 49 41 100 91 84 67 29 96 100 98 63 83 85 76 73 78 64 45 30 25
20 25 26 21 27 28 76 18 23 26 38 29 13 30 38 42 100 100 73 80 80 86 84 97 100 100 92 74 57 91 100 76 56 52 93 100 98 82 67 78 60 62 73 66 34 31 31
20 25 28 20 35 32 74 18 23 27 38 35 16 14 24 23 38 55 64 74 69 83 73 98 100 99 97 72 52 41 55 59 85 44 96 100 89 96 72 77 62 54 64 64 40 28 32
21 26 30 20 29 35 63 20 22 28 38 40 21 15 16 22 24 32 48 59 63 69 79 98 88 98 100 49 66 97 100 100 79 78 93 100 96 100 81 74 68 50 57 44 47 50 52
21 29 32 16 15 26 44 26 21 28 30 46 24 20 21 18 20 28 45 63 72 89 94 88 98 100 74 99 95 86 100 100 90 93 99 98 99 97 83 62 50 40 62 57 42 38 47
24 31 32 16 12 20 30 54 18 32 32 48 28 28 52 45 44 42 46 94 95 100 100 83 76 57 50 83 98 88 100 100 100 100 100 98 99 99 81 67 46 37 37 44 40 33 30
26 26 29 9 9 13 28 68 20 23 31 37 30 30 28 40 66 80 73 57 64 61 84 72 54 96 98 88 92 100 100 100 100 100 100 100 100 100 93 68 54 46 40 35 32 30 26
19 17 15 5 5 9 22 69 26 16 22 32 45 26 36 54 42 45 44 46 43 48 60 60 100 89 88 76 74 98 99 97 97 98 100 99 100 100 100 100 96 64 50 44 39 33 27
11 10 6 3 3 6 14 56 35 16 20 23 47 50 42 42 47 32 36 33 28 33 46 52 70 60 60 52 59 29 46 94 92 96 96 99 98 99 98 100 92 97 85 56 46 42 36
7 6 3 2 2 3 9 35 51 17 15 21 43 36 36 33 43 44 54 34 36 41 35 28 39 55 36 45 40 26 72 91 97 100 98 96 98 97 100 100 94 97 100 96 77 73 52
5 3 2 1 2 2 6 19 72 21 15 19 34 28 26 27 30 43 36 43 36 56 53 46 68 73 42 64 42 36 88 98 93 98 98 98 98 84 76 77 91 98 98 99 100 100 92
3 3 2 1 2 2 4 9 78 30 15 16 24 42 25 22 33 31 38 29 38 30 37 56 70 65 59 47 35 64 96 97 90 99 99 96 96 91 67 55 51 56 61 81 86 77 65
3 2 2 2 2 2 2 4 73 57 18 15 22 33 38 35 30 27 44 47 31 33 41 49 45 37 36 42 44 53 85 97 98 94 92 93 95 100 100 89 58 50 45 51 44 46 36
2 2 2 2 2 2 1 2 55 68 29 17 17 22 44 50 41 28 31 56 48 29 32 41 38 27 19 23 26 29 46 80 95 100 94 80 75 86 92 89 70 57 61 57 50 52 52
2 2 2 3 3 2 1 2 16 80 50 26 15 18 22 38 52 55 42 35 30 25 22 22 20 18 19 22 23 30 40 52 69 88 79 65 76 82 77 69 68 60 64 52 42 45 36
3 3 3 3 3 2 2 2 3 75 82 42 25 16 14 31 46 44 59 57 51 44 34 29 28 39 42 32 26 25 37 47 58 80 72 69 56 48 44 48 51 44 42 39 31 30 29
3 3 4 5 3 2 2 4 2 18 91 88 44 21 17 16 25 42 49 57 62 72 68 61 53 49 40 42 38 41 46 57 73 66 49 46 42 38 39 41 36 32 29 29 30 40 42
3 4 5 10 3 3 2 3 6 6 67 92 88 36 19 16 16 26 35 35 31 40 57 70 76 63 57 54 47 45 53 59 73 44 31 29 30 35 35 32 30 28 30 34 41 41 36
4 3 7 13 4 4 3 2 4 8 24 90 96 58 38 19 17 20 28 29 27 30 37 37 50 78 74 63 55 60 67 70 73 46 35 29 31 32 32 30 27 32 35 42 42 37 30
3 3 8 28 5 4 3 3 6 18 12 57 97 96 65 38 21 16 20 24 28 28 29 30 29 29 53 76 79 81 79 78 61 32 30 31 32 31 29 27 30 37 42 39 35 33 31
3 3 16 20 6 4 4 4 6 26 36 27 86 100 100 77 46 31 20 16 21 25 25 25 24 26 27 32 56 77 100 90 63 35 29 30 30 29 32 32 36 40 39 38 36 34 34
3 4 13 7 7 6 5 5 12 27 33 48 45 94 100 99 73 62 45 32 22 19 19 22 20 20 22 22 26 36 70 94 73 56 45 38 38 38 41 46 44 43 41 39 38 44 44
2 4 8 15 12 21 31 18 27 41 45 74 74 62 100 100 96 78 67 65 53 39 29 27 24 20 21 23 22 28 28 36 75 84 76 63 56 56 55 54 51 47 46 43 45 47 58
3 9 18 16 29 77 84 63 65 89 62 86 80 76 97 100 100 100 95 70 68 70 71 50 28 30 31 26 29 27 26 22 26 49 69 76 76 71 63 59 57 54 51 45 48 76 93

GFSGBSN_500_rhum_051.txt.gz
RH
12 14 18 22 24 18 27 30 59 28 15 20 32 12 11 31 100 99 81 55 58 81 83 80 99 97 64 25 34 41 71 56 41 41 28 80 87 52 53 93 100 91 69 64 46 41 49
14 17 20 24 23 17 37 43 46 20 16 27 19 11 16 39 100 100 74 54 74 78 94 67 98 100 100 62 33 42 62 74 62 36 37 62 92 62 52 76 96 97 77 60 50 49 50
14 22 23 26 23 17 42 61 29 18 20 31 14 11 13 31 92 100 80 51 76 76 77 86 94 99 100 99 49 35 65 72 53 64 49 75 100 71 54 53 95 98 92 80 75 63 60
16 21 21 29 25 15 35 72 22 22 24 30 15 13 12 25 99 100 94 58 54 91 98 95 88 98 98 99 60 72 68 83 63 54 67 91 100 78 58 57 78 97 99 96 96 84 62
15 18 22 30 21 14 31 84 19 26 28 27 17 22 12 20 86 99 100 69 66 68 70 79 91 98 100 97 65 56 74 100 74 62 66 96 91 95 64 56 74 94 95 95 96 92 78
16 19 24 25 12 12 24 78 19 29 30 27 24 30 24 15 38 99 100 76 76 69 64 87 100 100 99 79 55 53 66 94 92 69 53 72 100 100 88 58 65 72 87 94 97 80 72
18 22 22 15 6 11 21 67 22 32 33 26 28 30 46 16 24 59 89 73 73 87 89 87 86 100 87 82 52 42 57 86 65 61 39 65 100 92 74 55 57 67 89 98 99 81 51
20 19 16 8 4 9 18 53 25 30 35 30 33 38 50 23 20 38 51 66 69 66 68 82 88 86 89 96 88 100 73 76 48 34 44 85 92 100 100 71 61 70 80 91 96 82 57
17 16 12 5 3 6 13 42 42 24 35 32 41 48 53 36 65 61 47 54 56 61 73 92 79 71 100 100 98 88 93 63 48 46 29 89 99 99 100 69 64 77 77 98 98 92 72
15 14 8 3 2 3 8 24 61 20 33 41 32 51 53 49 44 100 100 73 61 89 100 100 100 80 100 100 97 96 88 69 51 63 78 98 100 100 98 78 62 83 71 88 95 98 75
14 11 6 2 2 2 5 13 76 16 21 42 37 46 49 40 37 50 92 63 85 99 100 100 99 98 100 80 69 70 96 68 77 60 72 98 99 98 99 99 67 78 59 71 97 87 87
10 9 4 2 2 2 3 8 77 18 18 38 27 47 39 34 39 37 51 41 67 99 100 100 100 100 100 98 100 100 100 100 87 87 100 100 100 100 98 94 78 70 61 46 71 97 62
8 7 3 2 2 2 2 6 56 29 15 25 23 36 48 27 30 37 40 46 58 66 82 90 100 100 99 100 100 100 100 98 97 100 99 100 100 100 100 98 78 65 69 49 43 80 92
7 5 3 2 2 2 2 5 54 40 14 17 20 26 38 46 47 33 34 34 38 43 61 89 96 99 98 98 100 97 99 100 100 100 100 100 100 99 89 93 81 65 50 47 39 40 63
5 5 3 3 2 2 2 3 29 58 16 15 21 18 32 31 41 44 32 36 38 46 47 46 38 61 69 66 64 56 94 100 100 99 100 100 100 100 100 100 98 77 61 50 45 41 40
5 5 3 3 3 2 2 2 6 73 22 14 14 18 19 32 32 36 41 24 32 52 34 31 46 45 40 49 45 34 96 97 99 95 99 100 100 100 99 100 100 97 99 93 72 60 50
5 4 4 3 3 2 2 2 2 55 40 14 15 22 22 28 30 26 31 38 29 46 48 45 36 35 49 53 43 43 94 96 92 98 100 99 98 100 98 95 94 97 96 99 99 89 81
5 5 4 3 4 3 2 2 2 33 68 20 15 18 25 28 30 41 37 35 28 32 36 43 47 34 29 30 40 50 88 94 91 100 95 96 97 95 95 90 78 69 86 91 93 94 98
6 5 4 3 4 5 3 2 3 10 80 54 18 15 28 31 36 26 44 35 40 32 33 46 37 33 31 33 30 43 68 79 88 89 93 93 87 85 82 81 84 65 62 60 56 76 72
6 4 4 3 4 7 4 3 2 6 54 84 45 16 17 33 44 38 36 52 35 32 36 40 36 27 18 21 23 26 35 59 73 83 83 79 74 74 84 84 86 70 53 53 51 47 50
6 4 4 4 4 8 5 3 2 6 7 93 83 35 16 17 33 37 48 42 41 33 24 24 22 21 21 20 22 20 26 35 51 68 82 80 73 71 72 78 79 76 78 66 66 65 58
5 4 3 4 3 4 8 4 3 3 7 21 100 94 29 16 24 30 36 49 50 50 42 28 25 26 30 34 30 25 21 30 42 53 80 75 61 68 80 68 55 57 52 46 53 59 52
4 3 4 4 4 4 12 5 3 3 4 9 76 100 91 22 16 21 32 38 38 42 56 62 63 54 46 36 42 40 34 41 54 69 72 63 72 75 50 42 42 49 40 33 32 31 32
4 4 4 4 4 5 7 4 3 3 3 12 19 99 100 60 19 16 19 29 31 26 35 37 38 57 70 54 53 49 43 50 51 73 58 39 34 32 36 39 38 35 32 30 32 37 40
4 4 4 3 3 5 4 4 5 4 4 6 21 45 100 100 55 19 18 20 27 26 30 33 33 32 33 63 74 53 52 62 66 72 83 46 34 33 34 33 32 30 29 31 39 43 41
4 4 4 3 2 4 6 5 7 6 6 9 14 32 73 100 98 54 19 18 20 23 26 29 28 29 28 28 40 67 72 73 72 74 62 34 33 32 32 30 29 27 33 40 40 36 34
5 4 4 3 3 7 8 9 29 40 22 23 25 37 37 94 100 99 56 30 20 18 18 22 22 22 25 24 24 24 32 56 86 82 73 42 30 30 29 27 27 30 40 41 37 30 31
6 5 4 3 7 12 12 30 63 68 63 66 71 51 68 49 96 100 100 67 48 38 29 23 21 18 19 20 22 24 23 26 40 81 76 58 44 34 30 27 32 36 43 41 38 38 38
6 4 4 4 4 18 19 72 79 70 78 61 68 91 94 85 70 99 100 100 81 71 65 52 44 33 29 26 20 23 29 26 27 28 48 77 70 59 52 49 48 48 48 47 46 45 42

GFSGBSN_500_rhum_054.txt.gz
RH
10 12 14 19 18 8 8 12 25 43 31 23 22 15 19 29 14 59 100 100 80 44 62 78 81 73 94 85 27 30 37 68 80 60 48 32 26 93 74 73 88 98 67 52 63 73 81
9 12 14 18 14 5 7 12 28 47 32 20 19 17 25 30 14 94 100 100 66 51 70 91 87 92 99 98 73 31 30 71 59 59 56 40 28 83 93 69 74 97 100 70 66 74 71
9 12 15 14 8 4 5 11 38 48 30 23 19 21 27 26 16 100 100 100 77 53 72 64 68 94 97 100 90 39 25 63 74 62 67 50 41 58 99 82 60 78 98 93 66 67 92
9 12 14 13 5 2 4 10 44 48 27 25 27 28 31 27 20 90 100 100 91 55 80 94 75 88 100 100 100 63 33 61 86 75 66 63 52 52 94 96 61 60 94 100 77 72 94
9 11 13 11 4 2 3 7 35 43 24 26 36 36 36 30 30 88 100 96 60 72 64 84 83 99 98 100 98 70 100 59 84 100 90 61 45 45 73 100 78 58 65 95 100 96 96
8 12 11 9 3 2 2 5 23 47 23 25 41 40 39 38 61 36 58 65 69 87 66 71 100 96 88 91 86 54 100 88 70 100 100 67 55 50 75 98 91 52 47 74 99 98 95
7 9 10 7 3 2 2 4 14 52 22 23 46 39 36 47 60 34 58 75 89 89 84 89 80 77 73 68 70 78 79 99 85 80 79 72 62 40 55 77 90 74 58 60 94 96 96
7 8 8 6 3 2 2 2 9 53 18 20 47 41 41 36 33 28 48 51 54 76 67 61 79 81 76 98 100 100 100 87 90 68 75 68 45 66 99 100 96 69 59 69 75 84 94
7 7 7 7 3 2 2 2 6 58 16 19 33 39 41 29 47 50 48 67 96 70 68 75 90 90 72 60 65 92 100 99 70 98 70 52 48 75 95 97 100 69 57 65 59 71 91
7 7 7 8 5 3 2 2 4 57 18 17 30 26 31 28 46 65 79 85 82 72 83 94 100 100 100 97 54 47 79 100 88 71 53 40 53 70 94 97 100 76 57 61 59 74 100
6 6 7 9 6 3 2 2 2 49 27 16 31 24 30 27 41 36 61 93 100 94 95 99 100 99 100 100 96 70 41 42 48 40 27 27 59 97 96 100 100 85 62 58 61 84 91
6 6 7 9 8 3 2 2 2 38 40 14 28 23 30 34 30 40 56 78 82 68 96 100 100 100 100 100 100 98 59 46 38 35 37 47 84 96 100 100 95 94 67 64 75 90 94
6 6 7 11 9 4 3 2 2 11 56 14 17 30 23 31 36 48 41 54 73 94 100 100 97 100 97 94 87 82 85 64 54 59 74 99 98 98 100 100 91 97 75 72 82 80 75
7 6 6 8 10 5 4 2 2 2 66 20 14 21 32 23 30 38 43 52 65 84 97 100 81 95 100 100 100 100 99 96 93 89 84 98 100 100 96 98 100 99 98 71 77 65 61
7 6 6 7 9 5 4 3 2 3 38 32 14 13 23 29 20 31 38 50 30 43 60 68 85 96 100 99 85 100 100 100 98 97 100 90 89 100 100 100 99 96 95 79 84 70 54
7 7 6 7 8 5 4 4 3 2 12 65 15 14 13 24 23 25 41 63 34 31 37 42 42 48 51 49 34 85 95 100 98 98 99 97 90 94 100 100 100 100 100 90 82 76 68
8 8 7 8 7 4 4 4 3 3 5 76 25 17 15 19 26 25 22 32 52 32 32 40 40 35 34 37 36 60 81 87 91 96 100 100 100 96 100 96 96 100 96 88 80 68 61
8 8 7 7 6 4 4 5 4 3 4 28 84 18 18 24 19 30 30 19 23 36 51 40 35 36 32 39 35 59 75 78 82 95 92 94 99 100 100 100 100 99 98 100 100 98 91
8 7 7 7 5 4 4 4 5 4 3 6 60 53 18 20 34 20 36 34 31 42 34 37 45 41 32 33 40 49 73 84 89 96 100 100 97 98 95 95 98 98 98 99 97 100 99
9 7 7 6 4 4 4 4 5 5 3 4 12 98 33 17 33 36 25 35 36 31 30 34 47 34 27 25 29 33 36 49 73 82 92 95 96 97 93 97 94 92 87 65 64 79 68
10 8 6 5 4 4 4 3 4 4 3 3 6 52 95 19 22 38 39 34 43 38 40 38 40 35 27 18 17 19 23 25 48 67 76 84 84 78 76 80 88 85 83 60 49 49 50
10 9 6 5 4 3 3 3 3 3 3 3 7 9 97 86 19 22 36 46 37 38 36 32 27 28 25 25 24 25 20 22 29 39 51 80 82 77 72 68 77 82 79 77 76 67 62
13 9 6 4 3 3 3 2 3 4 4 4 6 8 25 100 79 16 23 36 50 52 53 50 38 36 33 38 31 34 32 25 26 40 48 65 82 68 64 70 75 76 72 64 57 52 64
14 8 6 4 3 3 3 3 3 5 3 5 5 6 8 60 100 62 18 26 36 40 35 45 50 52 63 65 53 45 42 34 31 45 66 72 71 64 74 70 56 49 51 51 40 38 44
10 8 6 4 3 3 2 3 4 5 4 7 10 7 6 9 82 100 30 17 24 32 33 28 35 34 35 39 58 67 53 46 42 51 55 74 62 45 35 39 43 40 40 38 33 32 31
15 7 6 4 3 3 2 3 4 5 7 27 43 35 18 7 21 96 100 26 19 21 27 27 23 29 32 31 28 31 65 69 52 58 66 72 75 48 32 30 32 34 34 31 31 32 36
20 8 6 4 3 2 3 3 4 6 29 54 52 56 48 31 21 43 99 96 28 20 26 30 29 27 27 28 28 26 25 29 44 62 80 74 69 39 31 28 30 30 31 30 31 32 36
14 9 6 5 4 3 4 4 7 14 60 57 55 57 55 65 34 43 67 100 91 31 21 21 22 22 21 23 23 23 23 23 22 30 78 86 75 45 30 28 30 28 31 30 37 40 38
12 7 6 5 3 3 4 5 7 28 85 75 66 70 77 79 91 61 58 92 99 97 49 36 34 29 24 24 24 23 23 22 21 22 30 46 75 64 50 38 34 32 32 35 41 39 41

GFSGBSN_500_rhum_057.txt.gz
RH
10 6 6 6 6 5 2 2 2 3 9 40 29 26 28 25 20 25 97 100 100 100 71 52 75 73 86 65 36 42 25 60 95 88 70 58 28 19 64 80 86 91 100 97 99 96 97
10 6 6 6 6 5 2 2 2 3 12 48 23 27 25 28 23 27 98 99 100 94 61 58 78 83 97 79 100 56 31 33 97 78 79 64 44 23 50 95 80 71 99 96 96 90 91
10 6 6 6 7 5 3 2 2 3 16 40 23 27 31 23 20 21 92 91 100 98 76 68 61 65 100 100 100 84 45 31 95 97 91 75 62 33 37 99 90 72 97 95 96 84 69
12 8 7 7 7 7 4 2 2 3 25 22 24 28 27 37 20 22 84 96 61 65 59 89 72 89 100 97 100 100 60 34 63 95 98 100 79 47 41 81 100 78 86 90 96 89 64
11 8 6 7 7 8 4 2 2 2 36 18 25 25 27 29 42 30 45 53 86 73 72 80 83 100 98 98 100 100 76 37 34 76 99 100 88 46 38 55 96 99 78 80 95 90 76
10 10 6 6 7 8 5 2 2 2 44 19 24 25 38 30 60 36 42 69 89 70 63 90 99 100 98 96 94 99 90 61 45 79 99 92 98 60 44 48 52 62 70 70 83 91 99
12 9 6 6 6 10 7 3 2 2 46 18 23 27 28 30 48 49 35 53 70 77 76 93 91 87 99 84 80 69 100 100 61 99 96 96 82 53 42 33 48 100 100 79 64 91 94
13 8 6 6 7 11 8 3 2 2 48 18 23 26 25 29 40 56 46 50 54 64 71 80 75 88 89 100 100 65 99 98 100 91 100 89 68 48 49 43 44 66 84 78 60 85 84
15 7 6 6 7 10 10 3 3 2 35 19 23 23 30 36 31 52 53 60 69 63 56 58 64 68 77 93 100 100 96 90 70 100 97 88 72 60 51 43 42 52 70 84 69 54 70
17 8 7 7 6 8 11 4 3 3 21 24 23 25 34 33 30 47 60 66 86 99 92 64 79 100 95 100 100 99 99 62 92 98 93 77 70 58 47 61 73 58 64 94 72 52 52
17 8 8 7 7 8 11 4 3 3 7 40 22 22 33 26 27 39 86 90 92 99 99 100 100 87 82 89 71 56 100 88 93 86 76 56 50 48 53 82 94 89 91 89 71 58 46
18 9 9 8 7 8 11 6 4 2 4 42 16 22 26 31 31 67 81 89 99 72 100 100 100 71 53 99 100 100 99 100 100 77 62 54 42 36 43 66 78 86 93 88 80 62 58
16 9 9 8 8 9 9 6 4 3 3 23 25 17 20 26 42 55 52 65 58 60 94 100 99 82 100 93 85 80 70 66 47 44 46 42 32 68 88 82 71 89 97 99 93 68 51
17 9 8 7 7 7 9 6 4 4 3 6 45 12 18 22 32 32 37 46 47 66 70 92 100 100 100 69 59 75 55 57 44 44 42 31 36 56 78 96 75 89 99 93 85 63 55
17 11 8 7 6 7 7 5 4 4 3 4 20 31 14 18 23 23 25 39 41 45 60 81 99 67 62 92 80 74 69 58 51 44 44 84 100 88 100 94 100 93 92 99 96 86 68
20 12 10 8 6 6 7 5 4 4 3 3 7 49 16 16 15 27 25 27 30 42 47 45 39 41 40 52 85 92 82 67 69 85 74 90 91 100 89 100 97 100 100 100 96 92 70
24 16 11 8 6 6 6 5 4 3 3 3 6 32 36 14 18 18 26 26 26 29 45 45 36 35 36 37 42 79 78 68 82 76 74 81 76 96 95 74 98 100 98 96 93 88 82
26 17 12 9 6 5 5 4 3 3 3 2 4 12 46 22 20 19 20 17 19 23 42 44 49 38 38 49 35 47 65 76 72 69 75 82 81 94 92 95 98 88 99 95 96 93 92
31 18 12 9 7 6 4 4 3 3 3 3 3 6 43 45 22 26 19 23 19 21 39 38 44 45 34 35 46 52 64 63 78 87 96 92 88 81 89 92 84 78 99 90 95 97 93
36 19 14 9 7 6 4 4 3 3 3 3 2 7 6 75 24 27 32 20 27 23 33 36 32 48 39 27 32 40 49 60 66 80 96 100 98 100 100 100 99 100 99 95 100 100 100
36 22 15 9 7 6 5 4 3 3 2 3 3 5 6 16 79 21 34 37 23 29 30 26 27 34 41 28 20 23 25 29 36 62 74 89 91 94 97 98 95 90 84 84 90 96 78
34 26 16 11 8 7 5 4 3 2 2 3 3 4 6 7 48 49 25 41 40 28 31 33 35 32 32 26 28 25 24 23 23 33 57 67 82 87 84 82 84 87 89 80 74 64 51
35 28 22 14 10 7 6 4 3 2 2 2 2 4 10 7 10 79 54 23 42 48 38 34 30 28 23 27 23 25 27 27 26 21 34 42 53 77 80 79 74 71 84 92 87 78 70
40 33 24 17 12 9 6 5 3 2 2 2 3 9 23 12 6 9 97 38 30 45 53 50 54 57 49 46 45 44 40 31 32 30 30 49 56 67 80 68 64 64 67 69 75 74 66
48 38 26 21 14 11 7 5 3 2 2 2 4 28 46 34 21 10 30 100 25 25 42 43 36 46 45 44 53 66 62 51 47 40 37 50 69 65 58 57 62 70 52 48 52 53 42
54 44 34 25 19 14 8 5 3 3 2 2 4 40 58 38 47 34 20 89 98 26 30 42 38 32 34 34 32 30 33 62 69 52 52 58 56 69 62 46 32 39 41 40 41 38 33
52 43 33 28 23 19 11 7 4 3 2 3 11 54 56 40 47 55 58 34 100 87 25 32 40 37 30 28 28 31 29 27 32 51 68 68 67 70 72 50 30 33 34 42 39 40 40
45 35 32 29 24 15 14 14 6 3 2 9 32 52 55 56 61 72 74 55 52 100 87 29 32 33 32 31 30 28 24 23 24 24 26 35 76 83 77 48 31 29 31 31 32 30 34
41 35 28 24 15 12 18 18 9 5 3 11 38 58 52 73 81 79 78 82 50 81 100 82 28 27 24 22 21 22 22 22 20 18 23 26 29 78 82 57 39 32 31 31 30 32 37

GFSGBSN_500_rhum_060.txt.gz
RH
14 20 9 10 11 6 6 7 4 2 3 31 24 24 21 27 28 21 23 87 96 97 98 96 67 56 61 55 56 54 19 26 47 100 90 54 20 23 40 57 64 94 90 97 98 95 97
26 21 12 11 7 6 6 6 4 2 4 31 19 21 24 24 26 14 42 96 87 96 100 86 64 59 78 69 68 79 39 28 27 98 100 80 30 18 21 29 61 76 98 98 94 96 96
23 13 12 13 6 5 7 8 3 3 5 30 20 21 22 28 38 30 39 50 72 80 89 84 64 61 60 90 78 100 65 30 26 86 99 98 68 27 19 22 62 71 98 94 93 97 96
19 20 13 8 6 5 8 9 4 3 5 32 20 21 23 37 44 60 43 70 69 57 68 80 77 68 73 87 99 100 81 35 30 75 100 100 94 67 26 23 66 84 91 92 99 97 96
20 22 13 8 10 6 8 10 5 3 7 27 20 22 25 39 51 56 85 54 59 68 90 96 98 95 92 93 100 98 78 38 28 73 100 100 96 76 48 26 52 95 87 77 96 94 97
18 26 14 12 12 8 8 10 7 3 6 28 20 23 25 45 56 33 43 67 46 67 90 100 90 94 86 98 100 100 58 31 29 93 100 100 99 74 63 36 20 28 72 62 74 93 93
22 30 21 14 14 8 8 10 8 3 6 29 21 24 29 53 56 71 42 48 56 57 70 82 98 80 100 100 95 100 42 34 100 100 100 99 90 54 49 42 26 49 91 86 63 85 94
34 21 22 12 9 8 7 9 8 3 3 27 21 23 36 63 89 88 89 68 73 52 56 79 100 100 98 86 100 92 76 100 100 100 100 98 80 72 58 44 41 66 75 82 94 85 96
42 15 27 15 8 8 6 8 9 4 3 23 17 21 31 53 70 76 84 100 98 52 53 58 76 96 100 100 99 74 53 41 51 95 95 92 88 84 68 45 42 36 38 60 78 79 64
46 29 24 21 11 7 6 7 11 5 3 12 14 22 25 43 43 63 63 78 100 98 64 92 90 50 96 100 100 100 100 73 41 86 100 93 100 93 70 54 44 36 32 41 67 81 68
45 38 26 15 13 7 6 7 9 6 3 6 23 23 23 37 40 57 67 63 87 98 67 59 83 83 92 100 100 100 100 99 68 94 89 87 86 76 56 50 45 39 42 44 56 78 78
44 44 24 23 17 9 6 7 7 6 4 3 24 20 22 29 30 42 63 72 69 68 70 73 77 77 56 99 71 96 100 100 100 100 99 78 74 64 59 52 50 56 49 54 58 59 59
51 46 25 24 18 12 7 6 6 7 4 3 7 17 20 25 26 26 38 62 67 60 73 82 90 95 84 48 86 94 52 91 91 93 88 70 57 56 50 46 57 65 62 62 75 60 39
58 50 32 21 16 12 7 6 6 6 5 3 3 26 14 17 23 22 33 39 60 89 93 82 92 100 64 65 62 92 70 84 86 80 86 56 44 40 34 34 53 54 63 72 75 57 57
58 51 38 21 15 13 7 6 6 5 5 4 2 4 18 16 20 19 26 32 42 59 79 74 52 92 77 50 52 54 62 59 62 56 57 52 44 37 47 45 53 67 62 79 80 84 84
60 52 44 24 15 13 8 6 6 6 5 4 2 3 14 16 15 15 22 32 27 46 41 41 38 42 76 58 44 36 40 46 40 35 34 30 36 45 42 64 90 82 98 87 80 78 66
59 57 50 28 22 13 10 7 6 6 5 4 2 3 7 25 12 13 15 21 26 23 29 32 30 30 38 66 84 81 52 40 31 33 36 67 91 98 90 69 77 86 78 67 93 79 69
61 55 53 30 20 15 11 8 7 6 5 4 3 2 5 4 39 13 16 21 18 20 22 30 30 29 37 34 44 76 77 57 57 63 66 70 77 62 67 72 75 63 66 79 99 89 81
67 63 49 30 22 17 12 10 7 6 5 5 3 3 4 3 15 37 16 17 23 24 20 30 35 34 30 35 34 52 62 72 69 70 62 63 69 82 83 74 72 70 86 89 88 92 79
73 71 50 30 22 18 14 11 8 7 6 5 3 3 2 4 4 41 38 18 20 22 29 28 36 33 36 27 32 47 62 67 78 77 74 79 83 88 84 93 86 85 93 86 80 73 87
78 75 56 32 23 20 17 13 10 7 6 5 4 3 3 5 4 7 71 27 30 27 28 33 34 32 25 35 25 22 29 34 49 62 75 87 95 95 90 89 82 89 92 83 76 92 80
86 82 61 34 24 20 18 15 12 8 7 6 4 3 4 8 8 5 26 63 23 44 38 39 40 40 34 35 30 23 18 18 22 30 56 63 76 90 96 92 88 89 92 94 93 89 77
85 87 68 36 30 26 20 17 14 9 7 6 4 3 4 15 18 8 13 79 48 32 42 40 39 41 38 33 28 25 23 25 23 21 26 38 45 54 62 77 79 73 78 70 72 80 76
88 90 70 44 38 29 24 20 16 10 8 6 5 3 4 15 29 36 18 25 100 54 32 47 48 36 41 45 36 33 31 33 31 32 27 25 34 40 48 57 59 70 68 67 66 67 68
90 90 71 58 51 38 28 25 19 14 10 7 5 4 6 19 32 38 47 33 29 100 39 42 58 62 59 56 57 58 62 60 54 46 40 37 38 55 59 68 69 66 64 65 64 65 67
94 88 69 63 60 49 39 30 24 19 13 9 6 4 5 24 39 40 39 52 45 34 100 33 51 52 47 49 43 41 42 51 61 60 47 46 44 51 66 65 51 48 46 68 55 49 51
92 74 67 67 59 57 51 40 29 25 16 10 7 5 5 5 29 40 66 68 65 47 72 91 40 50 43 42 38 35 33 30 30 45 65 58 56 59 63 67 73 51 34 57 45 43 42
91 70 67 62 57 49 50 43 36 29 21 13 8 6 5 4 16 38 75 82 86 78 43 96 81 46 49 43 38 35 33 31 29 28 28 29 38 67 79 74 74 50 34 36 37 43 44
82 75 72 57 52 40 39 42 37 30 19 16 9 5 5 5 18 38 73 73 70 88 59 52 100 54 38 41 37 39 33 30 26 25 26 26 24 28 64 87 76 50 34 31 31 33 34

GFSGBSN_500_rhum_063.txt.gz
RH
26 28 18 22 18 15 9 7 6 7 3 6 17 18 21 32 28 31 29 35 49 67 80 89 94 89 100 100 76 84 22 18 44 96 99 91 19 20 39 42 50 74 100 100 95 98 98
27 29 20 25 18 11 9 7 7 7 3 10 17 19 33 40 52 45 42 39 49 42 83 99 100 95 71 64 72 76 52 24 28 63 100 99 29 18 34 51 50 78 80 93 96 98 94
32 30 24 26 19 12 10 7 7 8 4 10 17 20 29 40 64 72 59 64 51 61 66 54 91 80 69 51 49 54 98 26 27 32 100 100 52 20 24 42 60 58 68 98 96 98 89
36 32 22 28 25 18 11 8 8 9 4 10 15 23 36 37 69 83 86 66 51 69 75 81 59 53 55 57 63 51 100 28 29 26 98 100 94 29 20 33 51 60 62 92 96 96 99
34 33 24 31 27 18 12 9 8 10 5 8 14 26 32 32 51 70 97 43 43 55 75 85 92 89 71 72 66 100 97 37 35 28 100 100 99 49 20 24 32 57 66 70 90 93 98
33 32 32 33 27 18 13 9 8 11 6 7 13 19 32 26 48 62 90 82 50 56 69 92 99 89 91 98 98 100 100 54 36 47 100 100 99 67 25 20 23 22 42 59 78 84 91
34 28 30 31 26 17 18 10 9 11 5 5 14 17 34 32 52 60 97 100 66 87 86 100 89 87 92 100 100 100 94 62 33 62 100 100 88 66 34 20 20 22 26 35 43 80 95
38 30 28 30 32 19 18 11 9 11 9 4 15 16 26 33 53 69 84 61 93 99 100 72 94 90 85 98 95 98 74 46 31 34 100 100 85 86 62 54 28 22 28 75 89 78 93
39 33 26 31 30 19 18 10 10 11 9 4 10 16 16 33 53 61 70 41 52 94 100 75 70 71 99 100 100 89 63 47 38 80 99 82 85 84 75 66 48 30 41 81 79 72 88
44 39 32 28 27 21 19 12 11 11 10 6 5 15 14 26 40 60 56 41 38 74 74 93 90 64 94 86 82 96 91 90 100 98 100 100 99 93 75 60 50 34 36 67 86 79 67
48 42 33 28 28 22 17 16 12 9 10 7 3 13 13 24 30 50 45 32 41 51 63 65 90 98 69 61 68 100 100 100 100 100 98 90 97 94 75 58 45 38 44 34 50 60 68
52 42 35 32 27 24 16 15 12 8 9 8 3 8 13 16 23 39 71 58 64 69 83 63 62 92 96 100 87 98 100 100 100 98 99 99 94 87 71 59 48 45 40 34 31 34 31
50 42 38 33 29 28 19 14 11 8 8 8 5 3 13 13 21 26 44 54 52 56 82 94 52 72 84 72 97 90 72 78 69 88 99 98 94 79 73 58 49 44 39 35 36 31 18
46 41 39 36 31 28 21 16 11 8 8 9 7 2 5 13 18 21 24 28 32 45 40 80 57 53 48 78 92 97 51 53 78 100 95 78 72 72 58 52 46 42 48 48 43 26 33
51 48 49 41 37 30 22 15 14 9 8 9 8 4 3 12 13 15 20 24 28 38 40 26 60 42 55 45 49 56 98 100 100 95 95 63 57 47 46 48 50 42 44 56 60 48 47
59 57 54 47 42 34 23 15 12 10 10 8 8 7 3 3 19 14 16 18 25 30 38 28 19 59 36 38 29 39 37 63 61 74 77 66 53 41 37 35 32 35 60 58 58 54 52
52 56 60 60 54 39 24 17 12 10 10 8 8 8 4 3 6 21 13 16 17 24 29 24 18 19 43 52 34 33 44 57 58 49 46 48 52 52 43 36 56 56 52 71 69 59 43
59 60 58 66 61 50 25 18 13 12 10 9 8 8 5 4 3 14 23 14 17 18 20 23 24 22 22 44 86 74 34 28 28 31 30 35 38 47 67 53 45 60 80 72 63 46 52
58 60 62 68 66 51 28 18 15 13 12 10 8 8 6 6 4 3 28 25 18 21 25 23 30 24 22 28 28 71 78 55 44 36 33 36 50 83 83 78 67 64 59 54 56 66 52
57 61 62 68 62 49 29 21 18 15 14 11 9 8 8 6 6 4 6 46 24 24 23 31 38 34 29 27 35 42 57 79 80 72 75 78 75 82 76 80 73 70 67 66 75 64 72
59 64 64 67 64 55 36 24 21 19 17 14 11 9 8 7 6 7 4 27 52 28 34 32 37 40 32 32 25 35 55 64 74 84 89 89 88 80 83 86 77 78 76 70 64 79 70
64 70 67 74 68 66 47 28 29 24 21 19 15 12 10 10 6 10 7 7 65 40 40 39 42 42 39 32 34 25 22 31 39 47 58 66 81 85 85 86 90 80 76 84 84 75 67
68 71 67 71 78 73 53 41 37 32 26 27 20 18 13 11 6 8 16 13 14 69 40 57 50 52 51 43 35 33 26 22 20 21 24 40 56 61 63 70 71 70 88 82 84 90 88
75 81 72 69 83 76 63 47 35 31 31 32 25 22 17 12 7 5 19 23 33 20 88 42 56 58 50 50 39 32 28 25 25 24 23 22 27 38 39 50 42 60 71 72 65 68 68
93 81 76 81 83 78 67 44 37 35 33 33 28 26 22 17 8 4 14 36 25 35 29 100 38 58 65 51 53 35 32 36 37 36 30 27 26 22 23 33 45 56 64 68 64 61 56
95 86 85 85 88 81 67 43 37 37 32 31 32 25 23 12 11 4 12 36 47 46 48 35 100 41 68 70 66 68 65 66 73 54 52 44 38 35 31 37 61 66 62 63 61 66 62
98 93 94 92 91 81 67 43 45 35 31 26 27 24 21 12 8 4 8 27 63 71 71 49 57 85 50 70 56 59 57 49 48 58 77 71 54 44 46 43 57 72 67 58 41 46 53
98 96 97 96 92 88 65 48 48 41 36 30 27 22 21 17 8 4 11 36 70 74 87 82 45 96 51 61 53 47 41 36 32 31 31 31 46 63 66 58 63 70 72 60 37 46 50
95 97 100 96 96 90 70 63 59 46 34 31 28 23 21 17 9 5 10 48 76 75 46 96 72 69 93 50 55 48 41 36 36 35 30 29 26 25 30 45 76 84 78 71 37 35 38

GFSGBSN_500_rhum_066.txt.gz
RH
26 26 23 24 24 24 21 20 15 17 14 7 4 11 20 26 39 52 85 66 45 41 28 63 92 99 100 92 94 72 67 26 23 82 78 100 99 45 21 23 24 24 48 86 93 98 97
26 28 24 25 23 27 21 22 16 17 14 9 4 11 20 22 34 66 70 82 71 60 44 49 46 72 79 83 74 71 82 37 27 34 54 100 98 61 21 30 33 21 34 86 98 98 97
27 29 27 28 24 26 23 18 19 15 14 10 5 12 20 25 33 52 61 74 90 90 48 65 58 62 99 82 72 75 88 69 31 26 29 100 96 96 30 27 42 36 42 81 99 95 97
29 31 34 30 22 24 23 18 22 14 13 10 5 10 22 29 31 47 56 58 90 95 86 77 78 58 70 76 67 55 69 94 29 47 26 100 100 98 39 22 49 42 50 89 96 98 97
40 33 38 32 25 23 23 19 22 13 12 9 5 12 21 31 39 51 40 45 94 91 96 90 91 79 69 54 61 46 58 82 31 67 27 100 100 99 58 20 44 39 40 78 91 95 99
46 36 39 35 29 24 23 19 22 13 12 11 5 10 20 33 46 38 30 61 77 86 75 100 69 85 91 77 60 60 95 95 61 68 29 100 100 99 82 27 21 21 28 28 52 74 94
51 45 41 39 30 26 23 20 16 13 11 12 7 8 14 34 48 27 37 64 56 93 63 88 80 88 97 93 82 88 100 97 88 50 62 100 96 72 77 45 18 27 38 46 44 49 94
57 47 46 37 32 26 24 22 17 12 11 13 10 4 12 32 51 32 35 64 46 80 88 60 87 74 99 100 100 97 100 92 100 33 89 100 89 96 80 30 19 23 29 42 47 64 73
49 54 50 39 33 27 24 22 18 16 12 12 12 4 12 28 48 44 53 69 77 54 96 74 52 69 62 90 78 97 87 89 37 78 100 97 92 100 85 37 20 18 28 32 39 43 54
46 54 53 40 32 30 25 22 20 14 16 12 13 6 7 18 38 53 52 58 63 57 74 100 100 99 62 71 80 89 74 47 73 100 100 100 99 100 82 38 22 22 23 27 30 41 46
50 55 47 37 36 31 29 22 19 12 15 11 13 10 3 14 26 42 51 47 46 64 58 90 49 62 63 70 70 71 59 42 89 100 100 100 99 93 64 48 48 34 25 25 27 28 43
52 56 44 40 38 30 31 25 19 13 14 13 13 10 4 7 17 25 27 30 39 49 60 64 85 50 77 85 100 84 37 29 60 99 100 100 98 97 92 83 66 48 35 31 45 46 40
61 57 50 48 39 30 32 31 17 14 16 14 11 10 6 2 10 18 19 22 30 37 55 32 49 63 98 98 84 100 85 90 90 100 100 99 100 92 92 75 60 49 38 38 39 30 20
62 60 60 54 42 36 31 32 28 14 26 14 11 11 8 4 4 14 18 18 24 34 34 53 39 40 69 52 55 96 100 100 95 98 89 87 91 86 79 68 56 48 38 38 33 27 24
65 62 57 52 42 38 37 33 24 18 24 14 13 12 11 8 4 9 16 20 20 26 34 22 35 38 38 51 47 52 53 98 100 97 100 95 93 82 78 67 56 48 42 39 34 31 27
68 62 52 49 42 42 41 32 22 20 25 17 15 14 14 12 6 3 15 18 15 20 25 26 20 32 30 28 45 50 42 60 78 88 76 80 76 78 69 66 55 48 43 40 38 33 23
71 61 56 52 47 50 46 36 28 25 29 20 18 17 15 17 11 6 4 22 17 14 17 24 21 17 40 27 30 36 55 74 82 83 71 59 52 47 50 43 43 41 39 41 55 44 34
79 70 59 53 49 55 53 44 38 28 31 24 20 20 16 19 16 8 3 10 25 17 17 17 22 21 18 52 40 45 42 44 46 53 62 65 56 46 42 42 41 39 41 40 44 50 55
76 75 64 50 59 60 54 54 47 41 35 28 21 24 19 18 19 12 5 4 29 29 21 19 21 25 21 21 51 60 48 38 41 48 53 50 47 54 55 52 48 43 40 42 60 61 48
78 69 59 52 56 63 57 58 55 54 40 28 24 25 18 18 17 13 6 4 12 38 32 27 28 33 28 32 31 52 75 50 40 35 35 35 35 34 43 61 73 66 65 79 90 70 68
86 76 60 53 59 61 57 54 55 57 41 28 25 22 15 16 14 12 7 6 8 48 42 35 32 34 39 31 34 43 54 66 70 69 61 52 49 58 59 62 77 80 76 69 58 67 59
87 78 60 52 57 60 47 54 49 51 36 28 26 20 14 13 15 14 8 6 16 22 70 45 42 40 43 38 38 29 41 58 67 83 86 88 92 83 81 84 90 78 81 88 85 78 56
92 82 64 54 62 60 48 54 54 52 36 27 24 19 14 13 14 14 10 8 12 37 37 64 55 43 44 43 36 38 31 28 41 50 55 61 65 68 64 63 63 64 98 92 92 90 87
98 90 72 64 68 65 56 56 64 55 37 28 25 22 15 13 13 12 10 7 12 31 46 54 66 62 52 51 44 36 39 34 24 23 26 27 29 29 40 52 43 64 74 77 77 86 81
99 96 88 75 73 71 66 67 70 63 39 29 28 21 14 12 12 10 8 7 17 28 51 46 53 77 60 56 57 52 41 37 34 30 28 26 25 23 19 24 28 38 42 50 56 74 64
98 98 93 84 80 70 72 73 74 65 39 37 26 21 15 13 11 8 7 7 26 36 55 68 47 68 84 55 67 52 49 45 39 34 40 44 40 36 37 32 24 31 52 58 65 67 56
98 99 92 88 81 83 87 82 69 63 46 35 27 22 16 15 10 8 6 6 24 44 53 69 77 50 76 79 67 73 67 67 62 64 72 68 56 51 50 38 31 40 51 62 56 54 50
97 98 97 91 83 86 78 77 67 61 45 33 30 22 19 16 10 8 6 5 22 29 60 70 73 77 63 100 59 80 79 72 71 74 68 62 67 70 66 59 50 54 54 60 67 64 48
100 96 96 89 87 92 80 77 70 58 48 40 29 24 21 16 11 9 6 5 24 35 40 67 53 87 64 65 84 59 66 59 53 43 39 36 32 31 33 36 39 51 62 64 64 69 53

GFSGBSN_500_rhum_069.txt.gz
RH
32 30 30 29 34 27 25 21 19 16 17 17 15 10 7 12 25 20 30 45 44 57 48 52 47 100 100 100 100 87 86 52 33 35 32 100 100 77 76 28 20 29 65 65 94 92 99
37 29 32 33 36 32 27 22 19 19 17 16 14 10 7 14 22 24 41 48 46 66 54 68 62 79 95 97 100 90 63 66 33 31 31 100 97 99 98 51 23 24 45 73 75 98 99
37 35 41 35 35 34 29 24 19 20 19 16 13 12 7 16 22 23 44 65 54 64 56 89 81 66 50 74 93 86 62 46 50 37 42 51 100 98 98 55 30 26 41 68 100 97 99
42 38 48 40 40 35 30 25 20 19 22 21 15 13 6 18 25 49 64 70 63 63 62 87 72 70 60 88 93 83 58 72 58 99 64 59 100 100 99 80 37 67 49 67 84 94 96
44 42 54 44 40 36 30 26 22 20 22 23 14 11 6 16 32 37 64 66 66 68 56 69 86 85 61 57 92 71 59 83 92 96 68 51 98 100 100 88 37 66 48 31 62 83 90
46 46 55 47 46 37 30 28 22 22 24 23 14 10 5 15 35 35 52 65 62 78 60 44 70 81 83 55 56 68 59 95 100 66 71 65 100 96 97 91 54 50 36 33 34 63 82
57 54 55 50 49 35 32 30 22 22 23 26 16 11 6 11 32 28 39 58 61 86 56 57 75 82 100 92 53 42 52 94 100 100 80 44 94 76 83 83 56 39 38 23 31 44 98
69 59 54 53 43 36 34 29 22 23 24 27 16 13 9 7 24 25 32 40 59 79 55 65 51 46 58 87 58 83 87 100 100 97 38 86 100 96 86 91 73 40 35 30 43 48 85
72 62 52 54 42 39 36 28 23 23 25 24 14 14 13 6 13 24 24 32 51 68 46 53 85 88 54 77 61 100 80 100 100 91 34 100 99 86 78 82 77 47 27 31 39 44 52
68 64 53 56 44 43 36 26 29 23 26 22 17 16 17 8 8 22 18 22 43 54 51 62 93 68 60 59 85 100 98 100 100 46 57 97 85 88 80 89 84 55 22 31 42 39 36
68 66 56 57 50 47 39 31 28 23 31 22 19 17 19 18 5 14 19 18 32 46 66 72 87 72 67 62 66 100 100 100 44 72 100 97 95 93 97 94 87 34 21 27 30 29 31
69 68 61 60 60 52 41 35 28 24 32 26 21 19 21 26 9 6 17 17 24 35 63 82 86 95 100 58 63 63 74 58 98 100 100 96 96 100 100 91 70 23 21 22 22 19 17
69 68 65 65 60 47 40 34 30 28 31 31 24 19 21 27 15 6 10 16 18 26 30 45 93 68 70 59 30 43 62 100 100 97 100 98 94 100 100 94 53 24 21 20 18 15 12
70 64 59 65 58 45 42 34 35 30 30 34 26 20 21 21 17 8 4 18 17 20 28 34 47 78 59 50 33 24 60 99 93 93 97 100 95 92 74 59 49 29 29 24 21 16 17
73 60 65 63 57 48 45 38 39 41 38 37 29 22 21 20 17 10 5 13 20 15 24 22 32 43 45 67 60 41 44 87 80 100 96 93 94 90 81 71 69 60 51 40 28 24 26
73 66 70 61 62 54 47 44 48 49 43 38 30 23 18 15 15 13 6 6 20 17 16 22 20 28 29 36 55 72 71 75 95 100 97 97 96 91 82 80 71 62 55 47 38 35 31
86 78 74 67 65 61 52 51 51 50 50 39 31 23 18 12 13 13 10 4 9 24 15 18 22 20 28 29 40 46 55 81 86 83 90 88 86 76 81 70 64 60 53 48 44 35 29
81 80 76 74 73 62 56 55 48 50 46 37 30 24 17 13 12 12 11 5 7 27 22 18 19 21 34 26 38 42 54 62 88 66 64 79 77 71 76 71 71 62 54 48 42 40 40
64 62 71 75 77 66 57 53 47 45 46 36 32 25 18 15 12 10 10 6 4 20 33 24 26 24 26 48 37 42 61 68 61 66 67 59 54 52 46 43 41 41 47 49 48 46 37
77 59 64 74 72 67 60 49 49 46 45 40 34 26 21 16 12 10 9 6 5 7 32 31 30 36 34 37 54 74 48 48 55 56 49 53 53 60 60 62 62 56 54 48 41 32 28
94 67 60 76 68 66 60 50 44 48 51 47 38 29 23 16 12 9 8 7 5 9 23 41 34 38 44 36 46 53 75 84 47 39 44 48 52 53 52 40 38 42 78 78 66 61 40
100 83 77 81 81 76 64 54 50 54 53 49 39 31 23 18 12 9 7 6 8 9 22 39 45 36 45 52 41 43 52 67 77 68 42 43 41 41 39 39 44 56 66 78 76 75 65
100 91 81 85 80 76 68 62 64 67 59 53 39 36 25 18 13 9 7 6 9 14 19 27 56 47 38 43 48 49 40 37 56 77 84 75 73 72 74 70 58 60 96 90 87 91 79
97 95 85 90 80 76 77 68 65 74 58 54 47 39 26 19 14 9 7 6 12 24 22 28 30 62 55 44 43 46 44 42 35 43 63 78 81 84 81 80 70 71 75 81 86 90 84
96 96 90 96 89 80 78 68 72 78 61 58 51 36 27 20 15 9 6 6 8 26 31 37 52 32 60 57 54 51 45 41 42 40 30 32 30 29 29 30 30 37 48 52 51 53 51
96 98 93 94 91 86 83 75 72 68 65 61 52 37 29 21 14 9 7 5 6 18 26 39 54 55 34 68 63 59 52 51 46 43 42 42 42 37 36 32 26 34 30 26 31 44 48
97 96 93 95 95 88 83 72 74 74 70 63 53 44 30 21 15 10 7 6 5 11 28 31 54 62 61 42 80 60 64 56 50 48 51 44 45 44 50 44 42 52 35 32 32 44 53
97 96 97 97 92 91 81 74 76 81 75 65 58 47 30 21 15 10 7 6 5 6 24 34 36 53 78 73 51 84 58 72 62 64 64 61 70 76 73 75 70 60 53 46 40 50 60
97 95 99 98 93 89 87 76 79 81 79 67 57 41 28 22 17 11 8 6 5 5 13 39 38 34 65 85 54 62 79 77 81 79 73 74 69 63 53 42 41 44 47 58 62 59 56

GFSGBSN_500_rhum_072.txt.gz
RH
48 47 45 36 33 39 33 32 27 21 18 10 14 16 13 7 8 18 36 41 52 62 26 29 66 58 100 100 100 100 94 84 44 41 34 94 100 100 99 88 77 64 70 76 68 70 99
55 56 49 39 37 41 37 31 30 22 18 13 14 15 14 8 8 20 32 45 54 54 29 24 54 56 93 100 98 96 82 95 51 47 43 57 98 99 99 86 88 82 59 68 73 86 93
54 57 54 43 41 42 39 32 31 22 18 11 15 16 15 10 8 21 28 42 62 43 44 28 35 43 56 93 95 100 81 78 82 51 51 39 94 100 96 99 50 59 55 57 65 70 88
52 56 58 44 47 46 37 33 32 21 15 14 18 17 14 11 7 15 29 35 63 45 54 40 46 46 28 58 78 87 78 64 76 61 44 56 87 100 100 98 52 76 58 64 75 69 92
50 60 60 52 52 48 37 35 30 22 16 20 20 17 15 12 7 13 25 30 59 50 65 59 51 71 59 29 68 81 74 61 49 72 45 54 82 100 100 100 76 91 62 62 86 84 83
44 56 62 59 54 47 39 37 27 22 26 22 21 18 17 14 7 11 22 25 49 54 71 61 71 72 71 47 68 93 74 59 42 66 54 48 91 100 100 99 79 76 50 54 66 66 72
47 48 66 65 55 47 41 39 28 25 27 25 22 19 18 12 7 9 20 22 42 55 68 55 98 92 95 79 51 79 68 47 98 97 100 59 57 97 80 92 100 98 71 58 45 55 92
58 47 70 66 57 48 45 43 35 24 29 29 22 21 19 12 9 7 18 20 32 50 69 79 76 66 79 84 44 43 58 62 100 100 68 63 85 100 99 88 88 90 58 68 54 47 58
67 54 70 67 60 50 50 50 38 25 29 30 25 22 19 13 11 6 12 20 22 40 64 96 72 58 72 95 100 61 89 98 100 100 76 67 100 100 100 90 73 84 58 53 50 45 45
74 58 71 70 65 57 56 51 35 27 30 32 27 24 18 13 13 8 8 18 19 31 53 99 80 66 61 69 86 87 100 87 89 100 100 76 80 95 98 92 74 90 50 49 47 38 32
80 63 75 74 72 62 58 47 32 31 33 33 28 23 21 12 13 9 6 14 18 27 48 85 94 36 49 95 97 99 100 84 74 52 66 100 88 84 95 78 80 79 66 40 39 31 28
85 70 83 77 78 63 57 48 34 38 37 33 30 24 22 13 12 10 5 12 19 25 48 59 98 34 57 84 100 89 95 92 73 80 100 100 98 97 100 80 85 98 70 36 26 27 24
91 74 86 81 77 64 55 50 38 44 36 32 30 24 22 15 12 10 6 8 20 19 26 48 74 28 44 50 61 81 54 47 49 87 91 100 100 90 72 71 73 94 76 46 21 21 18
92 77 86 83 77 64 55 49 47 44 39 33 28 24 22 17 12 9 7 6 14 20 23 36 58 35 20 37 61 99 58 100 99 99 88 86 81 88 90 92 85 87 73 34 19 18 16
94 78 88 82 76 68 58 51 50 45 41 33 29 26 23 19 11 8 7 5 8 17 20 24 50 50 40 22 54 100 100 100 91 99 100 90 84 82 96 85 73 76 54 28 21 19 18
85 89 88 84 75 74 60 55 56 47 40 34 33 28 25 20 12 8 7 5 5 12 16 22 28 57 47 23 29 58 99 81 86 97 98 100 93 85 84 77 74 56 44 33 25 21 21
85 95 92 96 83 80 69 60 58 47 43 39 37 31 28 21 14 9 6 6 5 8 15 17 21 35 52 51 23 32 61 74 80 96 98 87 98 97 83 67 61 58 51 45 42 40 35
80 97 95 95 96 87 80 65 59 52 47 41 40 32 29 23 17 10 6 5 5 6 13 16 18 21 37 60 52 48 57 70 85 97 93 87 84 86 91 92 84 75 64 58 52 47 43
97 96 91 92 94 96 87 66 63 52 52 44 43 33 31 24 18 9 6 5 6 7 8 23 19 21 32 34 53 60 52 69 87 78 66 75 74 82 69 67 63 61 63 60 56 52 44
72 96 95 81 78 91 90 68 67 56 56 51 43 38 34 26 19 9 6 5 5 8 9 19 28 27 33 44 54 62 81 90 88 71 70 77 77 60 65 68 62 63 69 63 56 48 48
81 93 97 86 74 81 94 71 63 68 65 52 43 39 37 27 20 10 6 5 4 8 11 13 33 30 34 43 47 83 77 66 84 77 67 66 63 59 56 55 55 58 54 47 42 48 32
98 91 97 96 78 78 95 75 62 76 71 58 49 45 36 29 21 13 7 5 4 6 14 15 22 36 34 44 46 48 60 82 90 65 46 62 63 61 57 51 53 50 46 38 51 68 58
98 98 96 97 90 95 96 80 75 83 79 63 53 49 38 34 22 15 9 5 4 5 12 20 23 26 41 40 50 54 46 49 60 78 85 66 48 43 41 43 43 36 43 46 66 73 75
98 95 98 96 96 97 96 95 94 84 76 62 54 51 42 38 23 15 10 5 4 4 10 21 30 34 39 50 42 48 55 52 46 43 63 90 100 93 73 66 64 77 81 72 65 75 66
98 97 93 97 97 96 96 96 95 95 79 66 58 54 46 42 24 19 10 5 4 4 8 16 29 42 42 40 60 49 43 49 48 46 40 48 77 92 97 100 94 91 88 82 71 61 53
92 97 96 97 97 96 96 96 96 91 87 77 65 58 52 44 26 20 10 6 4 4 6 12 24 38 56 51 52 64 60 54 49 45 44 43 38 37 36 37 32 35 32 29 36 43 45
99 97 96 96 97 96 94 96 96 95 93 84 71 64 54 40 28 21 11 6 4 4 4 8 22 26 40 62 58 64 74 77 61 55 54 47 43 39 38 33 31 35 35 35 33 26 26
98 97 88 96 96 96 95 96 95 95 91 84 77 70 58 39 28 20 11 7 5 4 4 5 16 25 24 38 71 48 65 72 76 72 60 56 47 44 38 39 46 44 46 42 36 32 30
98 100 97 97 96 97 94 96 96 96 92 86 84 78 56 38 31 21 12 7 6 5 4 4 7 26 31 27 50 68 48 82 68 73 79 70 64 67 63 67 67 61 57 55 57 58 50

GFSGBSN_500_rhum_075.txt.gz
RH
43 55 58 58 59 53 42 41 31 28 26 15 16 18 17 9 9 9 7 15 24 38 50 46 31 21 40 93 93 100 100 100 100 46 35 93 100 78 71 92 87 93 96 96 95 98 48
50 46 57 56 61 53 46 41 30 33 22 21 18 19 18 10 10 10 7 16 23 39 57 56 46 40 25 91 86 93 100 100 100 54 38 72 100 96 79 83 99 88 95 96 98 92 66
47 50 52 61 64 57 51 40 30 34 24 23 25 20 17 12 12 10 7 15 22 45 62 71 66 64 34 68 96 100 100 95 96 70 51 58 100 100 100 73 94 97 97 93 90 92 94
53 65 58 66 70 61 53 41 33 36 25 25 26 22 17 14 13 10 7 13 22 45 69 80 73 92 46 29 99 92 87 83 90 89 56 56 99 100 93 100 92 94 97 100 96 98 98
51 69 65 59 76 65 53 42 38 41 29 26 26 24 19 15 13 10 7 12 21 39 68 87 72 73 76 40 69 100 93 67 70 98 54 52 95 100 100 83 100 99 97 96 99 100 89
48 69 74 63 77 68 55 45 44 46 28 27 25 25 21 15 12 9 7 11 20 38 66 94 72 67 99 45 55 97 87 66 59 93 65 62 83 99 100 98 94 86 90 92 94 93 85
57 62 79 70 82 71 57 47 49 46 28 29 25 26 21 15 12 9 6 10 19 37 63 94 66 74 80 54 66 95 84 68 55 86 63 61 75 86 100 100 95 100 100 98 100 78 74
59 59 82 78 88 73 60 49 55 40 30 30 27 26 21 15 11 8 6 8 19 30 60 86 45 69 92 94 56 99 84 64 46 78 58 64 76 100 100 100 100 97 100 96 97 68 86
54 64 78 79 93 76 66 54 58 37 34 30 26 24 22 15 10 8 6 8 17 27 59 56 42 83 77 100 50 78 69 45 43 100 83 75 71 100 100 96 100 89 86 93 98 65 79
56 64 87 83 98 82 71 62 58 39 35 30 25 23 20 16 10 8 5 6 15 26 58 38 51 44 74 100 91 87 66 86 99 96 57 50 81 98 99 100 100 99 87 89 95 92 69
64 62 100 91 100 90 76 70 58 44 37 32 25 24 21 16 10 7 5 6 13 26 58 40 65 69 60 99 87 100 93 99 100 90 70 69 73 100 97 100 100 100 85 72 98 99 78
82 68 77 93 100 96 80 71 56 45 41 38 27 25 23 16 12 6 5 6 10 22 56 34 36 60 66 77 52 47 71 99 94 78 78 100 87 100 100 100 98 95 96 97 100 98 79
96 66 78 100 99 97 81 71 55 48 44 38 29 27 24 17 12 6 5 5 8 16 41 36 22 34 53 60 73 66 62 58 79 69 85 100 97 100 100 92 91 98 99 92 67 77 60
97 68 83 100 98 97 80 73 57 51 47 36 33 28 25 18 12 7 6 5 6 17 26 51 17 36 60 60 69 77 49 43 86 92 97 97 92 92 100 92 99 100 100 83 66 60 31
97 72 84 99 100 96 85 73 59 58 51 38 36 30 26 20 12 7 5 5 6 10 19 39 51 35 68 50 40 48 57 86 100 100 98 96 75 65 69 96 99 100 88 75 66 47 25
96 84 84 99 98 97 89 74 65 64 54 40 38 31 28 21 13 8 5 4 6 7 15 21 36 45 48 80 81 97 100 100 100 100 100 95 98 97 87 86 85 96 96 76 70 48 31
97 94 80 92 97 95 92 86 79 66 57 43 41 33 30 23 15 9 5 4 5 7 8 17 22 31 40 49 74 86 78 81 93 91 94 89 92 91 94 88 100 85 76 77 60 37 26
97 81 72 97 97 96 95 96 93 70 59 45 43 36 34 26 18 10 5 5 4 6 8 14 19 24 32 48 27 62 64 66 67 94 87 89 91 99 100 83 79 72 71 58 47 39 34
96 98 73 98 97 96 97 96 95 75 59 51 44 38 35 28 20 12 6 5 4 5 8 12 22 20 27 39 51 41 36 48 55 76 90 95 91 97 94 93 75 66 69 68 60 50 47
96 98 76 96 97 97 96 97 96 77 66 52 45 41 33 30 23 14 6 5 4 4 7 11 16 22 24 36 44 55 74 74 70 77 77 83 89 99 99 82 81 78 81 80 68 59 61
96 88 86 98 97 96 96 96 96 80 73 60 50 44 37 34 24 16 7 5 4 4 5 10 14 23 26 35 54 50 58 75 100 97 89 78 73 71 83 80 87 84 79 72 65 72 57
91 100 96 98 97 97 94 94 96 87 77 66 55 48 41 37 26 19 9 4 4 4 4 7 14 18 31 32 37 66 66 59 74 83 100 98 87 87 72 64 65 60 55 54 52 53 47
97 95 98 100 96 97 95 94 96 97 84 67 57 51 44 41 28 23 12 5 4 4 4 5 14 22 21 37 35 46 47 66 80 77 75 70 60 68 68 66 63 55 55 52 49 47 36
96 96 97 97 97 96 97 96 97 96 89 77 57 54 49 45 31 24 14 6 4 4 4 4 10 22 31 34 43 40 49 49 46 53 74 83 72 56 56 62 62 54 46 41 35 29 27
97 97 98 98 98 96 97 96 94 97 94 78 66 58 55 48 34 27 15 8 4 4 4 4 6 14 28 47 36 50 47 47 52 50 44 41 57 85 85 63 44 40 43 59 59 45 33
96 98 97 98 97 97 96 97 96 96 95 87 77 65 61 53 36 27 17 9 5 4 3 4 4 9 17 33 47 38 58 54 48 47 48 45 45 43 58 75 80 76 84 78 72 68 63
99 98 98 97 97 98 96 97 96 96 96 92 80 72 68 59 42 31 18 11 6 4 4 4 4 7 15 20 31 67 56 59 66 54 61 57 49 43 44 37 32 30 33 30 31 26 26
98 94 98 97 99 92 96 97 96 96 95 88 80 75 69 62 42 36 21 12 6 4 4 4 4 4 7 18 22 32 67 49 77 75 80 74 69 62 54 41 40 36 32 37 31 35 31
99 97 98 98 95 98 96 97 97 96 95 94 83 84 80 55 44 40 21 12 8 5 5 4 4 4 4 15 25 28 56 67 74 86 78 77 74 67 71 60 52 43 47 53 64 69 63

GFSGBSN_500_rhum_078.txt.gz
RH
35 39 60 63 62 69 65 60 52 40 36 35 26 25 20 17 10 7 6 5 6 10 20 34 59 72 33 28 64 89 100 100 93 100 75 43 66 100 80 86 99 98 99 74 82 97 78
49 49 44 73 70 69 68 64 54 43 41 40 28 27 20 16 10 7 5 5 6 11 20 42 70 75 34 31 64 75 100 100 100 93 98 36 74 100 86 96 100 97 99 99 78 74 95
55 55 51 66 74 76 71 67 56 45 45 45 28 26 21 16 10 6 5 5 6 11 20 49 81 67 45 48 59 87 100 100 100 82 91 47 74 100 100 92 93 100 87 95 97 95 78
91 56 67 54 80 77 76 71 59 47 48 44 28 26 23 17 11 7 5 5 7 12 26 59 75 52 61 48 48 99 96 92 100 99 76 79 92 98 97 88 84 99 98 94 95 99 71
95 83 60 59 75 77 78 74 64 50 52 44 30 26 24 16 11 7 5 5 7 12 30 72 38 46 56 63 36 100 100 96 80 90 84 83 97 99 100 84 74 97 94 90 99 100 85
96 95 68 69 65 78 83 76 68 54 56 43 32 27 24 16 12 7 5 5 8 14 36 57 30 42 71 69 38 100 87 88 85 88 95 92 99 100 100 97 78 79 90 90 99 95 93
51 95 91 71 72 82 84 79 70 59 61 40 33 26 23 16 12 6 5 5 7 16 42 32 24 40 77 58 38 100 100 73 54 78 100 78 98 98 98 78 92 88 85 90 96 92 96
36 85 97 73 79 84 90 85 75 66 64 40 35 28 23 17 12 7 5 5 7 15 38 35 44 70 89 76 35 94 82 64 70 81 83 61 83 100 100 100 100 96 100 97 100 98 90
5 48 96 83 84 82 96 90 78 75 64 44 38 31 23 18 12 7 5 4 7 16 35 34 47 75 70 72 44 81 85 66 51 96 84 63 77 100 100 100 98 100 92 86 87 77 95
4 23 89 96 86 83 97 94 83 81 65 48 44 34 25 19 11 7 5 4 7 16 31 41 49 65 71 65 91 53 56 57 46 91 100 100 90 96 98 100 100 99 90 90 92 95 100
4 5 60 97 86 92 99 95 90 82 67 56 50 36 26 19 11 7 5 5 7 12 25 38 52 48 55 55 80 82 64 35 40 84 87 70 94 97 98 100 100 100 85 95 92 100 97
3 4 57 97 85 96 98 93 96 82 67 60 54 35 27 19 11 7 5 5 6 11 28 26 38 53 44 45 42 83 100 99 85 86 69 88 99 98 100 100 100 100 91 93 92 100 92
3 3 55 95 94 78 98 94 97 81 71 62 53 38 28 20 12 7 5 5 6 10 27 29 33 46 60 65 43 97 83 85 87 100 64 81 100 100 100 93 86 96 97 87 93 97 82
3 3 54 96 97 93 97 97 97 84 76 68 56 42 29 20 12 7 5 4 5 8 17 36 42 47 68 69 64 53 85 88 58 58 51 76 96 89 97 100 99 88 99 100 84 64 63
3 4 50 96 99 81 98 96 97 91 79 73 60 44 31 22 14 8 5 4 5 6 17 22 43 57 56 35 36 52 58 65 69 81 68 78 93 93 95 98 99 96 90 81 78 69 61
4 8 60 97 97 90 97 96 96 94 88 73 68 46 34 23 16 8 5 4 4 5 10 19 38 44 37 37 45 59 64 58 64 73 59 56 69 78 79 94 99 99 95 96 82 81 66
4 6 72 97 93 100 97 98 96 94 94 73 65 50 36 25 17 8 5 4 4 4 7 12 22 43 61 66 69 85 96 99 99 97 98 97 89 92 100 100 100 100 99 91 98 95 99
5 19 79 98 95 97 97 98 96 95 94 75 63 50 37 26 18 9 5 4 4 4 4 10 13 25 45 66 72 92 82 93 100 100 90 93 85 90 93 99 100 100 100 100 100 100 96
7 43 96 92 98 96 97 97 96 95 95 71 64 46 36 29 19 10 5 4 4 4 3 7 11 17 26 40 37 53 67 60 67 71 84 83 91 99 99 100 100 100 100 97 88 79 69
12 97 98 98 99 98 97 97 96 96 95 66 65 48 38 32 22 12 6 4 4 3 3 4 10 14 18 26 35 41 28 43 59 64 74 92 99 99 100 100 99 91 82 84 89 73 64
36 98 98 99 99 97 97 98 96 97 92 71 66 56 40 35 24 15 6 4 5 3 3 3 6 14 18 21 34 34 51 44 59 68 72 83 94 88 91 98 97 100 94 91 71 88 67
84 98 96 99 98 97 97 97 97 96 93 77 67 68 44 39 26 16 7 4 6 4 4 3 4 10 17 22 25 38 36 48 54 77 93 100 100 91 84 96 99 82 88 90 87 80 70
100 99 98 98 98 98 97 96 96 97 94 86 79 71 48 42 28 18 9 5 5 4 3 3 3 7 14 20 29 29 41 55 53 61 66 73 77 93 88 82 79 63 76 69 67 62 57
98 98 98 98 98 98 97 97 97 96 96 86 85 64 51 45 32 20 12 6 5 5 4 3 3 4 9 22 27 32 34 43 55 74 79 83 82 81 78 69 67 64 62 61 58 53 48
98 99 98 98 98 98 98 96 97 95 97 93 86 60 55 50 35 23 13 8 4 6 4 4 4 3 5 14 25 37 33 39 41 53 48 51 59 68 72 68 60 59 62 52 48 50 34
99 99 98 97 98 96 97 97 97 96 97 94 88 83 60 54 38 28 19 9 4 6 6 4 4 4 4 7 13 18 47 39 49 48 52 58 54 43 39 46 63 68 72 71 66 50 47
96 96 98 98 98 97 98 97 97 97 95 94 86 73 68 59 45 36 24 12 7 5 7 4 4 4 4 4 6 15 22 50 45 64 65 56 56 53 48 39 36 35 42 52 62 56 54
98 98 98 96 98 97 97 97 97 96 97 95 94 84 73 62 46 42 28 16 10 6 7 6 5 4 4 4 4 8 20 32 50 47 61 75 68 56 48 44 40 38 36 35 33 28 28
99 98 99 98 98 97 96 97 97 97 95 94 79 78 76 59 46 48 32 23 11 7 7 8 6 5 5 5 4 5 10 25 40 44 59 70 66 68 70 62 53 44 40 38 36 35 39

GFSGBSN_500_rhum_081.txt.gz
RH
94 94 81 61 62 58 68 71 74 68 64 53 46 47 38 27 22 15 8 6 4 5 6 14 31 39 27 31 38 48 74 100 71 95 77 95 64 58 100 75 91 96 97 98 88 78 86
35 84 97 92 64 61 59 77 77 74 68 58 49 50 36 25 24 15 8 6 4 5 7 17 38 24 25 37 34 52 95 100 80 85 88 100 57 66 96 100 88 88 95 96 99 96 62
3 8 43 96 87 63 69 84 82 81 72 65 53 53 34 29 22 15 8 5 4 5 8 22 28 24 29 42 42 58 86 100 96 95 92 86 54 74 92 92 98 97 100 92 99 88 96
4 4 4 34 92 74 70 82 88 84 76 70 57 53 36 29 22 15 8 5 5 5 11 31 23 25 32 51 38 76 84 100 81 92 99 68 56 60 100 98 98 100 96 99 98 98 93
6 6 4 4 28 91 68 76 97 88 83 72 61 54 41 29 22 13 8 5 5 6 12 29 24 26 39 50 22 74 93 84 100 97 87 82 66 65 97 100 100 95 99 98 98 98 84
4 3 4 3 4 19 93 73 93 95 92 75 66 55 44 30 24 12 7 5 5 6 18 28 32 23 23 28 22 81 98 91 92 80 84 97 66 98 95 99 99 96 95 97 97 95 97
6 5 4 3 4 4 30 86 79 100 99 79 71 60 48 33 25 12 6 5 5 8 22 28 28 28 23 15 30 99 92 96 68 64 96 99 86 87 83 100 98 96 100 100 100 98 83
15 9 8 6 4 4 4 93 86 100 99 84 76 63 51 37 25 12 6 5 6 7 24 31 33 30 37 20 46 93 79 71 64 71 100 100 100 68 96 100 97 97 97 99 100 98 94
13 15 13 10 8 4 4 45 98 98 98 92 81 67 59 41 24 12 6 5 5 9 22 28 38 36 41 54 47 75 75 61 47 53 98 100 100 100 94 87 89 84 85 90 92 96 99
5 4 7 8 6 6 4 6 99 92 98 95 89 71 66 37 22 11 6 5 5 9 22 33 39 47 42 61 67 56 55 58 57 47 100 100 100 100 96 100 98 86 100 100 94 93 98
6 4 4 4 4 4 5 4 97 98 97 95 94 73 63 35 22 11 6 5 5 8 16 30 42 51 47 50 97 100 53 42 47 60 95 95 100 100 100 95 95 100 80 89 97 97 98
11 5 4 4 3 3 4 3 85 97 98 96 92 73 61 36 20 10 6 5 5 7 16 25 42 43 53 58 94 90 86 34 85 93 100 87 96 98 91 91 84 85 80 74 90 96 94
4 5 4 4 4 3 4 3 78 98 97 96 91 76 60 35 21 10 5 4 5 6 16 29 42 40 54 58 52 93 60 60 85 99 76 79 97 100 100 94 92 80 89 85 100 100 98
3 3 3 2 3 3 4 4 86 98 97 96 90 80 59 34 21 10 5 4 5 6 10 35 36 33 19 55 58 73 89 89 61 74 73 100 100 94 99 98 81 73 98 95 99 94 80
4 2 2 3 3 4 4 4 91 97 97 96 89 80 61 35 22 9 5 4 4 6 8 24 37 23 26 36 50 50 50 73 52 89 100 100 99 91 88 87 87 88 87 74 78 82 83
27 4 2 3 4 4 4 8 95 98 97 96 90 85 60 36 22 8 5 4 4 5 7 18 38 34 46 49 39 36 50 69 58 48 93 95 100 100 91 92 98 97 90 88 88 89 83
44 7 4 4 5 4 4 50 98 98 97 96 92 84 58 37 22 8 5 4 4 4 7 10 33 49 47 59 72 62 62 43 31 34 62 69 80 84 87 74 90 99 93 96 100 100 91
100 93 5 25 3 19 4 85 98 98 99 96 91 76 58 34 21 8 5 4 4 4 4 8 13 45 57 62 74 98 91 93 88 56 36 38 56 62 89 90 81 83 98 99 100 100 89
100 17 8 41 100 46 36 97 98 98 98 96 84 68 51 32 21 10 5 4 4 3 4 6 9 14 49 46 70 80 81 83 87 88 92 85 75 72 78 84 87 90 89 93 92 95 85
99 8 14 92 100 48 98 98 98 97 98 96 78 65 44 32 21 10 5 4 4 3 3 4 7 9 16 29 41 54 68 68 58 64 68 79 88 91 95 94 93 95 99 97 89 85 98
43 9 36 97 63 98 98 99 98 98 98 96 71 61 43 33 22 11 5 4 4 4 3 3 3 7 11 17 21 34 42 36 34 41 57 82 92 92 99 100 100 100 100 91 81 96 84
10 66 95 100 100 97 99 98 98 97 96 96 72 67 45 35 22 11 5 7 4 4 4 4 3 4 10 14 16 22 32 41 52 57 68 77 99 100 96 89 78 92 99 96 90 89 85
14 43 99 100 98 97 99 98 97 98 97 96 88 76 55 38 24 12 6 8 4 4 4 4 4 4 5 12 15 17 23 35 52 65 78 93 98 100 100 99 93 86 87 80 83 79 75
7 97 100 96 99 99 98 98 97 96 98 94 93 82 66 42 26 14 6 6 7 4 4 5 4 4 4 5 13 21 19 24 30 52 69 77 71 72 83 82 80 87 78 75 71 65 60
7 99 96 100 99 98 98 97 97 97 96 94 93 82 67 44 28 15 8 5 8 4 4 5 6 4 4 4 6 13 18 26 33 34 48 59 72 79 69 64 58 62 68 66 69 66 59
12 99 99 97 100 99 97 97 97 97 96 90 92 91 60 48 32 19 11 5 6 6 5 5 6 6 5 4 4 7 13 19 33 36 39 48 55 50 47 45 42 47 66 88 76 60 59
90 98 98 99 98 99 97 97 98 97 96 97 95 90 65 55 36 25 14 9 6 7 7 5 7 7 6 6 5 5 7 14 24 29 39 48 46 47 51 45 42 43 41 41 49 53 63
97 99 99 99 98 98 99 97 97 98 97 98 96 94 92 61 42 33 20 13 9 6 9 8 7 8 8 8 7 6 5 7 11 18 26 30 39 51 46 43 47 51 46 50 43 41 40
100 100 100 99 99 96 98 98 97 97 98 98 97 98 83 62 46 41 27 20 11 9 8 9 8 7 9 9 9 8 7 6 6 8 19 24 31 40 57 65 66 50 55 56 49 46 44

GFSGBSN_500_rhum_084.txt.gz
RH
3 3 3 3 12 47 81 93 70 68 78 82 79 75 72 59 54 34 25 16 8 7 6 4 6 14 12 18 26 27 62 76 89 82 100 82 100 74 68 100 73 84 94 88 98 85 99
6 2 3 3 4 8 17 72 84 81 70 87 82 84 73 64 57 37 25 15 9 7 6 4 7 14 13 17 32 48 85 100 91 70 97 98 100 80 63 98 69 89 92 87 99 85 98
14 10 6 6 5 3 4 19 50 86 88 97 83 95 78 68 62 39 27 16 9 8 5 5 11 14 16 18 28 59 99 100 89 77 84 100 100 88 67 91 73 89 99 96 97 92 98
17 16 10 8 8 9 4 4 20 25 91 93 98 94 86 73 65 42 29 17 10 7 5 6 17 17 19 16 14 58 100 89 88 81 100 93 98 70 73 91 70 94 100 100 98 98 88
24 20 22 13 11 10 9 6 8 10 39 97 100 94 90 78 68 46 32 17 11 7 5 7 20 25 28 13 11 48 80 100 99 86 100 78 98 83 84 100 89 97 100 96 96 97 98
32 29 27 24 17 12 10 9 8 6 12 83 99 99 94 84 71 50 33 16 11 6 5 10 20 30 43 19 10 59 76 82 90 100 97 87 95 81 99 96 95 90 96 97 97 98 93
36 33 29 27 23 17 11 11 10 6 9 38 99 97 97 91 74 55 31 17 11 5 5 14 22 35 38 34 32 74 67 71 72 91 100 94 98 83 98 100 86 93 84 94 100 98 98
41 37 28 24 16 16 16 8 7 8 10 22 72 97 97 94 77 56 24 17 9 5 5 17 24 43 38 69 35 71 77 71 59 59 94 90 68 99 90 90 96 98 94 98 100 98 97
46 44 28 21 17 11 8 5 4 5 5 19 42 96 97 94 79 43 23 16 8 5 7 20 28 47 47 70 68 34 74 78 53 65 78 100 68 100 86 87 100 80 90 92 99 100 99
15 17 20 21 13 11 8 5 4 4 5 15 24 94 98 90 76 37 22 13 7 5 7 21 30 46 58 83 96 51 39 52 52 79 91 100 88 90 100 93 100 97 100 100 100 100 99
11 10 9 8 12 9 9 6 4 4 7 15 17 90 98 84 76 35 20 12 6 5 8 28 33 45 63 65 78 100 49 54 40 48 97 99 100 99 80 100 100 100 100 99 100 100 98
8 8 7 6 6 6 9 7 5 5 4 19 26 79 97 84 71 33 20 9 5 6 8 24 36 43 46 57 70 59 60 48 45 48 94 96 100 85 81 99 100 94 93 90 94 97 90
51 46 28 14 3 4 5 7 6 6 5 11 32 80 97 82 65 30 19 7 5 5 7 23 36 24 36 59 57 41 33 48 46 62 92 99 100 100 87 76 90 100 96 92 98 96 97
71 79 78 12 8 3 4 8 7 5 4 10 26 94 97 86 53 28 16 6 4 5 6 23 31 27 29 51 65 58 92 100 63 61 97 100 100 100 100 98 98 90 91 81 84 93 91
100 100 86 69 21 4 4 7 8 6 4 8 29 93 98 87 48 27 12 5 4 5 6 14 29 36 40 24 44 79 46 90 57 73 87 94 92 99 91 100 89 72 53 75 80 99 100
100 82 97 99 62 6 3 4 9 8 5 7 38 96 98 86 44 24 9 4 4 5 5 10 31 39 42 50 35 42 36 61 98 98 100 96 96 71 67 66 67 66 73 100 98 100 97
76 99 100 100 100 6 3 3 15 6 6 8 62 97 96 79 40 18 6 4 4 4 4 7 27 46 40 55 64 46 44 68 98 99 99 100 98 86 81 81 85 91 83 82 77 75 70
73 100 100 100 100 16 52 71 17 4 4 27 78 97 93 67 34 13 5 4 4 4 4 6 16 44 55 61 67 50 34 39 57 60 77 68 71 69 67 61 69 78 81 85 86 86 80
69 100 100 100 96 78 100 100 72 4 11 56 93 98 83 58 31 10 4 4 3 3 3 4 8 25 46 59 71 72 61 34 29 33 56 60 64 61 51 72 81 72 79 83 83 83 83
82 100 100 62 66 100 98 100 84 14 40 90 97 97 74 47 25 8 4 4 4 3 3 4 6 8 22 43 78 77 74 74 75 76 64 56 67 78 83 86 87 87 77 65 76 85 93
94 100 65 35 100 100 100 96 21 32 92 100 98 94 71 40 23 7 4 5 4 3 3 4 5 6 11 20 38 55 71 70 65 62 54 60 75 81 87 88 85 90 90 84 82 93 80
62 21 62 100 100 100 93 14 71 96 98 98 98 77 55 35 21 7 4 4 4 4 3 3 4 5 7 10 16 27 38 47 50 53 51 63 73 92 92 89 90 94 95 96 96 90 80
44 51 86 100 100 100 80 91 95 98 98 98 98 71 48 34 22 7 6 4 5 5 4 4 4 4 6 8 11 14 21 27 36 48 62 79 88 90 88 87 82 87 84 77 77 89 95
37 63 96 100 100 96 88 98 98 98 98 98 88 62 50 35 22 8 7 4 5 6 5 4 4 4 4 4 7 11 15 17 23 31 48 57 70 73 81 80 75 82 90 86 82 71 74
47 66 100 100 99 97 98 98 99 98 97 97 83 77 51 36 23 8 6 7 4 6 7 6 6 5 5 4 5 7 12 16 19 25 30 35 41 47 48 53 66 75 74 78 79 76 73
56 89 98 100 98 98 98 99 97 98 97 98 90 88 52 38 24 10 5 8 5 5 8 8 7 7 6 6 6 6 8 8 12 18 25 29 32 31 36 39 43 47 49 59 68 68 77
73 98 100 99 99 99 98 98 98 97 97 97 96 94 53 39 24 14 5 6 7 6 8 10 8 9 8 7 7 7 7 8 8 9 11 15 23 28 31 32 37 38 36 37 38 44 54
97 98 98 99 97 100 95 98 98 97 99 96 96 94 56 42 27 17 9 6 6 8 9 8 10 10 10 9 9 9 8 8 7 7 8 10 12 16 19 27 36 33 37 45 48 44 43
95 98 98 100 99 98 98 96 97 98 97 96 96 92 60 47 31 22 13 9 7 7 11 10 10 10 11 11 11 11 10 10 10 9 9 9 9 11 15 17 21 28 44 46 44 38 39

GFSGBSN_500_rhum_087.txt.gz
RH
24 22 18 16 18 11 8 7 6 6 12 76 88 89 88 90 91 86 74 67 47 33 24 19 11 6 5 11 11 10 14 63 80 83 69 99 73 100 100 77 69 32 42 94 98 100 77
24 29 28 24 19 18 15 8 7 6 6 15 51 82 79 96 97 90 78 73 52 41 29 18 9 6 8 13 12 9 67 74 77 76 96 88 74 100 100 79 50 34 42 98 100 98 90
22 19 17 24 31 26 21 20 14 9 6 7 26 33 81 94 97 94 80 75 55 50 30 16 8 7 14 14 14 10 81 100 72 73 89 74 89 98 92 83 65 82 70 100 100 97 87
20 19 18 20 27 35 30 25 20 18 12 6 10 28 56 88 97 95 83 71 67 52 26 14 8 11 17 17 20 44 79 58 77 83 84 92 100 96 78 75 83 99 90 99 97 96 98
22 22 22 22 30 39 37 33 27 22 19 14 9 28 39 79 95 93 91 70 80 46 23 12 9 14 21 20 29 54 71 61 63 70 69 88 100 97 74 68 81 100 89 98 99 93 95
36 25 32 44 43 45 39 30 30 26 22 17 11 18 44 54 88 94 95 78 81 39 20 11 11 15 23 27 34 36 70 63 81 100 90 84 100 84 74 72 82 93 70 90 100 98 98
46 45 32 50 60 54 48 41 30 25 19 20 12 7 24 44 76 92 96 89 66 39 19 9 9 20 26 40 40 45 63 68 72 96 100 73 100 100 63 64 86 92 76 100 99 98 100
63 45 32 36 41 55 54 46 39 26 21 13 11 5 21 36 53 87 98 86 72 36 18 10 12 23 29 53 56 37 64 56 67 80 73 82 94 100 95 76 92 97 97 100 99 100 98
49 35 25 20 18 19 21 26 26 23 18 13 7 5 18 26 48 84 97 89 65 37 14 9 14 23 29 61 75 43 67 60 60 76 96 85 89 94 100 96 97 100 100 92 96 99 98
38 24 15 10 8 8 8 11 14 19 16 13 6 6 20 27 35 86 98 84 65 31 10 12 17 30 36 58 87 47 64 69 45 44 100 78 93 81 82 92 98 89 90 94 98 99 100
20 10 6 12 22 25 29 12 10 12 15 12 7 5 14 60 33 94 98 84 54 23 9 16 17 25 37 49 68 86 42 56 52 67 100 80 97 100 84 79 100 80 100 80 93 94 99
7 10 46 61 64 70 66 53 15 10 10 11 8 4 4 18 68 94 98 74 43 14 11 12 16 25 41 55 54 48 55 46 43 64 99 99 90 98 100 99 83 100 98 80 92 94 96
12 55 81 76 69 70 66 49 25 9 10 9 8 5 4 14 85 94 96 59 31 13 8 11 19 30 29 58 38 33 40 36 39 70 92 95 88 91 93 76 93 100 100 98 99 100 96
53 92 95 100 100 100 74 25 14 12 10 8 7 6 17 54 97 97 97 43 29 8 8 11 24 36 28 57 54 29 35 32 38 86 98 100 93 80 87 99 100 94 81 94 96 91 94
92 100 100 90 96 79 96 91 10 11 8 8 6 6 6 32 87 100 85 36 19 6 8 11 24 46 41 40 49 45 33 33 82 100 100 100 92 73 63 66 96 98 61 77 80 99 87
100 100 100 100 85 98 100 99 15 7 8 6 10 6 6 39 89 100 66 29 10 5 6 11 26 50 53 38 45 45 41 44 91 100 95 100 100 79 91 80 93 77 92 83 74 94 96
100 98 100 86 98 100 100 60 13 6 6 14 7 7 8 52 96 97 49 19 6 4 6 9 24 48 57 40 34 36 38 53 91 81 100 100 100 100 100 100 86 68 68 77 98 91 86
100 76 78 100 100 100 100 80 13 11 70 29 9 8 20 80 91 79 36 13 4 4 5 8 21 48 64 53 20 32 46 53 99 94 92 90 89 85 80 77 83 88 89 97 96 100 85
100 66 91 100 100 99 99 49 15 90 76 40 25 23 48 93 95 59 20 6 4 4 4 6 12 43 53 55 36 20 45 76 59 54 64 71 67 55 45 41 59 76 74 81 81 85 77
72 69 92 100 98 100 82 50 100 70 30 37 27 34 70 98 86 37 14 4 4 3 4 5 9 27 41 49 60 29 38 44 26 23 22 26 33 28 32 30 35 57 59 66 65 67 70
30 65 84 74 94 96 58 100 100 83 20 11 13 30 95 98 69 26 8 4 4 3 4 4 6 8 20 33 51 66 60 58 55 53 64 60 51 47 64 66 55 56 60 65 71 76 78
40 77 67 96 88 70 100 100 100 100 73 95 56 91 98 90 45 17 5 4 4 4 4 4 4 6 8 16 41 44 56 67 64 62 60 53 42 39 52 71 76 70 66 68 73 75 75
44 80 100 100 100 100 100 99 100 96 100 67 74 96 98 68 32 10 4 4 4 4 4 4 4 4 5 7 10 17 32 36 42 47 47 46 44 40 48 72 78 71 68 65 65 67 64
35 60 86 96 100 100 100 100 93 100 60 76 97 98 86 47 21 7 4 4 4 4 4 4 4 5 5 4 7 9 12 18 24 29 32 37 42 50 55 66 59 76 74 66 64 59 55
39 76 91 96 100 100 100 98 96 88 70 95 99 97 58 29 15 6 4 5 5 5 6 6 5 5 5 5 5 6 8 10 12 18 23 28 35 38 44 64 58 55 54 59 63 67 68
44 66 96 99 100 98 78 72 98 85 94 97 97 89 41 27 14 6 4 5 6 6 7 7 6 7 6 6 6 6 6 6 7 7 12 14 21 27 35 38 41 43 43 46 44 39 54
74 95 96 98 100 100 100 99 90 96 97 95 97 66 40 27 13 6 4 4 7 8 9 9 9 8 8 8 8 7 7 7 7 7 6 7 9 13 15 19 23 27 34 41 31 31 35
82 96 99 99 99 97 94 95 96 98 96 98 94 61 40 25 14 6 6 5 6 8 10 10 11 11 10 10 11 10 9 9 9 8 8 8 7 7 9 12 24 19 25 28 28 35 37
84 98 98 98 98 99 100 99 94 97 98 96 94 56 41 27 16 7 6 7 8 8 9 10 11 12 13 14 13 14 13 13 12 12 11 11 10 9 8 8 7 8 9 13 18 24 30

GFSGBSN_500_rhum_090.txt.gz
RH
29 32 35 33 24 20 16 19 25 28 29 26 13 10 9 11 12 34 93 96 94 95 84 64 46 45 25 12 8 9 11 8 15 49 62 74 67 90 82 99 100 100 74 43 36 93 95
33 38 41 27 27 34 28 16 18 30 34 30 28 20 12 11 16 23 67 85 95 95 91 64 58 36 21 9 10 13 10 10 36 54 56 70 99 80 91 100 100 94 62 37 33 85 97
36 42 45 36 24 31 42 27 19 23 37 37 32 28 23 15 14 44 49 84 92 94 96 80 62 31 16 11 14 15 14 30 47 30 37 91 100 75 100 100 94 88 71 37 44 90 95
45 48 51 49 40 28 43 38 28 32 41 40 35 30 24 23 16 89 54 77 93 96 98 90 49 28 14 14 20 15 18 48 42 46 67 86 72 91 95 93 94 90 84 56 53 87 98
54 54 54 54 50 34 44 61 44 37 42 43 37 34 24 21 17 97 73 67 97 96 100 80 41 23 16 18 24 23 20 46 51 51 65 71 73 95 100 87 97 93 80 72 60 100 97
61 60 60 63 54 46 52 50 48 48 51 51 47 37 31 20 15 58 99 58 90 99 99 73 39 19 19 22 28 31 25 44 62 53 81 100 100 99 100 93 94 76 81 73 67 99 99
67 67 70 72 73 69 76 70 50 51 55 57 54 52 36 23 14 12 64 95 97 95 94 76 36 16 20 32 34 40 36 54 72 54 70 100 100 100 82 90 96 93 77 84 95 99 99
74 77 81 74 69 61 53 32 33 24 34 51 52 52 48 28 18 29 92 100 97 91 99 68 25 20 25 36 36 50 38 63 59 68 58 77 100 100 47 87 86 88 73 99 100 100 100
82 84 81 61 43 32 24 20 17 15 13 17 34 40 35 37 24 10 78 88 99 94 100 53 22 22 32 36 40 61 50 68 51 74 50 94 99 100 100 91 93 83 77 76 100 98 99
97 99 78 46 26 14 8 8 8 8 8 8 11 28 29 32 22 29 97 95 98 93 85 42 23 28 35 30 52 58 56 73 60 52 59 78 79 98 100 93 100 90 84 90 94 100 99
98 88 60 24 9 12 34 50 60 53 41 33 8 15 23 27 18 42 100 99 92 98 100 28 22 28 32 29 52 72 48 66 53 44 95 90 72 99 100 100 97 95 74 83 79 91 97
94 80 27 8 40 78 93 100 100 95 75 51 17 10 18 22 14 81 99 98 100 100 87 29 20 31 34 35 40 69 50 58 50 60 85 74 70 85 100 86 86 88 93 78 80 91 96
92 30 9 48 78 98 100 91 85 99 75 48 42 9 14 18 14 31 75 100 100 99 64 26 21 37 40 44 31 32 35 45 42 94 96 81 100 95 100 98 100 71 100 92 88 98 93
54 9 48 81 100 100 96 99 96 97 69 38 38 10 12 13 10 20 99 98 100 93 61 22 24 41 42 37 24 28 31 38 69 99 100 69 81 100 87 88 68 100 100 99 90 80 76
12 37 89 89 100 100 100 96 95 91 69 14 17 10 11 10 21 94 99 97 98 90 36 20 26 44 44 25 26 29 33 52 84 100 100 88 87 83 62 87 97 96 100 92 100 98 100
17 95 86 99 100 94 96 100 100 100 64 19 16 10 13 35 65 99 99 100 99 48 23 19 28 49 46 23 27 31 61 80 100 100 97 93 82 99 89 99 89 91 80 93 96 95 89
60 100 88 92 82 69 85 100 100 100 73 19 11 9 59 26 29 70 97 100 78 32 15 19 24 46 52 23 25 35 67 92 96 100 97 90 92 69 74 88 97 87 92 85 91 93 80
95 98 98 97 71 94 100 100 100 100 59 13 9 14 24 6 34 76 98 100 34 15 12 18 17 50 58 26 26 39 60 81 79 93 100 80 60 71 70 79 86 82 71 72 64 68 85
100 100 100 81 77 100 99 100 100 99 22 9 9 33 18 60 64 93 100 54 20 9 10 12 14 52 70 25 30 28 41 80 71 85 91 85 86 83 64 58 55 50 48 63 74 86 86
100 96 93 53 80 92 78 100 79 55 9 8 41 21 25 35 67 100 88 27 8 6 9 9 12 42 57 35 23 29 31 75 64 60 67 53 35 32 36 31 31 42 49 54 51 66 73
38 10 46 60 92 99 100 100 39 9 10 22 13 26 44 40 99 98 50 15 7 6 8 8 11 26 46 64 38 26 32 58 42 29 25 48 48 41 45 46 44 28 36 55 58 59 60
5 14 49 68 100 86 98 100 9 18 43 32 16 41 85 100 99 65 22 8 6 6 7 5 7 14 28 55 72 38 40 45 33 40 53 57 46 37 32 40 50 51 47 48 45 47 46
33 42 69 100 100 52 94 42 44 62 31 46 90 99 97 98 87 46 14 6 5 5 4 4 4 6 11 16 39 64 65 62 61 56 55 52 51 43 36 34 46 52 52 49 49 47 46
72 88 100 100 100 97 42 88 66 69 80 90 100 96 88 97 78 26 6 5 5 5 4 4 4 4 5 6 10 15 23 36 50 57 53 53 48 46 43 35 34 62 54 56 51 47 47
79 93 100 100 93 60 90 85 65 61 58 98 100 98 99 92 35 11 6 5 5 5 5 4 4 4 4 4 5 5 6 8 9 12 19 22 25 27 32 36 33 45 42 47 52 55 55
57 69 75 89 88 79 82 39 56 68 99 94 75 93 100 74 22 8 6 6 5 6 6 6 6 6 5 5 5 5 5 5 5 5 6 6 11 13 24 27 32 30 34 33 33 34 38
40 53 69 67 75 85 74 68 90 69 64 69 88 95 85 37 14 6 6 6 6 7 7 7 8 8 7 7 7 7 6 6 6 6 5 5 6 6 6 8 12 19 30 27 30 26 27
44 53 53 80 96 100 100 97 92 92 91 93 99 94 58 30 11 5 5 6 7 8 9 9 10 10 10 10 10 10 10 9 9 9 8 8 7 7 6 6 9 7 10 15 15 15 22
66 47 56 82 91 80 98 96 97 96 94 96 99 85 42 22 8 5 5 7 8 10 11 12 13 14 14 15 15 14 14 14 15 14 14 13 13 13 13 12 11 11 10 8 8 7 8

GFSGBSN_500_rhum_096.txt.gz
RH
43 42 45 49 54 55 58 62 62 60 64 62 61 57 51 36 33 46 38 32 36 35 30 25 23 97 91 80 94 93 85 62 39 24 15 11 7 6 5 10 25 36 43 41 42 39 73
42 42 46 52 59 62 66 64 59 55 51 59 65 68 62 56 41 45 50 44 38 36 33 24 22 41 93 99 95 95 85 42 19 15 12 10 10 9 8 16 35 69 65 59 67 62 61
46 51 54 59 68 70 64 63 64 65 72 75 76 74 75 75 63 50 57 54 45 36 32 24 19 20 85 100 99 94 68 22 19 15 14 16 20 18 17 74 85 71 65 86 81 75 69
53 52 57 60 64 65 66 63 61 66 81 96 94 84 84 85 74 57 59 56 54 42 35 26 18 16 53 100 95 93 43 21 20 20 26 28 27 31 49 57 67 85 94 79 83 86 84
61 64 68 73 70 62 61 65 66 72 82 100 100 97 85 92 87 78 82 78 54 52 45 33 16 19 100 96 97 80 26 25 27 26 40 34 48 47 74 71 79 100 100 100 98 96 79
70 70 74 71 68 70 73 76 84 88 78 77 100 100 97 89 91 86 72 65 54 54 54 45 17 45 100 99 95 41 30 32 33 30 43 43 64 96 84 81 99 99 90 99 100 87 83
78 83 85 85 84 84 91 95 92 91 93 92 100 100 100 93 89 56 43 42 47 50 53 44 24 31 100 98 82 35 37 45 39 32 60 60 74 76 99 73 100 100 93 99 100 79 76
90 98 97 97 98 99 99 100 100 100 77 31 14 18 29 50 69 39 31 42 33 42 49 40 25 73 99 96 42 36 48 56 41 36 51 66 75 93 96 70 74 96 92 90 100 100 61
97 98 98 99 100 100 100 100 84 31 29 39 42 36 14 8 16 32 24 26 30 33 45 34 37 97 98 85 38 53 67 61 47 54 41 43 63 97 77 79 92 89 100 99 100 94 82
100 100 99 100 100 100 97 43 32 73 79 96 99 95 93 37 15 9 14 20 19 21 37 36 66 99 89 42 55 67 80 51 63 62 47 36 66 84 89 87 100 86 90 95 100 98 99
100 100 100 100 100 89 53 74 100 95 100 82 75 76 98 84 31 15 10 11 14 18 32 52 98 97 48 31 20 43 59 67 60 49 44 41 48 76 73 92 100 91 69 98 100 84 100
100 97 99 100 81 84 100 100 100 100 100 78 91 60 66 53 41 26 13 9 10 20 43 91 99 62 28 18 20 40 55 57 42 45 42 44 76 99 93 90 100 94 74 100 98 97 95
100 99 98 62 74 100 100 93 100 82 93 71 92 98 64 54 60 40 16 10 12 17 63 100 91 44 20 24 28 31 48 54 77 71 45 49 90 98 86 100 100 100 76 87 75 75 100
100 77 36 100 69 100 97 98 99 70 60 75 79 64 63 47 63 48 24 10 13 30 100 100 64 40 23 28 38 63 67 89 85 82 49 56 95 100 80 100 100 97 56 51 58 60 97
57 20 50 100 76 86 97 100 100 72 87 100 100 100 76 55 75 48 19 11 14 87 100 96 43 39 26 33 37 65 83 98 67 62 68 89 100 80 100 100 100 88 57 50 57 54 91
32 28 42 96 92 98 100 97 82 77 82 96 100 84 67 66 61 21 11 13 76 100 100 38 53 29 28 44 71 82 71 62 74 67 70 99 100 100 98 80 95 82 64 51 44 47 60
66 64 35 38 83 100 80 67 98 95 83 78 67 61 40 42 21 11 12 63 100 100 77 31 50 27 32 49 82 90 67 82 78 83 80 100 100 100 97 97 94 96 83 74 52 40 47
82 82 53 51 52 61 84 100 95 86 79 76 70 30 19 15 12 13 44 100 100 99 28 36 61 29 35 38 80 75 59 92 100 86 76 92 94 99 99 100 100 100 93 73 62 54 68
73 97 94 55 74 99 100 95 100 100 83 38 41 15 12 11 13 42 100 100 100 53 25 46 65 30 31 65 86 90 74 72 72 68 65 73 83 72 77 82 84 87 99 77 72 68 66
88 82 100 74 56 93 100 100 100 93 38 14 12 11 12 18 62 100 100 100 98 25 28 52 54 27 38 55 67 73 80 72 81 79 73 53 51 58 56 53 55 49 57 69 75 62 52
78 100 100 67 54 76 87 80 77 16 8 12 11 15 42 99 100 100 100 100 35 24 26 50 30 32 34 38 59 67 61 62 63 47 50 50 34 31 36 47 44 34 32 34 52 61 53
79 100 55 37 48 38 24 8 8 9 13 12 18 59 92 100 100 100 100 37 20 19 20 42 34 32 33 33 48 62 61 55 38 31 46 40 41 48 50 34 33 41 40 35 36 36 45
51 32 10 14 12 9 8 11 12 20 18 29 66 99 100 100 100 100 52 15 11 13 14 25 31 28 26 26 29 32 46 46 50 34 48 45 37 32 30 34 30 19 27 28 30 29 28
16 4 4 6 8 10 16 26 21 28 45 73 88 91 98 100 100 52 15 9 7 7 9 15 28 35 36 34 29 24 25 38 38 39 42 34 32 38 41 37 32 33 31 30 32 30 25
3 4 6 12 19 32 27 18 21 40 58 83 84 96 99 93 54 13 7 5 5 5 5 6 10 17 25 38 25 19 22 23 25 27 30 33 35 31 34 32 33 35 29 27 25 26 25
6 7 9 14 28 26 22 21 26 43 71 80 89 98 99 56 11 7 6 5 4 4 4 4 5 5 6 6 8 11 13 13 11 11 9 10 12 13 15 15 17 17 18 17 18 20 23
14 11 21 32 38 39 32 31 41 70 75 71 84 85 86 29 6 6 5 5 5 5 6 6 6 6 7 7 7 7 7 8 7 6 5 6 6 6 6 6 6 6 7 7 10 10 8
8 19 26 27 28 33 37 40 50 72 76 72 80 76 65 24 6 6 6 6 7 8 8 9 9 10 10 10 12 12 13 13 13 14 14 13 12 12 10 10 10 9 9 8 7 6 6
6 11 22 22 26 28 37 40 50 61 68 77 81 75 45 15 7 6 7 8 9 10 11 12 14 14 16 17 19 19 19 20 20 19 18 18 18 18 18 17 18 18 18 17 17 17 17

GFSGBSN_500_rhum_099.txt.gz
RH
46 48 53 58 61 58 66 72 72 69 65 62 61 58 62 68 72 75 68 61 54 48 46 46 36 37 29 26 25 48 66 81 95 86 79 56 34 31 31 24 16 16 7 4 3 3 5
53 60 67 70 71 66 71 72 80 81 81 71 68 74 75 72 78 87 87 90 82 84 69 50 45 35 28 26 30 29 46 80 94 84 60 37 17 14 21 14 9 5 4 4 7 11 30
64 70 75 78 83 88 93 93 88 79 74 86 88 87 88 84 94 98 100 99 98 100 87 58 53 38 30 24 22 22 44 90 96 65 30 18 13 16 17 9 9 8 10 22 34 38 41
81 88 94 95 99 98 94 91 90 85 80 80 100 100 97 96 100 100 100 100 100 100 87 66 59 49 39 29 17 27 96 91 55 26 20 19 22 26 22 20 29 30 45 72 69 57 67
96 100 100 96 92 88 84 82 91 96 100 90 90 96 100 100 100 100 100 100 99 100 96 88 63 64 50 37 28 73 80 88 38 25 24 24 40 39 45 37 48 51 51 72 94 96 76
100 100 100 97 89 88 96 100 99 96 97 93 89 86 97 100 100 100 100 100 100 100 100 87 64 62 53 49 29 57 98 80 33 30 26 36 51 54 51 64 61 69 63 60 92 100 59
100 100 95 88 97 100 100 100 100 100 100 100 98 94 96 100 100 100 100 100 97 95 93 56 52 56 46 35 30 98 96 47 38 39 29 54 55 58 78 70 71 78 56 71 100 100 55
97 99 98 99 96 99 100 100 100 99 88 48 34 32 28 35 50 84 100 100 100 67 39 32 37 49 44 32 83 96 67 44 49 36 35 58 61 70 75 65 54 57 56 92 86 93 74
97 96 79 79 91 100 89 83 96 100 77 57 84 100 100 89 57 37 31 62 76 37 25 24 26 36 38 59 95 72 50 49 46 44 45 54 58 71 66 67 60 68 92 100 100 85 81
100 92 100 100 61 45 75 100 100 100 100 100 100 100 98 88 77 73 59 98 31 18 13 19 24 54 78 99 72 32 28 39 51 58 54 45 54 60 75 92 88 74 98 100 100 95 97
96 100 63 54 52 77 100 100 100 100 100 100 100 98 63 96 100 54 69 79 26 14 17 43 42 87 100 40 20 25 44 53 65 51 42 41 51 53 84 100 96 71 95 100 99 100 100
88 45 56 71 66 88 97 91 95 100 100 96 91 92 70 54 93 77 42 18 14 12 27 41 83 100 30 19 18 32 57 54 48 46 37 42 58 68 86 100 100 85 99 100 99 97 99
31 82 95 44 89 92 90 96 100 100 86 80 65 74 78 62 66 74 52 25 12 14 54 66 100 61 26 29 32 45 52 52 51 75 47 72 96 90 95 100 96 100 100 100 100 98 100
64 78 92 54 81 96 100 92 92 84 72 62 68 77 100 90 72 55 68 17 23 14 32 100 86 26 31 45 67 59 80 79 76 76 60 86 96 97 100 75 97 100 100 100 99 100 100
70 94 100 63 57 57 65 76 83 88 90 91 99 78 70 66 49 59 23 16 50 79 100 100 39 29 39 36 71 83 78 68 57 43 60 72 100 100 100 99 93 81 86 79 80 100 96
66 100 100 86 98 87 100 100 100 100 100 95 99 100 74 44 45 23 14 45 81 100 100 77 29 34 59 78 71 68 49 39 58 75 99 100 98 100 100 96 85 65 52 53 52 94 97
76 100 99 100 74 90 100 99 99 95 98 67 59 34 32 31 23 17 38 100 100 100 81 50 30 42 57 93 65 56 56 65 64 94 90 94 100 100 100 98 93 63 52 48 52 74 100
80 100 100 100 86 100 100 100 88 80 51 22 21 25 22 19 16 23 86 100 99 64 66 38 36 47 77 100 66 72 74 59 65 100 100 99 82 99 90 90 77 55 49 46 41 50 62
53 54 48 51 45 62 51 47 28 20 15 14 15 14 14 17 24 97 100 97 38 46 66 39 38 46 78 70 65 100 79 83 83 100 98 100 100 94 82 95 90 53 47 43 48 43 41
5 7 8 9 7 5 5 8 10 11 12 12 13 15 22 76 99 98 95 36 34 56 58 35 34 59 79 86 64 70 57 85 83 85 78 74 80 85 87 93 89 70 51 45 48 44 45
4 6 6 7 7 9 11 16 16 12 13 16 27 84 96 98 100 99 34 30 30 53 56 28 36 58 67 77 78 67 77 86 66 39 38 43 58 56 56 58 77 80 67 49 31 32 33
5 6 8 14 19 30 34 37 36 47 73 86 90 96 100 100 100 82 33 28 31 55 34 25 39 51 51 62 68 59 49 34 49 50 49 46 39 38 46 38 31 34 46 44 37 27 20
6 8 14 21 33 36 39 46 68 74 80 88 99 100 99 86 40 30 21 18 28 32 19 27 38 41 46 48 52 52 44 41 37 44 36 34 33 42 30 37 37 34 28 27 30 34 34
8 10 15 27 33 39 44 47 62 72 94 100 100 94 55 22 15 15 12 11 13 21 17 20 27 30 29 40 37 40 39 42 46 37 39 42 38 36 33 31 27 25 25 24 25 26 25
9 11 17 24 30 34 43 60 64 71 76 80 81 61 32 12 9 8 7 7 8 12 18 17 21 24 23 25 24 23 26 24 29 29 31 29 32 32 34 30 26 28 26 27 26 25 23
8 11 16 19 26 30 36 44 53 47 46 42 49 17 7 9 6 6 5 5 5 6 7 8 12 14 14 16 14 15 18 20 18 17 20 22 20 18 18 19 16 16 17 16 15 15 16
6 12 14 14 16 23 25 26 31 32 23 15 8 6 5 5 6 5 5 6 7 7 8 8 8 8 8 8 8 8 8 7 6 6 6 6 6 6 7 7 7 7 8 8 9 8 6
5 10 17 19 19 13 14 14 15 14 9 8 5 5 5 5 6 6 7 7 9 10 12 12 12 13 12 12 12 12 12 12 12 12 11 11 10 10 10 10 10 10 10 9 8 9 9
3 7 10 20 20 16 14 10 10 8 6 6 6 5 5 6 6 7 8 10 11 13 16 17 18 18 19 18 18 18 18 17 17 16 16 16 16 16 16 16 15 15 15 14 15 16 15

GFSGBSN_500_rhum_102.txt.gz
RH
57 69 77 84 91 95 97 96 96 96 97 97 96 93 96 98 96 92 89 93 95 89 87 79 72 61 55 49 43 36 31 28 28 28 50 52 71 65 56 49 44 47 39 41 45 43 43
68 80 87 96 98 97 97 96 96 97 98 99 100 98 96 99 98 99 99 100 100 92 100 100 91 76 71 69 46 39 30 28 27 25 30 67 56 46 41 31 25 22 21 20 20 20 19
78 91 97 97 96 96 96 97 90 99 100 100 100 98 100 97 98 99 99 99 99 98 100 100 99 100 100 94 59 44 34 28 21 28 68 68 56 43 32 22 18 16 15 12 11 8 6
99 98 97 98 98 97 100 100 100 100 100 100 100 96 96 100 98 100 100 99 100 98 99 100 100 100 100 92 66 50 39 31 22 55 65 62 49 27 23 18 19 17 14 14 15 24 30
99 97 96 91 92 92 92 87 84 85 87 84 100 98 98 100 100 100 100 100 100 100 97 100 100 100 92 94 81 61 46 37 31 36 69 66 41 26 22 32 31 32 38 27 41 46 47
97 94 80 75 67 89 87 93 81 79 62 53 68 100 100 92 100 100 100 100 100 100 99 100 99 100 100 93 70 62 56 36 54 94 79 53 33 25 35 38 49 52 40 37 39 74 95
95 94 86 85 78 100 100 86 77 72 100 100 100 100 100 90 92 94 100 100 100 100 100 100 100 98 97 74 56 46 48 55 74 74 53 42 31 36 44 45 41 46 40 43 60 92 61
99 98 100 94 88 100 77 65 83 100 100 100 97 100 99 100 84 93 79 100 100 94 100 100 100 98 67 50 48 42 43 65 78 56 46 32 34 49 44 47 37 34 35 53 76 88 57
100 100 70 88 97 40 66 93 100 100 89 86 100 100 100 100 100 85 83 95 100 100 96 98 93 62 33 38 46 63 80 80 50 38 25 30 53 50 52 49 44 44 50 88 94 82 79
100 58 70 100 81 47 71 90 99 92 83 82 78 100 99 100 99 95 100 99 78 96 99 67 49 34 36 73 95 92 66 47 35 28 35 48 53 50 54 74 56 72 77 90 96 96 100
57 39 100 100 78 46 44 66 74 73 80 96 64 96 80 69 86 97 100 100 94 57 88 25 23 52 90 98 67 39 30 35 44 57 48 47 49 46 91 75 75 98 99 96 85 100 99
50 64 98 100 82 68 64 68 79 66 82 84 76 84 72 100 100 98 100 100 80 30 84 80 71 99 44 25 17 21 34 53 48 42 42 46 51 54 86 89 83 90 93 96 95 100 100
56 84 100 100 91 100 100 98 76 74 61 66 59 76 59 82 91 74 79 48 20 90 67 74 100 66 30 35 33 43 51 48 48 58 54 48 62 68 96 97 100 100 100 100 100 99 100
50 83 100 93 91 100 99 100 86 77 62 59 57 72 58 65 67 36 17 34 100 83 99 100 89 39 50 49 61 73 57 46 77 84 95 86 86 92 100 89 100 99 97 100 100 100 100
13 16 35 62 96 99 96 72 99 83 71 74 45 55 51 51 47 76 100 87 64 100 100 97 31 38 71 87 81 68 55 79 84 87 100 100 99 100 93 93 92 93 94 100 100 98 99
6 5 7 9 10 12 14 22 42 54 59 41 32 33 37 30 72 86 86 61 100 100 100 58 41 61 84 81 63 53 51 76 81 94 99 96 97 100 93 73 93 76 75 94 98 100 99
9 11 18 22 18 13 13 12 13 13 17 23 26 25 18 17 62 82 63 69 85 100 60 37 60 86 74 56 46 47 57 85 100 100 98 100 100 97 69 78 72 51 62 92 97 100 100
12 17 29 33 34 34 29 17 14 14 13 13 13 12 13 42 84 70 77 96 100 67 35 46 82 80 60 69 42 52 78 98 100 100 96 100 100 97 85 59 52 50 45 60 84 88 85
12 20 30 38 53 56 53 56 59 45 43 48 58 54 68 90 91 99 92 95 58 35 46 66 84 82 76 81 81 79 98 100 100 100 98 97 80 96 94 81 61 52 45 46 63 60 55
10 15 29 38 57 67 80 93 98 99 98 99 100 96 99 88 82 34 34 49 45 36 47 74 60 60 75 86 95 91 91 99 99 100 100 98 72 85 79 68 48 36 32 38 45 46 44
10 11 20 30 39 55 66 72 70 82 76 63 47 39 54 58 31 28 34 54 43 35 53 57 59 36 53 64 78 89 73 57 50 55 75 87 94 97 81 52 48 37 39 40 32 38 50
8 10 11 20 20 22 39 40 36 25 30 22 19 15 15 18 22 25 31 30 20 26 36 37 49 46 38 53 67 44 48 58 52 42 36 47 50 52 67 78 69 69 70 56 41 51 49
6 9 8 12 16 12 10 12 11 6 6 6 6 7 8 9 14 19 19 16 14 20 25 31 43 44 53 48 34 37 39 39 36 36 42 41 33 39 34 28 30 47 55 54 50 48 40
4 8 8 8 9 9 6 5 6 5 4 4 5 5 5 6 8 10 12 12 13 15 18 23 28 36 38 34 29 34 40 39 37 39 35 34 29 26 30 31 29 26 24 26 27 25 27
6 7 8 7 9 6 6 5 5 4 4 4 4 6 6 7 6 7 8 8 10 13 15 16 19 21 24 24 22 21 21 22 29 29 28 26 30 28 26 24 22 25 25 25 24 23 22
3 8 8 8 8 8 5 5 4 4 4 4 4 6 7 8 9 8 8 8 8 9 9 11 11 13 16 16 16 17 18 19 17 15 16 16 17 20 18 16 16 15 18 18 16 13 15
3 4 10 9 8 8 8 5 4 3 4 4 5 6 7 9 10 10 11 11 11 10 10 9 9 9 9 8 8 8 8 8 7 7 7 7 7 7 7 7 7 7 8 9 9 7 6
5 3 6 12 11 10 6 6 4 4 4 4 5 5 7 8 10 12 14 16 16 15 14 14 14 14 13 13 12 12 11 11 10 10 10 9 9 9 9 8 8 9 8 8 8 9 9
6 3 3 6 10 13 12 8 7 4 4 4 4 5 6 7 8 11 13 14 17 18 19 19 19 19 18 18 17 16 16 16 15 14 14 14 14 14 13 13 13 13 13 13 12 12 12

GFSGBSN_500_rhum_105.txt.gz
RH
65 70 84 97 97 97 97 98 99 99 99 99 99 98 99 99 99 99 99 99 99 99 95 96 96 89 82 81 78 72 64 57 48 38 38 32 26 25 30 51 46 39 37 39 41 48 52
87 94 96 95 97 98 99 100 100 100 100 100 100 99 100 99 99 100 99 100 99 99 98 99 100 98 94 94 84 78 71 63 53 42 40 30 25 23 25 37 37 33 31 32 31 31 34
69 83 89 93 84 92 99 95 86 94 70 99 100 84 67 80 97 100 100 100 100 99 100 98 98 98 97 93 91 87 80 81 82 45 39 32 26 24 39 49 42 38 31 26 21 21 20
78 70 65 46 76 83 93 89 93 81 100 99 100 88 65 50 62 89 98 99 100 100 100 100 100 100 99 99 99 100 96 99 66 45 38 32 26 26 30 42 46 34 28 15 14 15 14
22 21 60 100 100 100 90 100 95 63 64 66 75 93 70 69 59 80 86 100 100 100 100 100 100 99 98 100 93 97 96 88 68 52 40 34 29 43 42 41 36 30 16 15 20 17 15
14 29 94 100 87 78 100 56 32 51 81 100 100 100 100 100 100 74 100 100 100 98 100 94 100 100 100 100 99 100 90 84 73 53 44 34 42 56 49 42 27 18 17 20 25 28 39
12 44 75 58 100 98 82 47 41 68 95 100 100 100 100 100 100 98 96 100 100 100 100 100 100 86 99 100 100 100 96 99 54 47 42 34 51 53 44 26 30 30 22 28 30 45 51
12 28 60 88 100 100 80 72 58 82 74 76 96 91 100 87 92 76 94 100 100 100 100 100 100 100 100 100 99 89 59 50 47 46 47 66 61 37 22 28 33 29 28 34 49 91 57
10 13 51 99 100 100 98 96 60 73 75 90 82 83 82 78 84 73 93 100 99 99 100 100 100 100 99 89 63 50 51 58 68 80 76 49 24 24 37 40 37 29 31 57 67 61 72
19 20 13 41 93 97 100 96 64 56 64 82 71 76 52 74 84 100 92 90 89 97 99 100 100 97 58 30 38 50 80 100 89 64 32 18 41 36 46 57 44 38 54 64 49 66 81
25 25 24 14 19 77 97 83 78 53 56 48 48 59 63 65 60 100 100 100 98 94 98 99 95 71 49 67 97 100 99 71 43 23 25 45 49 46 55 58 56 62 72 65 82 91 100
25 28 30 26 16 10 50 68 62 64 54 59 51 45 60 62 79 80 95 86 87 100 66 52 41 78 96 68 34 32 38 35 41 44 48 45 49 61 58 58 79 75 83 98 100 98 100
26 31 40 37 32 23 11 38 68 49 54 63 50 57 58 72 94 86 83 97 100 97 94 93 100 44 29 28 30 44 53 59 51 46 46 46 47 53 63 74 98 99 98 100 100 100 96
25 29 43 59 44 42 25 10 15 28 43 38 44 53 59 89 80 80 97 100 92 86 100 94 33 33 46 46 44 48 47 47 55 62 72 55 66 76 79 93 99 100 100 100 100 95 99
19 24 40 54 60 60 54 27 12 23 27 30 35 32 34 40 73 65 68 90 87 100 98 47 68 64 63 78 67 41 61 74 87 99 79 74 78 64 87 94 99 100 100 100 100 100 100
18 18 25 44 52 64 73 80 25 12 16 21 20 19 33 48 37 51 70 60 87 97 39 50 84 96 89 85 64 72 71 70 92 98 100 96 88 86 88 90 86 99 100 100 96 99 98
16 18 18 22 36 29 37 55 95 58 18 23 35 37 27 32 23 52 75 72 93 78 49 71 91 98 84 68 56 87 96 100 100 100 100 89 70 70 85 69 76 99 98 99 97 98 98
12 17 12 12 12 18 14 13 23 72 98 99 97 90 72 70 64 81 80 92 53 47 76 89 61 57 64 56 73 93 100 100 92 86 95 87 79 77 69 55 71 92 98 99 98 97 94
14 11 11 8 6 8 8 8 9 14 22 84 60 71 47 31 74 84 56 37 54 78 81 58 42 38 43 68 97 100 100 100 99 100 100 89 82 77 47 46 47 59 78 85 91 98 89
18 15 10 6 5 5 5 6 6 7 9 13 20 18 22 27 47 29 34 57 54 40 46 39 27 48 61 81 92 86 98 78 81 87 85 97 74 59 50 44 44 46 59 52 63 75 72
8 19 12 5 4 5 5 6 6 6 7 7 10 10 13 19 23 25 34 42 38 31 36 40 46 56 56 63 61 50 57 88 100 75 62 66 76 78 57 49 39 33 36 42 44 54 82
4 14 16 9 5 5 5 6 6 8 8 8 7 7 8 10 15 17 20 25 25 24 23 29 41 45 38 38 38 33 41 43 49 67 75 71 73 61 54 43 37 45 51 43 43 38 56
2 7 14 12 8 5 5 6 6 8 9 10 9 8 7 7 7 10 12 15 16 24 27 32 38 33 32 32 30 30 30 32 31 31 35 38 44 52 53 62 60 56 56 54 54 53 52
4 3 11 12 8 6 5 5 5 6 8 9 10 11 10 9 8 7 8 10 12 14 18 24 27 26 28 26 24 24 22 23 28 31 28 27 30 30 26 26 32 34 34 34 35 33 32
10 3 4 13 10 7 6 4 4 5 6 8 11 12 13 12 12 10 9 8 8 11 14 15 17 20 22 22 22 20 23 18 18 20 24 22 23 26 22 22 20 18 18 20 20 20 20
17 6 3 9 14 11 6 6 4 4 5 6 8 10 14 14 14 13 13 12 11 10 8 8 9 12 12 12 13 14 13 16 13 11 13 11 11 14 17 18 15 14 12 13 13 13 14
18 10 4 3 12 17 14 8 6 4 4 5 6 7 10 13 14 15 16 15 14 13 13 13 12 11 10 10 9 8 8 7 7 7 8 8 8 8 8 8 9 9 10 10 8 7 7
14 13 6 4 3 7 16 12 9 7 4 4 5 6 7 8 11 12 14 16 16 16 16 16 16 14 14 13 13 12 12 12 11 11 10 9 9 8 8 8 9 8 8 8 10 10 11
11 12 8 6 4 3 10 21 16 11 6 4 4 5 5 6 7 9 12 13 16 17 18 18 20 20 18 18 16 15 14 13 13 12 12 12 11 11 10 10 10 10 10 10 10 10 9

GFSGBSN_500_rhum_108.txt.gz
RH
5 6 7 6 7 14 45 67 80 98 100 93 99 100 100 100 100 99 100 100 99 99 99 99 100 96 95 90 86 85 82 75 68 64 63 58 56 53 44 37 33 23 24 33 37 35 31
10 12 13 9 11 62 99 100 100 96 96 97 95 88 96 80 93 98 100 100 100 100 100 98 100 97 98 100 92 94 92 88 83 77 72 68 64 58 48 40 35 24 20 25 30 31 27
13 17 15 10 10 62 100 100 100 100 94 87 62 52 64 86 100 98 95 97 98 99 99 100 100 97 100 100 100 100 94 90 86 78 72 69 68 64 48 39 30 24 32 46 41 35 28
17 16 17 18 13 40 78 92 100 97 72 44 41 50 52 82 100 95 80 50 41 96 99 100 98 100 100 100 100 99 96 93 79 70 67 68 69 61 48 34 26 26 33 46 38 27 20
14 15 20 22 12 53 100 98 100 84 56 61 84 71 73 100 97 84 62 47 36 82 100 100 99 100 100 98 99 99 100 74 72 69 64 72 67 52 40 31 27 24 23 32 29 22 18
10 19 23 25 15 56 100 100 100 70 76 83 100 100 100 100 100 66 52 74 88 97 100 100 100 100 100 95 100 96 96 100 83 74 71 70 63 47 36 34 40 37 36 33 28 24 17
12 16 31 32 17 36 100 100 82 69 70 64 58 100 100 95 55 95 89 100 100 100 100 100 100 96 98 100 100 100 100 78 72 73 70 66 53 42 35 30 35 47 40 20 21 15 11
8 9 31 40 23 14 68 92 74 56 75 70 51 72 85 72 80 78 97 100 100 100 100 100 100 100 100 100 100 92 80 77 71 73 65 50 45 40 41 52 53 26 17 23 23 17 27
6 6 27 46 28 12 47 65 44 50 57 60 64 70 71 37 40 39 73 100 100 100 100 100 100 100 100 100 95 95 90 74 64 55 48 47 48 59 55 30 20 31 26 21 28 42 53
6 6 16 46 34 10 30 49 43 44 47 43 52 51 67 90 66 27 83 100 100 100 98 98 100 100 86 80 83 84 68 57 53 56 69 75 58 30 21 32 44 32 24 36 42 51 57
5 6 9 31 43 14 10 30 38 47 48 48 51 45 52 100 73 72 90 91 99 100 100 95 98 91 79 62 59 52 50 58 84 86 66 36 23 37 44 47 37 37 51 52 68 77 87
5 6 7 17 49 20 13 22 32 45 58 62 50 41 70 99 74 77 75 89 100 94 90 98 94 78 61 51 73 98 98 88 60 28 22 36 48 44 47 39 60 55 82 100 100 87 82
5 6 6 11 25 40 12 20 29 45 49 34 46 78 93 90 88 90 93 97 94 83 80 76 73 91 84 69 44 27 24 29 40 47 51 48 52 65 46 62 88 97 100 100 100 98 99
13 5 6 8 12 56 22 19 25 28 45 55 62 65 82 82 70 63 67 72 68 84 97 100 53 36 36 37 46 51 50 52 48 50 44 46 49 56 61 95 99 93 98 99 95 100 95
25 6 6 7 8 15 51 40 16 18 22 29 40 53 68 58 56 64 70 73 66 82 46 33 50 68 65 44 41 52 67 57 92 78 76 62 56 70 96 100 93 100 99 98 99 100 100
27 17 5 7 7 7 11 23 41 46 30 31 24 26 31 40 51 63 76 67 59 59 66 65 63 66 61 65 66 73 85 99 100 100 90 70 69 92 99 99 100 100 95 97 97 99 98
27 21 7 6 8 8 6 7 14 27 63 64 60 73 48 74 76 74 68 47 44 71 71 48 49 48 65 78 96 100 100 100 100 100 85 81 89 100 99 98 100 100 97 97 92 83 98
20 18 16 5 8 9 8 6 6 8 12 19 22 35 49 50 63 67 60 70 66 54 39 34 46 68 98 100 100 86 85 84 89 70 79 88 98 100 98 99 98 100 98 99 93 94 100
12 18 15 6 5 9 9 9 6 6 6 9 15 19 26 32 37 45 43 46 35 29 28 35 53 76 84 70 67 79 96 82 82 81 83 93 92 70 62 88 94 99 100 97 98 98 97
5 17 15 11 4 7 9 10 10 7 6 7 12 18 23 34 28 29 24 21 20 28 46 58 74 79 68 60 64 73 85 88 90 80 83 77 62 61 60 66 80 87 96 100 99 99 93
3 10 18 10 7 4 7 10 11 11 9 6 8 10 15 18 21 20 19 16 30 36 45 49 44 46 47 60 52 46 53 60 69 69 66 61 55 46 37 42 46 47 63 72 79 81 100
5 4 13 18 9 4 5 7 11 12 12 10 8 6 7 9 12 16 21 23 25 30 28 30 31 25 25 32 40 44 49 46 51 56 55 52 48 36 29 26 28 29 27 22 31 23 43
11 4 5 13 17 8 4 5 8 12 13 13 12 10 8 8 8 8 11 17 21 26 28 27 25 20 17 20 24 30 34 38 38 45 47 43 34 29 25 22 21 20 22 17 16 20 27
26 8 3 6 15 14 6 4 6 8 12 14 14 13 12 10 9 8 8 9 12 15 18 22 23 21 19 18 15 14 16 22 25 28 34 32 30 27 27 24 28 29 27 24 25 23 22
32 21 5 3 8 16 13 5 4 5 7 11 14 15 15 14 12 12 11 10 9 9 11 14 14 17 19 20 19 17 15 12 12 15 17 19 21 24 22 19 20 19 16 15 16 15 16
22 35 17 5 3 8 18 14 5 4 5 7 10 13 14 15 16 13 13 13 13 12 11 10 10 9 9 9 9 8 8 9 9 8 9 10 10 10 10 10 10 10 8 7 8 8 7
23 25 30 14 5 3 5 19 16 6 4 5 6 8 11 13 15 16 15 15 14 14 14 14 14 13 13 12 11 10 9 8 7 6 6 6 7 7 7 7 7 7 7 7 7 7 8
32 26 22 20 10 4 3 5 18 18 8 4 4 5 6 9 12 14 16 16 16 15 15 15 14 15 16 15 14 13 12 12 11 11 10 9 9 9 9 8 8 8 9 9 10 10 11
44 31 22 19 16 10 5 4 4 15 21 16 6 4 4 5 7 10 13 16 18 18 17 15 15 14 13 14 14 14 14 13 13 12 12 12 11 11 11 11 11 10 9 9 9 9 9

GFSGBSN_500_rhum_111.txt.gz
RH
3 3 4 9 30 29 27 24 53 100 100 100 100 99 98 76 97 99 96 98 100 99 99 99 100 98 97 90 100 98 96 88 75 67 63 60 57 52 48 44 42 37 34 31 30 28 24
4 4 4 14 34 35 20 38 96 100 100 100 100 100 89 75 66 93 77 78 96 100 100 99 100 100 98 98 99 99 97 96 92 76 71 68 62 58 55 53 47 45 39 39 38 37 28
4 4 5 16 34 19 29 100 100 99 99 99 100 84 62 69 59 70 93 88 69 97 100 100 100 100 100 99 100 100 98 94 92 88 82 74 71 67 64 60 52 45 40 38 37 35 30
4 4 6 21 22 11 80 100 100 100 95 55 44 57 77 58 44 59 97 100 87 94 98 100 100 100 100 100 100 100 98 87 88 88 84 76 71 65 61 59 50 44 38 38 34 31 26
5 4 6 20 14 13 60 94 78 88 67 57 72 99 100 100 65 92 100 100 93 85 77 100 100 100 100 100 100 100 95 92 92 92 89 74 55 53 49 46 42 38 39 39 31 25 22
5 4 6 19 8 11 45 42 48 62 72 54 80 72 100 100 96 99 99 61 67 68 84 98 100 100 100 100 100 100 100 99 92 79 69 65 53 45 38 42 46 44 41 32 28 44 21
6 4 6 19 8 15 27 34 41 44 52 35 45 79 88 63 96 85 85 91 58 44 100 100 100 100 100 100 99 98 70 66 73 71 76 60 48 40 49 55 52 41 30 27 37 37 34
6 4 6 19 13 13 26 31 37 37 47 51 62 58 51 92 100 100 99 100 99 100 100 100 100 100 100 100 97 100 85 81 77 79 54 49 49 57 58 50 40 33 31 35 40 38 29
7 4 6 19 17 12 28 37 46 36 39 47 68 63 37 48 91 100 100 100 100 100 100 100 100 100 100 96 89 93 94 80 67 53 52 59 53 53 50 41 39 46 48 36 22 14 21
8 5 7 20 18 12 26 28 28 28 27 37 73 78 30 24 51 93 88 99 100 100 98 100 100 100 97 95 94 91 79 74 69 66 63 55 51 50 46 46 46 26 20 17 18 34 46
7 6 5 21 17 15 15 33 42 46 44 53 61 29 45 66 74 60 66 90 85 85 70 85 85 84 83 83 91 84 80 80 73 64 58 55 47 54 50 26 21 20 27 39 48 58 66
6 8 5 6 32 18 18 20 23 21 20 24 31 34 35 38 38 63 77 73 81 90 82 100 100 99 90 85 75 69 67 63 65 59 52 55 43 26 24 35 31 47 61 87 81 79 91
5 8 5 4 6 29 22 23 24 32 36 26 27 29 47 61 58 63 69 82 88 89 84 95 92 87 65 55 55 68 74 75 62 55 34 23 26 35 38 42 62 78 91 96 94 89 96
6 7 9 5 5 7 23 36 27 29 32 38 47 46 48 54 62 69 70 72 78 92 93 93 79 54 42 35 29 25 22 22 24 34 38 42 46 52 55 70 80 92 99 80 77 72 94
8 5 9 9 5 5 6 14 33 48 31 40 46 48 49 52 62 76 85 96 71 76 43 45 45 37 30 36 40 43 44 52 43 44 54 56 50 58 81 88 93 98 96 76 74 89 98
14 5 8 10 10 5 6 7 10 15 23 50 75 80 74 72 77 71 54 43 44 47 39 35 40 47 58 61 62 79 92 93 94 80 69 60 65 79 97 96 98 94 72 70 83 96 98
15 8 6 9 11 10 6 6 6 9 12 15 26 44 50 47 47 44 30 34 38 44 50 58 68 89 97 100 100 100 100 100 97 73 65 71 83 96 100 100 95 88 89 92 96 97 97
8 12 5 7 10 12 10 6 6 7 9 12 18 22 30 37 52 25 29 36 43 55 77 83 81 77 95 100 100 100 93 84 80 73 74 86 94 97 100 100 92 96 94 99 87 97 100
4 11 8 4 7 12 13 10 7 6 8 10 14 17 21 24 23 32 40 43 54 63 68 66 63 86 90 99 93 95 72 64 72 85 93 90 90 96 98 98 95 95 96 90 96 100 96
8 4 12 5 5 9 13 13 11 8 7 7 9 12 16 20 27 36 36 42 42 50 50 54 59 64 70 68 71 68 54 66 79 89 70 70 70 72 73 88 96 87 90 97 97 94 92
16 5 5 11 4 5 9 14 13 11 10 8 7 8 9 14 21 24 35 38 36 31 31 37 43 46 53 55 52 64 64 62 69 61 56 48 46 49 50 54 66 72 81 83 83 85 84
61 12 3 7 12 4 5 10 14 14 12 11 9 8 8 8 10 14 16 18 21 26 24 22 28 33 32 36 45 49 47 50 48 44 44 39 30 27 24 27 32 34 33 53 69 50 67
77 34 8 3 8 12 4 5 10 14 14 14 13 11 10 9 8 9 11 13 16 19 17 14 14 17 22 25 29 30 32 39 37 36 33 32 30 27 22 21 20 20 15 15 18 24 29
66 65 30 6 4 9 12 4 5 9 12 13 15 15 13 12 11 10 9 10 12 12 13 13 12 12 14 14 15 17 21 27 35 34 33 32 28 26 24 21 23 19 16 15 15 14 15
63 62 54 28 5 3 7 13 5 5 7 9 12 14 15 15 14 13 12 11 10 9 9 9 9 10 10 9 10 10 10 10 13 18 28 32 33 28 24 24 20 19 19 17 14 12 11
61 62 57 53 22 4 3 5 14 5 5 6 8 11 13 15 17 16 16 15 13 13 12 11 10 8 7 6 6 6 6 7 8 10 12 13 11 10 8 8 9 9 10 8 8 8 8
62 59 58 57 49 13 4 4 5 15 7 4 5 6 10 12 13 16 18 17 16 16 16 14 14 13 11 12 11 9 8 6 6 6 6 6 6 6 6 6 6 5 6 7 7 6 6
67 60 56 55 57 42 9 5 4 4 10 14 6 5 5 7 9 10 15 19 20 18 17 16 16 16 16 14 13 13 13 12 12 11 10 10 10 9 8 8 8 8 9 9 9 10 10
75 64 59 54 58 51 39 9 5 4 3 4 14 13 7 5 5 6 8 11 16 18 20 19 18 16 17 18 17 16 15 14 14 13 13 12 11 10 10 10 10 11 11 11 10 10 9

GFSGBSN_500_rhum_114.txt.gz
RH
3 3 3 8 15 10 13 87 90 99 99 100 100 100 100 100 100 100 100 97 100 99 100 100 99 98 100 100 99 96 96 93 83 73 66 62 59 54 49 44 41 33 32 30 30 30 23
4 3 3 13 10 11 16 71 93 99 93 100 100 100 100 100 92 86 100 97 80 96 100 100 98 99 100 100 100 99 98 96 96 94 87 74 68 62 56 53 50 44 42 39 35 33 31
4 3 4 15 8 15 34 48 64 78 82 81 66 58 55 71 58 93 82 86 61 54 87 100 99 100 100 100 93 99 97 99 99 97 95 90 79 70 65 61 56 49 44 42 39 38 34
4 3 5 15 9 18 28 36 44 70 69 72 63 67 48 44 67 48 63 88 82 45 44 100 97 100 98 99 97 100 95 98 98 97 99 97 90 83 76 70 62 55 49 48 44 42 35
4 4 7 15 13 18 30 27 32 46 51 48 53 70 71 66 95 76 65 100 99 47 36 98 100 100 100 100 100 100 98 95 98 97 97 98 92 89 82 74 64 55 46 37 29 27 23
4 4 8 17 14 14 20 30 33 37 42 33 54 93 95 86 61 59 86 100 90 80 86 100 100 100 100 100 97 100 87 89 95 99 99 91 89 89 79 59 48 36 29 23 21 28 19
4 5 8 19 15 18 16 26 29 40 52 42 48 96 100 82 99 96 78 78 80 100 100 100 100 100 100 100 98 100 100 100 100 95 93 88 84 70 59 46 35 26 19 16 33 37 28
4 5 8 20 20 23 16 16 42 46 28 28 39 61 97 71 76 86 70 85 82 100 100 100 100 100 100 100 100 94 90 88 82 81 82 69 57 48 37 25 17 16 22 35 34 34 27
6 5 6 14 24 28 19 19 20 22 27 32 45 71 92 72 95 96 84 95 100 100 100 100 100 100 100 100 100 92 84 75 68 63 55 46 39 29 23 22 28 42 39 36 28 30 35
8 5 5 7 24 26 29 24 20 26 29 16 17 25 60 67 72 86 96 100 100 100 98 100 100 100 100 100 100 95 83 73 62 51 42 34 30 27 32 36 42 42 33 29 32 27 17
10 6 5 6 9 36 28 34 30 23 28 26 18 18 32 45 64 71 73 82 93 99 83 98 99 98 100 97 95 84 76 65 53 39 34 36 38 41 48 42 33 34 34 22 23 34 37
10 10 6 5 6 8 38 32 37 45 46 42 51 32 40 64 67 76 75 76 82 79 68 90 98 98 90 89 84 85 72 59 52 56 58 54 51 46 37 36 28 22 33 52 63 51 69
9 11 9 6 5 6 8 21 42 53 50 50 50 50 48 53 74 67 68 69 71 67 83 89 88 83 81 91 82 79 70 64 60 51 50 45 40 36 29 25 39 59 77 60 59 76 89
6 11 12 8 6 5 6 9 15 55 70 70 62 64 72 73 75 76 76 73 74 70 69 69 71 69 59 57 54 56 52 50 50 45 42 28 28 29 39 53 74 81 67 60 66 78 86
5 8 12 12 8 6 6 7 9 14 27 39 36 36 31 30 36 44 63 65 51 44 43 42 33 24 23 28 27 24 23 23 24 26 32 42 50 55 63 76 77 69 67 74 77 89 97
14 5 10 13 11 8 6 6 8 9 12 22 24 30 30 35 35 33 34 35 35 34 36 37 37 41 51 65 67 57 48 44 46 48 55 61 71 73 76 79 74 70 70 85 97 98 98
6 9 6 12 12 11 8 7 6 8 12 19 25 27 28 34 44 51 47 54 63 73 85 86 89 89 98 100 93 79 71 67 73 77 81 73 80 82 93 80 90 92 96 97 99 97 97
15 7 5 8 13 13 11 8 7 7 7 14 25 25 21 24 42 33 38 49 74 95 95 100 100 100 99 96 91 86 85 82 80 81 77 75 89 98 99 84 82 85 96 96 96 98 97
28 8 11 5 10 13 13 11 9 8 8 7 14 19 20 20 22 23 30 43 59 73 90 94 100 100 94 75 69 70 70 79 90 92 97 91 85 98 99 99 97 73 77 86 93 94 98
70 19 4 10 5 11 13 14 12 10 8 8 8 9 17 16 16 16 18 22 38 49 54 54 57 67 65 57 59 69 80 75 68 76 74 72 78 86 83 85 85 87 79 81 99 98 100
86 55 17 4 10 5 10 13 13 13 11 9 8 7 8 12 13 13 18 17 20 24 28 37 43 48 51 54 56 67 67 58 59 56 46 39 38 39 50 66 80 82 81 88 89 91 100
74 84 45 7 4 10 5 10 12 12 14 12 10 8 8 7 8 12 14 15 16 17 16 17 19 26 36 39 44 48 48 47 47 47 41 35 28 23 23 28 24 25 55 66 60 54 78
73 72 75 39 6 4 9 5 9 10 12 14 14 12 10 9 8 7 8 9 11 12 13 12 13 16 20 22 25 29 26 30 32 35 31 28 27 25 22 20 19 18 15 21 31 33 30
67 68 77 73 38 6 4 9 6 7 9 11 12 14 14 13 11 10 8 8 7 8 9 10 11 12 13 14 15 14 15 17 19 23 23 22 21 22 24 24 22 18 17 16 15 14 14
67 67 72 84 65 16 5 4 10 7 6 8 10 10 13 14 15 14 12 10 9 6 6 6 7 8 8 10 10 12 11 10 10 12 13 18 20 21 22 23 18 19 17 14 13 14 12
70 64 70 82 81 55 18 6 4 10 9 5 6 9 9 11 14 15 14 14 13 12 11 9 7 6 5 5 5 6 6 6 7 8 6 7 6 6 6 6 6 9 9 10 9 8 8
73 70 68 82 82 67 54 10 5 4 6 9 7 6 7 8 10 13 14 14 14 14 13 13 12 12 11 10 9 8 8 7 7 8 7 6 6 5 5 5 5 5 5 5 6 6 5
71 69 70 77 83 81 60 51 11 5 5 5 8 12 7 6 7 9 11 13 16 15 16 15 15 14 13 13 13 13 13 13 13 12 11 10 10 9 8 8 8 7 7 8 8 8 8
74 69 68 72 84 80 82 60 55 25 5 7 5 5 10 12 9 6 7 9 14 18 18 19 20 19 19 19 15 14 14 13 13 14 15 15 14 12 10 9 8 8 8 9 8 8 8

GFSGBSN_500_rhum_117.txt.gz
RH
5 4 4 17 17 11 24 26 36 44 79 90 100 100 100 100 100 100 100 100 98 92 77 94 97 97 100 98 95 98 97 82 64 55 55 58 59 55 49 44 40 34 33 32 28 24 21
4 4 5 21 19 11 20 27 38 47 64 63 63 69 95 100 100 100 100 100 96 98 100 86 82 95 100 100 97 97 100 96 91 74 68 69 72 65 58 52 48 47 45 41 38 34 29
4 4 7 21 23 14 15 33 39 46 47 45 38 36 40 56 89 100 100 100 100 86 84 99 83 89 97 100 100 100 88 86 98 97 95 93 90 77 69 64 59 56 54 50 46 42 35
5 5 6 20 26 18 16 17 20 27 33 62 43 46 49 40 60 50 81 100 100 64 62 100 95 99 100 100 100 99 89 92 100 99 98 97 100 97 90 80 72 66 62 58 55 50 44
5 5 6 16 28 20 19 30 33 40 53 62 87 62 66 80 57 66 51 77 82 72 50 76 98 100 100 100 100 96 85 83 89 98 98 96 96 97 94 87 80 73 66 62 58 52 45
6 5 6 13 31 21 20 21 23 39 59 70 84 57 72 71 92 74 66 64 65 50 35 40 71 100 100 100 99 98 94 92 96 97 98 98 97 95 90 82 73 68 64 61 52 41 35
6 5 6 7 29 34 23 25 29 24 41 68 48 39 52 59 95 77 69 82 98 74 42 43 86 100 100 100 100 99 97 93 94 89 89 91 91 86 77 71 66 66 55 40 29 20 20
7 6 6 7 11 36 35 34 45 32 29 45 50 71 55 62 91 100 100 100 100 100 100 100 100 100 100 100 100 100 89 85 81 86 86 80 69 73 67 59 50 40 23 13 12 13 15
10 6 6 6 8 18 44 43 44 52 37 46 49 50 46 50 45 79 100 100 100 100 100 100 100 100 100 100 99 96 91 83 80 82 77 68 59 54 44 30 19 13 11 13 13 20 23
12 8 6 6 6 9 30 56 47 48 56 46 58 60 63 69 88 80 98 100 100 100 88 100 100 100 100 100 96 87 76 86 87 67 54 44 35 27 20 16 18 18 22 24 29 27 23
12 11 7 6 6 7 9 38 60 55 55 63 64 69 68 70 84 87 94 100 98 91 74 100 100 98 99 99 92 81 81 80 63 50 40 35 25 24 25 29 34 32 31 27 22 20 24
11 12 9 7 6 7 7 10 38 61 65 69 70 64 59 60 71 76 83 88 82 88 73 99 97 100 100 97 85 69 58 52 49 34 27 34 42 40 38 35 29 32 30 23 21 31 44
7 12 12 8 6 6 8 8 15 21 28 33 50 67 74 72 61 67 70 69 73 57 79 93 98 98 92 84 76 69 63 54 48 44 42 40 36 36 34 33 26 23 30 38 48 60 68
10 10 13 11 8 6 6 9 11 26 28 26 22 25 32 38 41 54 61 65 44 51 55 65 63 61 61 64 61 62 57 44 37 42 42 38 32 30 26 34 53 62 59 54 58 70 65
12 6 12 14 11 8 6 7 9 12 22 25 28 28 29 28 28 30 34 31 33 46 46 40 32 34 46 43 43 43 40 38 29 27 27 22 24 41 59 66 71 74 71 71 72 68 88
41 10 6 13 14 11 8 6 7 10 12 18 22 38 38 44 53 59 40 37 40 40 46 53 58 55 49 39 35 31 29 25 27 30 40 62 66 66 66 80 78 87 87 93 90 94 96
48 28 11 8 13 13 11 8 7 8 9 11 13 18 28 43 62 60 41 61 62 69 73 78 80 61 48 49 49 49 56 64 70 76 80 83 78 78 95 98 97 97 96 94 97 97 98
86 37 13 8 10 13 13 11 8 7 7 8 9 11 16 36 52 51 52 57 59 63 65 65 65 64 65 72 78 80 82 82 82 88 89 94 99 98 97 90 94 93 95 99 97 97 99
89 67 35 8 6 11 13 13 11 8 7 6 7 8 13 20 31 33 32 33 38 44 49 50 55 60 66 77 83 88 92 89 92 94 97 96 92 95 92 91 92 82 83 89 97 100 93
87 86 51 18 7 6 10 12 13 12 9 7 6 6 8 12 18 21 24 28 28 28 28 35 43 56 66 74 76 69 71 71 60 56 52 54 62 84 90 90 92 92 93 93 89 93 96
90 86 81 40 9 7 6 10 12 13 12 10 8 6 6 7 10 14 17 18 20 24 27 31 35 42 47 48 49 51 48 41 34 30 30 29 28 33 41 32 37 66 72 78 84 91 82
84 87 84 79 38 8 6 6 8 11 12 13 12 9 6 5 6 8 12 14 15 15 16 23 30 33 34 36 37 40 39 36 33 27 24 22 20 19 18 18 18 19 22 38 46 43 34
72 81 84 80 75 24 5 6 6 8 10 11 14 14 11 8 6 6 7 9 11 12 13 14 16 18 19 21 21 22 22 20 19 18 19 19 21 20 16 14 14 14 18 22 21 19 18
67 74 86 79 76 67 28 5 6 7 7 8 10 14 15 13 11 8 6 5 7 8 8 10 11 11 13 14 14 12 12 12 11 11 11 11 14 17 19 18 16 14 12 11 12 12 11
66 69 80 80 80 74 66 18 4 7 7 6 6 9 12 15 14 13 11 9 6 5 5 6 7 7 8 9 8 8 7 7 6 6 6 6 6 6 7 8 8 10 12 13 12 10 9
62 63 73 84 76 78 70 58 14 4 6 9 6 6 7 10 14 14 15 14 12 10 9 7 6 6 6 6 6 6 6 6 6 6 6 5 4 4 4 4 4 5 5 7 7 7 7
57 59 60 72 76 79 73 72 57 14 4 5 9 8 7 6 8 10 14 16 16 15 14 13 12 12 11 10 10 10 10 10 10 9 9 8 8 7 7 6 6 6 6 6 6 5 4
58 61 56 68 70 76 79 73 74 56 28 7 8 6 7 9 8 7 7 12 15 15 16 17 17 16 15 14 13 12 13 14 14 14 15 15 14 11 9 9 9 8 8 8 8 8 8
55 64 62 62 71 68 74 77 75 78 60 47 10 6 6 6 8 10 11 8 8 9 11 12 16 18 20 20 20 20 19 20 20 18 19 17 15 16 17 17 16 11 9 9 8 8 8

GFSGBSN_500_rhum_120.txt.gz
RH
6 5 4 7 31 20 17 34 48 42 66 37 31 46 99 100 100 100 87 79 88 67 65 73 96 100 100 100 98 99 94 72 63 55 46 41 39 39 40 42 37 34 34 30 26 23 23
6 5 5 8 34 27 24 26 59 60 77 71 38 29 36 100 100 100 98 100 100 52 40 59 81 100 100 99 100 100 97 93 77 67 57 49 45 44 44 46 44 43 41 38 34 29 28
6 5 5 8 31 33 34 33 39 66 75 45 57 60 45 49 99 100 96 100 88 50 39 32 56 100 100 100 100 93 94 92 96 95 73 59 54 52 52 55 53 52 48 45 42 40 38
7 6 5 7 17 41 47 41 38 54 65 42 60 75 57 40 66 99 88 96 82 51 64 77 90 88 100 99 100 100 81 82 88 89 93 96 81 63 65 65 67 64 58 54 53 51 48
7 6 6 6 10 42 46 39 40 57 50 50 70 94 71 38 32 66 98 71 81 66 72 100 90 92 99 100 100 99 82 70 74 73 78 87 89 96 93 90 86 82 76 73 67 63 56
8 6 6 5 8 32 48 47 31 49 49 32 66 76 67 61 51 54 61 86 61 74 70 88 100 100 100 100 100 100 90 89 79 72 73 82 87 88 88 90 87 86 83 80 76 64 57
9 7 6 6 7 15 48 54 39 48 68 70 42 68 73 56 53 73 64 69 81 58 47 57 100 100 98 100 100 100 100 89 81 76 80 91 91 88 88 88 87 84 79 71 62 52 44
11 8 6 6 6 11 26 60 57 40 57 78 75 92 98 96 72 49 33 37 44 47 35 49 78 100 100 100 100 97 98 92 80 79 82 88 85 82 80 77 74 66 56 47 42 30 22
11 10 7 6 6 9 11 27 60 59 43 63 74 76 91 89 100 97 99 91 76 58 37 56 98 100 100 100 94 90 92 84 86 76 76 77 76 72 65 58 51 43 32 17 14 12 12
11 13 9 7 6 7 12 13 18 48 56 47 61 75 81 93 100 98 100 100 100 100 89 100 100 100 100 98 95 88 82 83 78 75 72 67 60 51 43 34 24 16 15 12 11 10 12
9 13 12 8 6 8 10 17 18 15 22 58 48 54 63 68 84 96 100 100 100 95 68 100 100 99 96 100 100 96 93 87 73 70 61 50 37 29 21 16 15 14 12 12 16 20 20
8 12 14 10 7 6 9 16 23 22 19 25 46 59 56 55 56 61 61 82 84 72 70 95 93 97 98 91 81 75 81 73 66 57 40 32 18 14 14 17 18 21 23 25 23 22 22
14 7 14 14 9 7 7 10 20 27 29 32 28 25 32 54 48 48 50 57 59 40 72 85 81 83 80 82 77 69 61 45 38 27 18 16 17 18 21 29 28 27 36 40 37 50 55
60 9 10 14 12 8 6 7 12 18 27 36 41 43 37 28 26 46 42 46 38 49 54 62 62 54 54 46 40 35 31 29 21 24 20 23 30 32 31 27 48 61 49 57 80 80 88
74 38 7 12 14 12 8 6 8 12 20 28 31 36 40 60 39 23 31 44 28 35 37 36 33 33 30 26 31 30 32 29 26 32 34 26 24 33 56 65 66 79 88 100 98 82 87
87 64 14 8 13 14 11 7 6 8 13 22 25 30 38 42 64 56 35 27 31 36 33 32 31 31 33 34 34 34 34 32 26 26 35 48 57 65 73 88 97 100 100 99 92 91 85
96 71 58 9 9 14 14 10 7 6 8 13 20 20 28 37 45 47 42 38 34 32 31 28 26 27 28 28 32 38 46 53 61 68 68 74 91 97 100 100 100 100 97 92 86 84 80
95 95 60 41 8 10 13 13 10 6 6 7 12 16 19 24 38 30 36 46 51 55 58 59 64 67 69 69 69 72 74 89 94 96 98 99 95 91 93 98 97 95 90 87 83 80 72
82 96 90 50 26 8 10 13 13 10 7 6 6 11 14 17 21 20 25 37 44 52 60 67 69 74 76 79 80 87 88 92 89 84 82 88 91 93 80 81 76 74 78 71 81 84 85
76 84 96 84 46 19 7 9 13 13 10 7 6 6 9 13 15 15 17 22 30 40 48 55 58 57 58 64 55 46 42 36 36 39 48 59 46 37 48 61 64 64 64 70 77 69 84
78 79 90 96 71 36 10 7 8 12 12 11 8 6 6 7 9 11 12 14 20 27 32 38 42 44 46 43 39 34 30 27 27 26 22 20 19 19 20 26 31 36 44 53 52 48 54
74 82 78 94 94 67 32 6 7 8 10 13 12 9 6 6 6 7 9 11 12 14 18 22 25 28 30 31 31 28 26 25 22 20 19 17 14 12 12 14 19 22 25 21 24 23 22
68 68 72 80 94 92 64 27 5 7 7 8 11 12 11 8 6 6 6 6 8 9 10 12 14 15 16 16 14 13 13 13 12 12 11 10 11 13 11 12 11 11 13 15 14 12 10
63 69 60 69 91 94 90 71 15 5 7 6 7 8 11 12 11 8 6 6 6 6 6 7 8 8 10 10 8 8 7 7 6 6 6 6 6 7 8 8 10 10 9 9 9 9 9
64 62 64 56 68 91 88 87 56 12 5 7 7 6 7 8 12 13 11 9 8 6 6 6 6 6 6 6 6 6 6 6 6 5 5 5 5 5 5 5 5 5 6 9 9 8 9
69 59 60 54 56 69 84 86 85 51 10 5 6 8 7 6 7 11 14 14 12 11 10 9 8 8 8 8 8 8 8 8 8 8 7 7 7 7 6 6 6 5 5 4 5 5 4
71 58 56 59 54 59 74 78 84 82 44 12 10 9 7 9 7 6 7 12 13 15 14 13 12 12 11 11 12 12 13 13 14 14 14 14 13 10 8 8 7 7 7 6 6 6 6
80 65 54 54 55 52 61 74 76 81 78 60 36 17 10 6 7 10 8 7 8 9 13 15 15 18 17 16 16 16 17 18 18 18 18 17 16 16 16 16 15 14 10 8 8 8 8
74 77 53 49 52 50 54 68 72 70 80 77 68 50 27 11 12 7 8 10 11 9 8 8 11 12 14 17 17 16 14 16 16 16 16 17 19 20 20 20 20 18 17 18 18 18 15